<?xml version="1.0" encoding="UTF-8" standalone="no" ?>
<gpx xmlns="http://www.topografix.com/GPX/1/1" xmlns:xsi="http://www.w3.org/2001/XMLSchema-instance" xsi:schemaLocation="http://www.topografix.com/GPX/1/1 http://www.topografix.com/GPX/1/1/gpx.xsd" version="1.1" creator="VisuGPX - https://www.visugpx.com">
  <metadata>
    <name>Lormont</name>
  </metadata>
  <wpt lat="44.81176" lon="-0.50484">
    <ele>28.2</ele>
    <name><![CDATA[]]></name>
    <desc><![CDATA[]]></desc>
  </wpt>
  <trk>
    <name><![CDATA[Lormont]]></name>
    <trkseg>
      <trkpt lat="44.84168" lon="-0.56269">
        <ele>4.5151977539062</ele>
        <time>2022-02-23T08:39:15Z</time>
      </trkpt>
      <trkpt lat="44.8416" lon="-0.56258">
        <ele>9.7142333984375</ele>
        <time>2022-02-23T08:39:22Z</time>
      </trkpt>
      <trkpt lat="44.84152" lon="-0.56249">
        <ele>8.7053833007812</ele>
        <time>2022-02-23T08:39:30Z</time>
      </trkpt>
      <trkpt lat="44.84144" lon="-0.5624">
        <ele>8.4580688476562</ele>
        <time>2022-02-23T08:39:40Z</time>
      </trkpt>
      <trkpt lat="44.84136" lon="-0.5623">
        <ele>8.484375</ele>
        <time>2022-02-23T08:39:49Z</time>
      </trkpt>
      <trkpt lat="44.84127" lon="-0.56226">
        <ele>8.2642211914062</ele>
        <time>2022-02-23T08:39:57Z</time>
      </trkpt>
      <trkpt lat="44.84119" lon="-0.56219">
        <ele>9.4593505859375</ele>
        <time>2022-02-23T08:40:06Z</time>
      </trkpt>
      <trkpt lat="44.84111" lon="-0.56207">
        <ele>14.857055664062</ele>
        <time>2022-02-23T08:40:14Z</time>
      </trkpt>
      <trkpt lat="44.84107" lon="-0.56194">
        <ele>12.945739746094</ele>
        <time>2022-02-23T08:40:23Z</time>
      </trkpt>
      <trkpt lat="44.84098" lon="-0.56186">
        <ele>15.991455078125</ele>
        <time>2022-02-23T08:40:34Z</time>
      </trkpt>
      <trkpt lat="44.84088" lon="-0.56182">
        <ele>16.107482910156</ele>
        <time>2022-02-23T08:40:40Z</time>
      </trkpt>
      <trkpt lat="44.84079" lon="-0.56171">
        <ele>13.664978027344</ele>
        <time>2022-02-23T08:40:49Z</time>
      </trkpt>
      <trkpt lat="44.84071" lon="-0.56162">
        <ele>13.197021484375</ele>
        <time>2022-02-23T08:40:56Z</time>
      </trkpt>
      <trkpt lat="44.84065" lon="-0.56149">
        <ele>10.560424804688</ele>
        <time>2022-02-23T08:41:04Z</time>
      </trkpt>
      <trkpt lat="44.84057" lon="-0.5614">
        <ele>13.6982421875</ele>
        <time>2022-02-23T08:41:12Z</time>
      </trkpt>
      <trkpt lat="44.84048" lon="-0.56133">
        <ele>12.733276367188</ele>
        <time>2022-02-23T08:41:21Z</time>
      </trkpt>
      <trkpt lat="44.84039" lon="-0.56124">
        <ele>11.901489257812</ele>
        <time>2022-02-23T08:41:29Z</time>
      </trkpt>
      <trkpt lat="44.84032" lon="-0.56114">
        <ele>9.7009887695312</ele>
        <time>2022-02-23T08:41:36Z</time>
      </trkpt>
      <trkpt lat="44.84028" lon="-0.56102">
        <ele>8.7969360351562</ele>
        <time>2022-02-23T08:41:42Z</time>
      </trkpt>
      <trkpt lat="44.84022" lon="-0.56092">
        <ele>8.176513671875</ele>
        <time>2022-02-23T08:41:49Z</time>
      </trkpt>
      <trkpt lat="44.84014" lon="-0.56081">
        <ele>9.9692993164062</ele>
        <time>2022-02-23T08:41:57Z</time>
      </trkpt>
      <trkpt lat="44.84005" lon="-0.56072">
        <ele>12.442260742188</ele>
        <time>2022-02-23T08:42:05Z</time>
      </trkpt>
      <trkpt lat="44.83996" lon="-0.56065">
        <ele>8.6649169921875</ele>
        <time>2022-02-23T08:42:12Z</time>
      </trkpt>
      <trkpt lat="44.83987" lon="-0.56059">
        <ele>10.220458984375</ele>
        <time>2022-02-23T08:42:20Z</time>
      </trkpt>
      <trkpt lat="44.83979" lon="-0.5605">
        <ele>9.1847534179688</ele>
        <time>2022-02-23T08:42:27Z</time>
      </trkpt>
      <trkpt lat="44.83971" lon="-0.56042">
        <ele>9.4588623046875</ele>
        <time>2022-02-23T08:42:33Z</time>
      </trkpt>
      <trkpt lat="44.83966" lon="-0.56028">
        <ele>11.99169921875</ele>
        <time>2022-02-23T08:42:40Z</time>
      </trkpt>
      <trkpt lat="44.8396" lon="-0.56017">
        <ele>10.223266601562</ele>
        <time>2022-02-23T08:42:47Z</time>
      </trkpt>
      <trkpt lat="44.83952" lon="-0.56007">
        <ele>10.51318359375</ele>
        <time>2022-02-23T08:42:55Z</time>
      </trkpt>
      <trkpt lat="44.83946" lon="-0.55997">
        <ele>12.019775390625</ele>
        <time>2022-02-23T08:43:01Z</time>
      </trkpt>
      <trkpt lat="44.83937" lon="-0.55986">
        <ele>11.069763183594</ele>
        <time>2022-02-23T08:43:09Z</time>
      </trkpt>
      <trkpt lat="44.83928" lon="-0.55981">
        <ele>9.3424072265625</ele>
        <time>2022-02-23T08:43:16Z</time>
      </trkpt>
      <trkpt lat="44.83922" lon="-0.55969">
        <ele>9.2108154296875</ele>
        <time>2022-02-23T08:43:23Z</time>
      </trkpt>
      <trkpt lat="44.83914" lon="-0.55962">
        <ele>11.218322753906</ele>
        <time>2022-02-23T08:43:31Z</time>
      </trkpt>
      <trkpt lat="44.83906" lon="-0.5595">
        <ele>11.546936035156</ele>
        <time>2022-02-23T08:43:38Z</time>
      </trkpt>
      <trkpt lat="44.839" lon="-0.55941">
        <ele>9.7879638671875</ele>
        <time>2022-02-23T08:43:44Z</time>
      </trkpt>
      <trkpt lat="44.83891" lon="-0.55932">
        <ele>9.8933715820312</ele>
        <time>2022-02-23T08:43:52Z</time>
      </trkpt>
      <trkpt lat="44.83881" lon="-0.5592">
        <ele>10.967468261719</ele>
        <time>2022-02-23T08:44:01Z</time>
      </trkpt>
      <trkpt lat="44.83873" lon="-0.55912">
        <ele>10.173706054688</ele>
        <time>2022-02-23T08:44:09Z</time>
      </trkpt>
      <trkpt lat="44.83865" lon="-0.55901">
        <ele>9.7928466796875</ele>
        <time>2022-02-23T08:44:17Z</time>
      </trkpt>
      <trkpt lat="44.83859" lon="-0.55891">
        <ele>7.246826171875</ele>
        <time>2022-02-23T08:44:24Z</time>
      </trkpt>
      <trkpt lat="44.8385" lon="-0.5588">
        <ele>9.3180541992188</ele>
        <time>2022-02-23T08:44:31Z</time>
      </trkpt>
      <trkpt lat="44.83844" lon="-0.55868">
        <ele>6.394287109375</ele>
        <time>2022-02-23T08:44:38Z</time>
      </trkpt>
      <trkpt lat="44.83838" lon="-0.55858">
        <ele>6.2764282226562</ele>
        <time>2022-02-23T08:44:45Z</time>
      </trkpt>
      <trkpt lat="44.83831" lon="-0.55849">
        <ele>6.24365234375</ele>
        <time>2022-02-23T08:44:51Z</time>
      </trkpt>
      <trkpt lat="44.83824" lon="-0.55839">
        <ele>4.5733642578125</ele>
        <time>2022-02-23T08:44:59Z</time>
      </trkpt>
      <trkpt lat="44.83818" lon="-0.55828">
        <ele>3.6903686523438</ele>
        <time>2022-02-23T08:45:08Z</time>
      </trkpt>
      <trkpt lat="44.8381" lon="-0.55819">
        <ele>3.5264892578125</ele>
        <time>2022-02-23T08:45:15Z</time>
      </trkpt>
      <trkpt lat="44.838" lon="-0.55817">
        <ele>2.9900512695312</ele>
        <time>2022-02-23T08:45:23Z</time>
      </trkpt>
      <trkpt lat="44.83794" lon="-0.55806">
        <ele>1.0030517578125</ele>
        <time>2022-02-23T08:45:31Z</time>
      </trkpt>
      <trkpt lat="44.83789" lon="-0.55795">
        <ele>2.15185546875</ele>
        <time>2022-02-23T08:45:39Z</time>
      </trkpt>
      <trkpt lat="44.83782" lon="-0.55782">
        <ele>-0.31195068359375</ele>
        <time>2022-02-23T08:45:47Z</time>
      </trkpt>
      <trkpt lat="44.83774" lon="-0.55771">
        <ele>3.181884765625</ele>
        <time>2022-02-23T08:45:56Z</time>
      </trkpt>
      <trkpt lat="44.83767" lon="-0.55759">
        <ele>1.2177734375</ele>
        <time>2022-02-23T08:46:04Z</time>
      </trkpt>
      <trkpt lat="44.83757" lon="-0.5576">
        <ele>2.88525390625</ele>
        <time>2022-02-23T08:46:13Z</time>
      </trkpt>
      <trkpt lat="44.83749" lon="-0.55769">
        <ele>6.9744873046875</ele>
        <time>2022-02-23T08:46:20Z</time>
      </trkpt>
      <trkpt lat="44.8374" lon="-0.55767">
        <ele>6.2498168945312</ele>
        <time>2022-02-23T08:46:26Z</time>
      </trkpt>
      <trkpt lat="44.83733" lon="-0.55757">
        <ele>4.4900512695312</ele>
        <time>2022-02-23T08:46:32Z</time>
      </trkpt>
      <trkpt lat="44.83726" lon="-0.55748">
        <ele>5.8143920898438</ele>
        <time>2022-02-23T08:46:39Z</time>
      </trkpt>
      <trkpt lat="44.83718" lon="-0.55739">
        <ele>6.6004638671875</ele>
        <time>2022-02-23T08:46:48Z</time>
      </trkpt>
      <trkpt lat="44.83712" lon="-0.55728">
        <ele>2.8295288085938</ele>
        <time>2022-02-23T08:46:58Z</time>
      </trkpt>
      <trkpt lat="44.83706" lon="-0.55718">
        <ele>3.8850708007812</ele>
        <time>2022-02-23T08:47:06Z</time>
      </trkpt>
      <trkpt lat="44.83698" lon="-0.55705">
        <ele>4.8684692382812</ele>
        <time>2022-02-23T08:47:15Z</time>
      </trkpt>
      <trkpt lat="44.83695" lon="-0.55692">
        <ele>5.8712158203125</ele>
        <time>2022-02-23T08:47:22Z</time>
      </trkpt>
      <trkpt lat="44.8369" lon="-0.5568">
        <ele>5.6270751953125</ele>
        <time>2022-02-23T08:47:30Z</time>
      </trkpt>
      <trkpt lat="44.83682" lon="-0.55669">
        <ele>5.802734375</ele>
        <time>2022-02-23T08:47:37Z</time>
      </trkpt>
      <trkpt lat="44.83676" lon="-0.55658">
        <ele>4.2130126953125</ele>
        <time>2022-02-23T08:47:47Z</time>
      </trkpt>
      <trkpt lat="44.83669" lon="-0.55648">
        <ele>3.8975830078125</ele>
        <time>2022-02-23T08:47:55Z</time>
      </trkpt>
      <trkpt lat="44.83663" lon="-0.55637">
        <ele>3.4701538085938</ele>
        <time>2022-02-23T08:48:02Z</time>
      </trkpt>
      <trkpt lat="44.83656" lon="-0.55626">
        <ele>5.47509765625</ele>
        <time>2022-02-23T08:48:11Z</time>
      </trkpt>
      <trkpt lat="44.8365" lon="-0.55616">
        <ele>2.3995361328125</ele>
        <time>2022-02-23T08:48:19Z</time>
      </trkpt>
      <trkpt lat="44.83642" lon="-0.55605">
        <ele>1.2177734375</ele>
        <time>2022-02-23T08:48:27Z</time>
      </trkpt>
      <trkpt lat="44.83636" lon="-0.55594">
        <ele>1.5294189453125</ele>
        <time>2022-02-23T08:48:37Z</time>
      </trkpt>
      <trkpt lat="44.8363" lon="-0.55583">
        <ele>0.95599365234375</ele>
        <time>2022-02-23T08:48:45Z</time>
      </trkpt>
      <trkpt lat="44.83623" lon="-0.55572">
        <ele>2.2461547851562</ele>
        <time>2022-02-23T08:48:54Z</time>
      </trkpt>
      <trkpt lat="44.83617" lon="-0.55562">
        <ele>1.8862915039062</ele>
        <time>2022-02-23T08:49:01Z</time>
      </trkpt>
      <trkpt lat="44.83609" lon="-0.55552">
        <ele>1.5598754882812</ele>
        <time>2022-02-23T08:49:10Z</time>
      </trkpt>
      <trkpt lat="44.83603" lon="-0.55541">
        <ele>2.4053955078125</ele>
        <time>2022-02-23T08:49:24Z</time>
      </trkpt>
      <trkpt lat="44.83595" lon="-0.55532">
        <ele>3.2453002929688</ele>
        <time>2022-02-23T08:49:32Z</time>
      </trkpt>
      <trkpt lat="44.83588" lon="-0.55521">
        <ele>3.4031982421875</ele>
        <time>2022-02-23T08:49:39Z</time>
      </trkpt>
      <trkpt lat="44.83581" lon="-0.55509">
        <ele>4.34521484375</ele>
        <time>2022-02-23T08:49:48Z</time>
      </trkpt>
      <trkpt lat="44.83573" lon="-0.555">
        <ele>7.0000610351562</ele>
        <time>2022-02-23T08:49:58Z</time>
      </trkpt>
      <trkpt lat="44.83565" lon="-0.5549">
        <ele>2.701904296875</ele>
        <time>2022-02-23T08:51:10Z</time>
      </trkpt>
      <trkpt lat="44.83555" lon="-0.55486">
        <ele>4.6583862304688</ele>
        <time>2022-02-23T08:51:18Z</time>
      </trkpt>
      <trkpt lat="44.83548" lon="-0.55476">
        <ele>6.14599609375</ele>
        <time>2022-02-23T08:51:26Z</time>
      </trkpt>
      <trkpt lat="44.83543" lon="-0.55463">
        <ele>3.0062255859375</ele>
        <time>2022-02-23T08:51:33Z</time>
      </trkpt>
      <trkpt lat="44.83537" lon="-0.55452">
        <ele>4.0111694335938</ele>
        <time>2022-02-23T08:51:39Z</time>
      </trkpt>
      <trkpt lat="44.8353" lon="-0.55442">
        <ele>7.2653198242188</ele>
        <time>2022-02-23T08:51:47Z</time>
      </trkpt>
      <trkpt lat="44.83523" lon="-0.5543">
        <ele>7.6871948242188</ele>
        <time>2022-02-23T08:51:55Z</time>
      </trkpt>
      <trkpt lat="44.83517" lon="-0.5542">
        <ele>6.6372680664062</ele>
        <time>2022-02-23T08:52:02Z</time>
      </trkpt>
      <trkpt lat="44.8351" lon="-0.55408">
        <ele>8.342529296875</ele>
        <time>2022-02-23T08:52:11Z</time>
      </trkpt>
      <trkpt lat="44.83503" lon="-0.55398">
        <ele>7.1016845703125</ele>
        <time>2022-02-23T08:52:19Z</time>
      </trkpt>
      <trkpt lat="44.83498" lon="-0.55386">
        <ele>7.5308227539062</ele>
        <time>2022-02-23T08:52:26Z</time>
      </trkpt>
      <trkpt lat="44.83492" lon="-0.55377">
        <ele>5.8861694335938</ele>
        <time>2022-02-23T08:52:34Z</time>
      </trkpt>
      <trkpt lat="44.83487" lon="-0.55365">
        <ele>6.1356811523438</ele>
        <time>2022-02-23T08:52:41Z</time>
      </trkpt>
      <trkpt lat="44.8348" lon="-0.55354">
        <ele>6.8435668945312</ele>
        <time>2022-02-23T08:52:48Z</time>
      </trkpt>
      <trkpt lat="44.83472" lon="-0.55344">
        <ele>8.073486328125</ele>
        <time>2022-02-23T08:52:56Z</time>
      </trkpt>
      <trkpt lat="44.83466" lon="-0.55333">
        <ele>6.4563598632812</ele>
        <time>2022-02-23T08:53:05Z</time>
      </trkpt>
      <trkpt lat="44.8346" lon="-0.55321">
        <ele>7.0653686523438</ele>
        <time>2022-02-23T08:53:13Z</time>
      </trkpt>
      <trkpt lat="44.83454" lon="-0.55309">
        <ele>9.2781982421875</ele>
        <time>2022-02-23T08:53:22Z</time>
      </trkpt>
      <trkpt lat="44.8345" lon="-0.55297">
        <ele>8.469970703125</ele>
        <time>2022-02-23T08:53:30Z</time>
      </trkpt>
      <trkpt lat="44.83443" lon="-0.55286">
        <ele>6.2421875</ele>
        <time>2022-02-23T08:53:39Z</time>
      </trkpt>
      <trkpt lat="44.83434" lon="-0.55279">
        <ele>4.732421875</ele>
        <time>2022-02-23T08:53:48Z</time>
      </trkpt>
      <trkpt lat="44.83431" lon="-0.55266">
        <ele>5.5582275390625</ele>
        <time>2022-02-23T08:53:54Z</time>
      </trkpt>
      <trkpt lat="44.83432" lon="-0.55252">
        <ele>6.9186401367188</ele>
        <time>2022-02-23T08:54:00Z</time>
      </trkpt>
      <trkpt lat="44.83439" lon="-0.55241">
        <ele>11.842590332031</ele>
        <time>2022-02-23T08:54:07Z</time>
      </trkpt>
      <trkpt lat="44.83445" lon="-0.5523">
        <ele>13.787902832031</ele>
        <time>2022-02-23T08:54:18Z</time>
      </trkpt>
      <trkpt lat="44.83442" lon="-0.55216">
        <ele>10.599914550781</ele>
        <time>2022-02-23T08:54:28Z</time>
      </trkpt>
      <trkpt lat="44.83433" lon="-0.55208">
        <ele>11.458740234375</ele>
        <time>2022-02-23T08:54:37Z</time>
      </trkpt>
      <trkpt lat="44.83433" lon="-0.55194">
        <ele>10.763061523438</ele>
        <time>2022-02-23T08:54:42Z</time>
      </trkpt>
      <trkpt lat="44.83428" lon="-0.55179">
        <ele>10.489013671875</ele>
        <time>2022-02-23T08:54:48Z</time>
      </trkpt>
      <trkpt lat="44.83425" lon="-0.55166">
        <ele>6.2650146484375</ele>
        <time>2022-02-23T08:54:52Z</time>
      </trkpt>
      <trkpt lat="44.83422" lon="-0.55152">
        <ele>10.55810546875</ele>
        <time>2022-02-23T08:54:58Z</time>
      </trkpt>
      <trkpt lat="44.83413" lon="-0.55142">
        <ele>11.246887207031</ele>
        <time>2022-02-23T08:55:05Z</time>
      </trkpt>
      <trkpt lat="44.83405" lon="-0.55131">
        <ele>8.4624633789062</ele>
        <time>2022-02-23T08:55:11Z</time>
      </trkpt>
      <trkpt lat="44.83403" lon="-0.55116">
        <ele>11.002319335938</ele>
        <time>2022-02-23T08:55:20Z</time>
      </trkpt>
      <trkpt lat="44.83396" lon="-0.55107">
        <ele>9.335693359375</ele>
        <time>2022-02-23T08:55:27Z</time>
      </trkpt>
      <trkpt lat="44.8339" lon="-0.55098">
        <ele>7.2273559570312</ele>
        <time>2022-02-23T08:55:36Z</time>
      </trkpt>
      <trkpt lat="44.83383" lon="-0.55089">
        <ele>4.0921630859375</ele>
        <time>2022-02-23T08:55:43Z</time>
      </trkpt>
      <trkpt lat="44.83376" lon="-0.55079">
        <ele>6.665283203125</ele>
        <time>2022-02-23T08:55:51Z</time>
      </trkpt>
      <trkpt lat="44.83371" lon="-0.55067">
        <ele>6.2363891601562</ele>
        <time>2022-02-23T08:56:01Z</time>
      </trkpt>
      <trkpt lat="44.8336" lon="-0.55068">
        <ele>6.0692138671875</ele>
        <time>2022-02-23T08:56:04Z</time>
      </trkpt>
      <trkpt lat="44.83353" lon="-0.55059">
        <ele>15.711547851562</ele>
        <time>2022-02-23T08:56:18Z</time>
      </trkpt>
      <trkpt lat="44.83345" lon="-0.55049">
        <ele>14.773498535156</ele>
        <time>2022-02-23T08:56:26Z</time>
      </trkpt>
      <trkpt lat="44.83341" lon="-0.55036">
        <ele>12.107971191406</ele>
        <time>2022-02-23T08:56:38Z</time>
      </trkpt>
      <trkpt lat="44.83338" lon="-0.55023">
        <ele>12.165161132812</ele>
        <time>2022-02-23T08:56:45Z</time>
      </trkpt>
      <trkpt lat="44.83336" lon="-0.55007">
        <ele>9.678466796875</ele>
        <time>2022-02-23T08:56:51Z</time>
      </trkpt>
      <trkpt lat="44.83331" lon="-0.54995">
        <ele>10.314819335938</ele>
        <time>2022-02-23T08:56:58Z</time>
      </trkpt>
      <trkpt lat="44.83328" lon="-0.5498">
        <ele>8.7669677734375</ele>
        <time>2022-02-23T08:57:06Z</time>
      </trkpt>
      <trkpt lat="44.83326" lon="-0.54967">
        <ele>5.70849609375</ele>
        <time>2022-02-23T08:57:14Z</time>
      </trkpt>
      <trkpt lat="44.83322" lon="-0.54955">
        <ele>6.4791870117188</ele>
        <time>2022-02-23T08:57:20Z</time>
      </trkpt>
      <trkpt lat="44.83316" lon="-0.54945">
        <ele>6.7893676757812</ele>
        <time>2022-02-23T08:57:27Z</time>
      </trkpt>
      <trkpt lat="44.83311" lon="-0.54933">
        <ele>6.8971557617188</ele>
        <time>2022-02-23T08:57:37Z</time>
      </trkpt>
      <trkpt lat="44.83303" lon="-0.54924">
        <ele>4.8231201171875</ele>
        <time>2022-02-23T08:57:45Z</time>
      </trkpt>
      <trkpt lat="44.83297" lon="-0.54911">
        <ele>5.62744140625</ele>
        <time>2022-02-23T08:57:52Z</time>
      </trkpt>
      <trkpt lat="44.8329" lon="-0.549">
        <ele>7.2545166015625</ele>
        <time>2022-02-23T08:58:01Z</time>
      </trkpt>
      <trkpt lat="44.83283" lon="-0.54888">
        <ele>7.80126953125</ele>
        <time>2022-02-23T08:58:09Z</time>
      </trkpt>
      <trkpt lat="44.83279" lon="-0.54875">
        <ele>8.3002319335938</ele>
        <time>2022-02-23T08:58:17Z</time>
      </trkpt>
      <trkpt lat="44.83272" lon="-0.54866">
        <ele>8.4116821289062</ele>
        <time>2022-02-23T08:58:25Z</time>
      </trkpt>
      <trkpt lat="44.83267" lon="-0.54853">
        <ele>5.7076416015625</ele>
        <time>2022-02-23T08:58:31Z</time>
      </trkpt>
      <trkpt lat="44.83261" lon="-0.54841">
        <ele>6.0283813476562</ele>
        <time>2022-02-23T08:58:38Z</time>
      </trkpt>
      <trkpt lat="44.83256" lon="-0.54828">
        <ele>7.4135131835938</ele>
        <time>2022-02-23T08:58:46Z</time>
      </trkpt>
      <trkpt lat="44.8325" lon="-0.54815">
        <ele>7.8145141601562</ele>
        <time>2022-02-23T08:58:54Z</time>
      </trkpt>
      <trkpt lat="44.83246" lon="-0.54804">
        <ele>7.3676147460938</ele>
        <time>2022-02-23T08:59:00Z</time>
      </trkpt>
      <trkpt lat="44.8324" lon="-0.54792">
        <ele>6.4498901367188</ele>
        <time>2022-02-23T08:59:08Z</time>
      </trkpt>
      <trkpt lat="44.83234" lon="-0.54783">
        <ele>7.2628173828125</ele>
        <time>2022-02-23T08:59:15Z</time>
      </trkpt>
      <trkpt lat="44.83227" lon="-0.54774">
        <ele>6.6506958007812</ele>
        <time>2022-02-23T08:59:23Z</time>
      </trkpt>
      <trkpt lat="44.8322" lon="-0.54762">
        <ele>7.5441284179688</ele>
        <time>2022-02-23T08:59:30Z</time>
      </trkpt>
      <trkpt lat="44.83213" lon="-0.5475">
        <ele>5.8060302734375</ele>
        <time>2022-02-23T08:59:39Z</time>
      </trkpt>
      <trkpt lat="44.83208" lon="-0.54738">
        <ele>4.266845703125</ele>
        <time>2022-02-23T08:59:47Z</time>
      </trkpt>
      <trkpt lat="44.83203" lon="-0.54725">
        <ele>3.419189453125</ele>
        <time>2022-02-23T08:59:55Z</time>
      </trkpt>
      <trkpt lat="44.83198" lon="-0.54714">
        <ele>4.988525390625</ele>
        <time>2022-02-23T09:00:01Z</time>
      </trkpt>
      <trkpt lat="44.83191" lon="-0.54698">
        <ele>5.2594604492188</ele>
        <time>2022-02-23T09:00:10Z</time>
      </trkpt>
      <trkpt lat="44.83185" lon="-0.54688">
        <ele>5.4019165039062</ele>
        <time>2022-02-23T09:00:17Z</time>
      </trkpt>
      <trkpt lat="44.83179" lon="-0.54677">
        <ele>4.6798706054688</ele>
        <time>2022-02-23T09:00:24Z</time>
      </trkpt>
      <trkpt lat="44.83172" lon="-0.54667">
        <ele>5.6353759765625</ele>
        <time>2022-02-23T09:00:31Z</time>
      </trkpt>
      <trkpt lat="44.83166" lon="-0.54655">
        <ele>3.9242553710938</ele>
        <time>2022-02-23T09:00:39Z</time>
      </trkpt>
      <trkpt lat="44.83162" lon="-0.54642">
        <ele>4.727783203125</ele>
        <time>2022-02-23T09:00:47Z</time>
      </trkpt>
      <trkpt lat="44.83155" lon="-0.5463">
        <ele>5.2393188476562</ele>
        <time>2022-02-23T09:00:55Z</time>
      </trkpt>
      <trkpt lat="44.8315" lon="-0.54618">
        <ele>7.544189453125</ele>
        <time>2022-02-23T09:01:03Z</time>
      </trkpt>
      <trkpt lat="44.83143" lon="-0.54608">
        <ele>6.7483520507812</ele>
        <time>2022-02-23T09:01:10Z</time>
      </trkpt>
      <trkpt lat="44.83137" lon="-0.54596">
        <ele>5.1552124023438</ele>
        <time>2022-02-23T09:01:18Z</time>
      </trkpt>
      <trkpt lat="44.83131" lon="-0.54583">
        <ele>5.7947998046875</ele>
        <time>2022-02-23T09:01:26Z</time>
      </trkpt>
      <trkpt lat="44.83127" lon="-0.54571">
        <ele>3.006103515625</ele>
        <time>2022-02-23T09:01:32Z</time>
      </trkpt>
      <trkpt lat="44.83121" lon="-0.5456">
        <ele>4.1494750976562</ele>
        <time>2022-02-23T09:01:39Z</time>
      </trkpt>
      <trkpt lat="44.83115" lon="-0.54547">
        <ele>5.2850952148438</ele>
        <time>2022-02-23T09:01:46Z</time>
      </trkpt>
      <trkpt lat="44.8311" lon="-0.54536">
        <ele>4.8864135742188</ele>
        <time>2022-02-23T09:01:54Z</time>
      </trkpt>
      <trkpt lat="44.83105" lon="-0.54522">
        <ele>4.3408813476562</ele>
        <time>2022-02-23T09:02:01Z</time>
      </trkpt>
      <trkpt lat="44.83099" lon="-0.5451">
        <ele>3.9993286132812</ele>
        <time>2022-02-23T09:02:08Z</time>
      </trkpt>
      <trkpt lat="44.83094" lon="-0.54498">
        <ele>4.936767578125</ele>
        <time>2022-02-23T09:02:15Z</time>
      </trkpt>
      <trkpt lat="44.83087" lon="-0.54489">
        <ele>4.9105224609375</ele>
        <time>2022-02-23T09:02:21Z</time>
      </trkpt>
      <trkpt lat="44.83078" lon="-0.54478">
        <ele>5.584716796875</ele>
        <time>2022-02-23T09:02:29Z</time>
      </trkpt>
      <trkpt lat="44.83071" lon="-0.54469">
        <ele>5.353759765625</ele>
        <time>2022-02-23T09:02:35Z</time>
      </trkpt>
      <trkpt lat="44.83066" lon="-0.54458">
        <ele>4.7006225585938</ele>
        <time>2022-02-23T09:02:42Z</time>
      </trkpt>
      <trkpt lat="44.83059" lon="-0.54448">
        <ele>4.3406372070312</ele>
        <time>2022-02-23T09:02:50Z</time>
      </trkpt>
      <trkpt lat="44.83053" lon="-0.54436">
        <ele>4.4940795898438</ele>
        <time>2022-02-23T09:02:57Z</time>
      </trkpt>
      <trkpt lat="44.83048" lon="-0.54425">
        <ele>7.196533203125</ele>
        <time>2022-02-23T09:03:03Z</time>
      </trkpt>
      <trkpt lat="44.83042" lon="-0.54414">
        <ele>6.2240600585938</ele>
        <time>2022-02-23T09:03:11Z</time>
      </trkpt>
      <trkpt lat="44.83035" lon="-0.54402">
        <ele>4.8916015625</ele>
        <time>2022-02-23T09:03:18Z</time>
      </trkpt>
      <trkpt lat="44.8303" lon="-0.54391">
        <ele>7.0357666015625</ele>
        <time>2022-02-23T09:03:25Z</time>
      </trkpt>
      <trkpt lat="44.83024" lon="-0.5438">
        <ele>5.6069946289062</ele>
        <time>2022-02-23T09:03:32Z</time>
      </trkpt>
      <trkpt lat="44.83018" lon="-0.5437">
        <ele>5.3347778320312</ele>
        <time>2022-02-23T09:03:41Z</time>
      </trkpt>
      <trkpt lat="44.83013" lon="-0.54358">
        <ele>6.8616943359375</ele>
        <time>2022-02-23T09:03:48Z</time>
      </trkpt>
      <trkpt lat="44.83007" lon="-0.54347">
        <ele>6.070068359375</ele>
        <time>2022-02-23T09:03:56Z</time>
      </trkpt>
      <trkpt lat="44.83001" lon="-0.54336">
        <ele>8.0095825195312</ele>
        <time>2022-02-23T09:04:03Z</time>
      </trkpt>
      <trkpt lat="44.82994" lon="-0.54325">
        <ele>6.908447265625</ele>
        <time>2022-02-23T09:04:11Z</time>
      </trkpt>
      <trkpt lat="44.82988" lon="-0.54314">
        <ele>7.8016357421875</ele>
        <time>2022-02-23T09:04:18Z</time>
      </trkpt>
      <trkpt lat="44.8298" lon="-0.543">
        <ele>8.7025756835938</ele>
        <time>2022-02-23T09:04:27Z</time>
      </trkpt>
      <trkpt lat="44.82973" lon="-0.54289">
        <ele>6.4700317382812</ele>
        <time>2022-02-23T09:04:36Z</time>
      </trkpt>
      <trkpt lat="44.82968" lon="-0.54277">
        <ele>4.2149658203125</ele>
        <time>2022-02-23T09:04:43Z</time>
      </trkpt>
      <trkpt lat="44.82961" lon="-0.54266">
        <ele>4.5521240234375</ele>
        <time>2022-02-23T09:04:50Z</time>
      </trkpt>
      <trkpt lat="44.82954" lon="-0.54253">
        <ele>6.7434692382812</ele>
        <time>2022-02-23T09:04:58Z</time>
      </trkpt>
      <trkpt lat="44.82948" lon="-0.54239">
        <ele>5.3521728515625</ele>
        <time>2022-02-23T09:05:07Z</time>
      </trkpt>
      <trkpt lat="44.82943" lon="-0.54228">
        <ele>6.3146362304688</ele>
        <time>2022-02-23T09:05:13Z</time>
      </trkpt>
      <trkpt lat="44.82937" lon="-0.54217">
        <ele>6.3439331054688</ele>
        <time>2022-02-23T09:05:20Z</time>
      </trkpt>
      <trkpt lat="44.8293" lon="-0.54205">
        <ele>5.4244384765625</ele>
        <time>2022-02-23T09:05:28Z</time>
      </trkpt>
      <trkpt lat="44.82924" lon="-0.54193">
        <ele>6.849365234375</ele>
        <time>2022-02-23T09:05:36Z</time>
      </trkpt>
      <trkpt lat="44.82917" lon="-0.54182">
        <ele>4.9879150390625</ele>
        <time>2022-02-23T09:05:42Z</time>
      </trkpt>
      <trkpt lat="44.82911" lon="-0.5417">
        <ele>6.0383911132812</ele>
        <time>2022-02-23T09:05:50Z</time>
      </trkpt>
      <trkpt lat="44.82905" lon="-0.54159">
        <ele>5.9674682617188</ele>
        <time>2022-02-23T09:05:58Z</time>
      </trkpt>
      <trkpt lat="44.82899" lon="-0.54148">
        <ele>5.1915893554688</ele>
        <time>2022-02-23T09:06:06Z</time>
      </trkpt>
      <trkpt lat="44.82892" lon="-0.54136">
        <ele>5.5187377929688</ele>
        <time>2022-02-23T09:06:14Z</time>
      </trkpt>
      <trkpt lat="44.82886" lon="-0.54124">
        <ele>4.232421875</ele>
        <time>2022-02-23T09:06:21Z</time>
      </trkpt>
      <trkpt lat="44.8288" lon="-0.54113">
        <ele>4.0317993164062</ele>
        <time>2022-02-23T09:06:28Z</time>
      </trkpt>
      <trkpt lat="44.82873" lon="-0.54104">
        <ele>3.3333740234375</ele>
        <time>2022-02-23T09:06:35Z</time>
      </trkpt>
      <trkpt lat="44.82867" lon="-0.54093">
        <ele>3.4244995117188</ele>
        <time>2022-02-23T09:06:43Z</time>
      </trkpt>
      <trkpt lat="44.82859" lon="-0.54081">
        <ele>4.5015869140625</ele>
        <time>2022-02-23T09:06:51Z</time>
      </trkpt>
      <trkpt lat="44.82852" lon="-0.5407">
        <ele>3.5552368164062</ele>
        <time>2022-02-23T09:06:58Z</time>
      </trkpt>
      <trkpt lat="44.82845" lon="-0.54057">
        <ele>3.9127197265625</ele>
        <time>2022-02-23T09:07:06Z</time>
      </trkpt>
      <trkpt lat="44.82839" lon="-0.54045">
        <ele>6.0619506835938</ele>
        <time>2022-02-23T09:07:14Z</time>
      </trkpt>
      <trkpt lat="44.8283" lon="-0.54039">
        <ele>5.9970703125</ele>
        <time>2022-02-23T09:07:35Z</time>
      </trkpt>
      <trkpt lat="44.82824" lon="-0.54027">
        <ele>5.5770263671875</ele>
        <time>2022-02-23T09:07:41Z</time>
      </trkpt>
      <trkpt lat="44.82819" lon="-0.54016">
        <ele>3.515380859375</ele>
        <time>2022-02-23T09:07:46Z</time>
      </trkpt>
      <trkpt lat="44.82813" lon="-0.54002">
        <ele>0.97918701171875</ele>
        <time>2022-02-23T09:07:54Z</time>
      </trkpt>
      <trkpt lat="44.82807" lon="-0.5399">
        <ele>1.1653442382812</ele>
        <time>2022-02-23T09:08:04Z</time>
      </trkpt>
      <trkpt lat="44.828" lon="-0.53977">
        <ele>-1.9109497070312</ele>
        <time>2022-02-23T09:08:12Z</time>
      </trkpt>
      <trkpt lat="44.82793" lon="-0.53966">
        <ele>-0.35516357421875</ele>
        <time>2022-02-23T09:08:19Z</time>
      </trkpt>
      <trkpt lat="44.82788" lon="-0.53955">
        <ele>2.8082885742188</ele>
        <time>2022-02-23T09:08:25Z</time>
      </trkpt>
      <trkpt lat="44.82782" lon="-0.53944">
        <ele>3.6827392578125</ele>
        <time>2022-02-23T09:08:31Z</time>
      </trkpt>
      <trkpt lat="44.82775" lon="-0.53934">
        <ele>2.221923828125</ele>
        <time>2022-02-23T09:08:37Z</time>
      </trkpt>
      <trkpt lat="44.82767" lon="-0.53925">
        <ele>2.829345703125</ele>
        <time>2022-02-23T09:08:44Z</time>
      </trkpt>
      <trkpt lat="44.8276" lon="-0.53916">
        <ele>5.6590576171875</ele>
        <time>2022-02-23T09:08:51Z</time>
      </trkpt>
      <trkpt lat="44.82753" lon="-0.53906">
        <ele>7.0733642578125</ele>
        <time>2022-02-23T09:08:57Z</time>
      </trkpt>
      <trkpt lat="44.82748" lon="-0.53895">
        <ele>5.6096801757812</ele>
        <time>2022-02-23T09:09:04Z</time>
      </trkpt>
      <trkpt lat="44.8274" lon="-0.53885">
        <ele>5.8289184570312</ele>
        <time>2022-02-23T09:09:12Z</time>
      </trkpt>
      <trkpt lat="44.82734" lon="-0.53875">
        <ele>5.298583984375</ele>
        <time>2022-02-23T09:09:18Z</time>
      </trkpt>
      <trkpt lat="44.82727" lon="-0.53865">
        <ele>5.810791015625</ele>
        <time>2022-02-23T09:09:26Z</time>
      </trkpt>
      <trkpt lat="44.8272" lon="-0.53854">
        <ele>4.8364868164062</ele>
        <time>2022-02-23T09:09:34Z</time>
      </trkpt>
      <trkpt lat="44.82713" lon="-0.53843">
        <ele>4.3141479492188</ele>
        <time>2022-02-23T09:09:42Z</time>
      </trkpt>
      <trkpt lat="44.82705" lon="-0.53834">
        <ele>5.4649658203125</ele>
        <time>2022-02-23T09:09:49Z</time>
      </trkpt>
      <trkpt lat="44.82699" lon="-0.53822">
        <ele>3.001953125</ele>
        <time>2022-02-23T09:09:55Z</time>
      </trkpt>
      <trkpt lat="44.82693" lon="-0.53809">
        <ele>5.4234619140625</ele>
        <time>2022-02-23T09:10:03Z</time>
      </trkpt>
      <trkpt lat="44.82684" lon="-0.53799">
        <ele>6.9541015625</ele>
        <time>2022-02-23T09:10:11Z</time>
      </trkpt>
      <trkpt lat="44.82677" lon="-0.53789">
        <ele>6.3724365234375</ele>
        <time>2022-02-23T09:10:18Z</time>
      </trkpt>
      <trkpt lat="44.8267" lon="-0.53777">
        <ele>10.690856933594</ele>
        <time>2022-02-23T09:10:26Z</time>
      </trkpt>
      <trkpt lat="44.82662" lon="-0.53765">
        <ele>10.795227050781</ele>
        <time>2022-02-23T09:10:33Z</time>
      </trkpt>
      <trkpt lat="44.82654" lon="-0.53756">
        <ele>8.7210083007812</ele>
        <time>2022-02-23T09:10:41Z</time>
      </trkpt>
      <trkpt lat="44.82647" lon="-0.53748">
        <ele>8.947998046875</ele>
        <time>2022-02-23T09:10:48Z</time>
      </trkpt>
      <trkpt lat="44.82639" lon="-0.53738">
        <ele>8.0397338867188</ele>
        <time>2022-02-23T09:10:56Z</time>
      </trkpt>
      <trkpt lat="44.82632" lon="-0.53729">
        <ele>9.6688232421875</ele>
        <time>2022-02-23T09:11:04Z</time>
      </trkpt>
      <trkpt lat="44.82624" lon="-0.53718">
        <ele>11.17529296875</ele>
        <time>2022-02-23T09:11:10Z</time>
      </trkpt>
      <trkpt lat="44.82617" lon="-0.53709">
        <ele>8.2406616210938</ele>
        <time>2022-02-23T09:11:18Z</time>
      </trkpt>
      <trkpt lat="44.82607" lon="-0.53697">
        <ele>9.7706298828125</ele>
        <time>2022-02-23T09:11:28Z</time>
      </trkpt>
      <trkpt lat="44.82599" lon="-0.53687">
        <ele>9.5616455078125</ele>
        <time>2022-02-23T09:11:36Z</time>
      </trkpt>
      <trkpt lat="44.82592" lon="-0.53677">
        <ele>8.0760498046875</ele>
        <time>2022-02-23T09:11:42Z</time>
      </trkpt>
      <trkpt lat="44.82587" lon="-0.53666">
        <ele>7.7759399414062</ele>
        <time>2022-02-23T09:11:48Z</time>
      </trkpt>
      <trkpt lat="44.8258" lon="-0.53655">
        <ele>5.4595336914062</ele>
        <time>2022-02-23T09:11:56Z</time>
      </trkpt>
      <trkpt lat="44.82572" lon="-0.53647">
        <ele>5.336669921875</ele>
        <time>2022-02-23T09:12:02Z</time>
      </trkpt>
      <trkpt lat="44.82565" lon="-0.53638">
        <ele>4.9215087890625</ele>
        <time>2022-02-23T09:12:09Z</time>
      </trkpt>
      <trkpt lat="44.82557" lon="-0.53627">
        <ele>4.5490112304688</ele>
        <time>2022-02-23T09:12:17Z</time>
      </trkpt>
      <trkpt lat="44.82549" lon="-0.5362">
        <ele>4.4773559570312</ele>
        <time>2022-02-23T09:12:25Z</time>
      </trkpt>
      <trkpt lat="44.8255" lon="-0.53606">
        <ele>3.5559692382812</ele>
        <time>2022-02-23T09:12:35Z</time>
      </trkpt>
      <trkpt lat="44.82552" lon="-0.53591">
        <ele>5.4508666992188</ele>
        <time>2022-02-23T09:12:41Z</time>
      </trkpt>
      <trkpt lat="44.82558" lon="-0.53579">
        <ele>7.22607421875</ele>
        <time>2022-02-23T09:12:47Z</time>
      </trkpt>
      <trkpt lat="44.82565" lon="-0.53567">
        <ele>6.0654296875</ele>
        <time>2022-02-23T09:12:54Z</time>
      </trkpt>
      <trkpt lat="44.8257" lon="-0.53553">
        <ele>5.9100952148438</ele>
        <time>2022-02-23T09:13:00Z</time>
      </trkpt>
      <trkpt lat="44.82572" lon="-0.53541">
        <ele>4.1639404296875</ele>
        <time>2022-02-23T09:13:06Z</time>
      </trkpt>
      <trkpt lat="44.8257" lon="-0.53526">
        <ele>2.4947509765625</ele>
        <time>2022-02-23T09:13:13Z</time>
      </trkpt>
      <trkpt lat="44.82568" lon="-0.5351">
        <ele>2.5440673828125</ele>
        <time>2022-02-23T09:13:21Z</time>
      </trkpt>
      <trkpt lat="44.82567" lon="-0.53498">
        <ele>3.35302734375</ele>
        <time>2022-02-23T09:13:27Z</time>
      </trkpt>
      <trkpt lat="44.82568" lon="-0.53484">
        <ele>1.582275390625</ele>
        <time>2022-02-23T09:13:34Z</time>
      </trkpt>
      <trkpt lat="44.8257" lon="-0.53467">
        <ele>1.662109375</ele>
        <time>2022-02-23T09:13:42Z</time>
      </trkpt>
      <trkpt lat="44.82573" lon="-0.53453">
        <ele>0.94219970703125</ele>
        <time>2022-02-23T09:13:49Z</time>
      </trkpt>
      <trkpt lat="44.82575" lon="-0.53439">
        <ele>1.3016967773438</ele>
        <time>2022-02-23T09:13:57Z</time>
      </trkpt>
      <trkpt lat="44.8257" lon="-0.53425">
        <ele>0.09234619140625</ele>
        <time>2022-02-23T09:14:06Z</time>
      </trkpt>
      <trkpt lat="44.82562" lon="-0.53417">
        <ele>-0.8983154296875</ele>
        <time>2022-02-23T09:14:14Z</time>
      </trkpt>
      <trkpt lat="44.82553" lon="-0.5341">
        <ele>0.1278076171875</ele>
        <time>2022-02-23T09:14:22Z</time>
      </trkpt>
      <trkpt lat="44.82544" lon="-0.534">
        <ele>-0.253662109375</ele>
        <time>2022-02-23T09:14:30Z</time>
      </trkpt>
      <trkpt lat="44.82536" lon="-0.53391">
        <ele>-1.2760009765625</ele>
        <time>2022-02-23T09:14:38Z</time>
      </trkpt>
      <trkpt lat="44.82528" lon="-0.53379">
        <ele>1.3252563476562</ele>
        <time>2022-02-23T09:14:46Z</time>
      </trkpt>
      <trkpt lat="44.8252" lon="-0.53369">
        <ele>0.6575927734375</ele>
        <time>2022-02-23T09:14:54Z</time>
      </trkpt>
      <trkpt lat="44.82514" lon="-0.53358">
        <ele>2.9445190429688</ele>
        <time>2022-02-23T09:15:01Z</time>
      </trkpt>
      <trkpt lat="44.82504" lon="-0.5335">
        <ele>4.1630249023438</ele>
        <time>2022-02-23T09:15:09Z</time>
      </trkpt>
      <trkpt lat="44.82494" lon="-0.53345">
        <ele>9.3275756835938</ele>
        <time>2022-02-23T09:15:16Z</time>
      </trkpt>
      <trkpt lat="44.82489" lon="-0.53332">
        <ele>10.169372558594</ele>
        <time>2022-02-23T09:15:25Z</time>
      </trkpt>
      <trkpt lat="44.82482" lon="-0.53323">
        <ele>9.65869140625</ele>
        <time>2022-02-23T09:15:31Z</time>
      </trkpt>
      <trkpt lat="44.82474" lon="-0.53316">
        <ele>7.7955322265625</ele>
        <time>2022-02-23T09:15:37Z</time>
      </trkpt>
      <trkpt lat="44.82466" lon="-0.53307">
        <ele>8.2722778320312</ele>
        <time>2022-02-23T09:15:44Z</time>
      </trkpt>
      <trkpt lat="44.82459" lon="-0.53298">
        <ele>8.109375</ele>
        <time>2022-02-23T09:15:50Z</time>
      </trkpt>
      <trkpt lat="44.82449" lon="-0.53292">
        <ele>6.7348022460938</ele>
        <time>2022-02-23T09:15:57Z</time>
      </trkpt>
      <trkpt lat="44.8244" lon="-0.53283">
        <ele>4.8472900390625</ele>
        <time>2022-02-23T09:16:05Z</time>
      </trkpt>
      <trkpt lat="44.8243" lon="-0.53272">
        <ele>6.2846069335938</ele>
        <time>2022-02-23T09:16:15Z</time>
      </trkpt>
      <trkpt lat="44.8242" lon="-0.53269">
        <ele>4.5350952148438</ele>
        <time>2022-02-23T09:16:21Z</time>
      </trkpt>
      <trkpt lat="44.82412" lon="-0.53261">
        <ele>5.9232177734375</ele>
        <time>2022-02-23T09:16:27Z</time>
      </trkpt>
      <trkpt lat="44.82402" lon="-0.53257">
        <ele>4.3319702148438</ele>
        <time>2022-02-23T09:16:35Z</time>
      </trkpt>
      <trkpt lat="44.82392" lon="-0.53255">
        <ele>7.45751953125</ele>
        <time>2022-02-23T09:16:43Z</time>
      </trkpt>
      <trkpt lat="44.82382" lon="-0.5326">
        <ele>3.8192138671875</ele>
        <time>2022-02-23T09:16:51Z</time>
      </trkpt>
      <trkpt lat="44.82372" lon="-0.53256">
        <ele>2.6953125</ele>
        <time>2022-02-23T09:17:00Z</time>
      </trkpt>
      <trkpt lat="44.82363" lon="-0.53248">
        <ele>0.52838134765625</ele>
        <time>2022-02-23T09:17:09Z</time>
      </trkpt>
      <trkpt lat="44.82353" lon="-0.53246">
        <ele>0.60321044921875</ele>
        <time>2022-02-23T09:17:17Z</time>
      </trkpt>
      <trkpt lat="44.82343" lon="-0.53252">
        <ele>-0.460205078125</ele>
        <time>2022-02-23T09:17:25Z</time>
      </trkpt>
      <trkpt lat="44.82332" lon="-0.53257">
        <ele>-2.123779296875</ele>
        <time>2022-02-23T09:17:33Z</time>
      </trkpt>
      <trkpt lat="44.82322" lon="-0.5326">
        <ele>-1.3939819335938</ele>
        <time>2022-02-23T09:17:40Z</time>
      </trkpt>
      <trkpt lat="44.82314" lon="-0.53266">
        <ele>-1.395751953125</ele>
        <time>2022-02-23T09:17:47Z</time>
      </trkpt>
      <trkpt lat="44.82305" lon="-0.53275">
        <ele>-0.95123291015625</ele>
        <time>2022-02-23T09:17:55Z</time>
      </trkpt>
      <trkpt lat="44.82295" lon="-0.53284">
        <ele>-1.77490234375</ele>
        <time>2022-02-23T09:18:03Z</time>
      </trkpt>
      <trkpt lat="44.82287" lon="-0.5329">
        <ele>-2.2265014648438</ele>
        <time>2022-02-23T09:18:11Z</time>
      </trkpt>
      <trkpt lat="44.82279" lon="-0.53299">
        <ele>-2.9815063476562</ele>
        <time>2022-02-23T09:18:17Z</time>
      </trkpt>
      <trkpt lat="44.8227" lon="-0.53307">
        <ele>-3.5672607421875</ele>
        <time>2022-02-23T09:18:25Z</time>
      </trkpt>
      <trkpt lat="44.82259" lon="-0.53309">
        <ele>-4.7382202148438</ele>
        <time>2022-02-23T09:18:32Z</time>
      </trkpt>
      <trkpt lat="44.82248" lon="-0.5331">
        <ele>-4.650146484375</ele>
        <time>2022-02-23T09:18:40Z</time>
      </trkpt>
      <trkpt lat="44.82238" lon="-0.53305">
        <ele>-2.352294921875</ele>
        <time>2022-02-23T09:18:49Z</time>
      </trkpt>
      <trkpt lat="44.82229" lon="-0.533">
        <ele>-1.5475463867188</ele>
        <time>2022-02-23T09:18:55Z</time>
      </trkpt>
      <trkpt lat="44.8222" lon="-0.53295">
        <ele>-0.84637451171875</ele>
        <time>2022-02-23T09:19:02Z</time>
      </trkpt>
      <trkpt lat="44.82212" lon="-0.53291">
        <ele>-0.9461669921875</ele>
        <time>2022-02-23T09:19:09Z</time>
      </trkpt>
      <trkpt lat="44.82203" lon="-0.53284">
        <ele>-0.1849365234375</ele>
        <time>2022-02-23T09:19:17Z</time>
      </trkpt>
      <trkpt lat="44.82192" lon="-0.53281">
        <ele>-0.63275146484375</ele>
        <time>2022-02-23T09:19:24Z</time>
      </trkpt>
      <trkpt lat="44.82183" lon="-0.53275">
        <ele>-1.1337890625</ele>
        <time>2022-02-23T09:19:31Z</time>
      </trkpt>
      <trkpt lat="44.82174" lon="-0.53268">
        <ele>0.29656982421875</ele>
        <time>2022-02-23T09:19:38Z</time>
      </trkpt>
      <trkpt lat="44.82165" lon="-0.53261">
        <ele>-1.7124633789062</ele>
        <time>2022-02-23T09:19:46Z</time>
      </trkpt>
      <trkpt lat="44.82155" lon="-0.53253">
        <ele>-2.88623046875</ele>
        <time>2022-02-23T09:19:56Z</time>
      </trkpt>
      <trkpt lat="44.82146" lon="-0.53247">
        <ele>-2.4264526367188</ele>
        <time>2022-02-23T09:20:03Z</time>
      </trkpt>
      <trkpt lat="44.82135" lon="-0.53242">
        <ele>0.2490234375</ele>
        <time>2022-02-23T09:20:10Z</time>
      </trkpt>
      <trkpt lat="44.82125" lon="-0.53236">
        <ele>0.16351318359375</ele>
        <time>2022-02-23T09:20:17Z</time>
      </trkpt>
      <trkpt lat="44.82116" lon="-0.5323">
        <ele>2.3611450195312</ele>
        <time>2022-02-23T09:20:23Z</time>
      </trkpt>
      <trkpt lat="44.82106" lon="-0.53225">
        <ele>2.2454833984375</ele>
        <time>2022-02-23T09:20:31Z</time>
      </trkpt>
      <trkpt lat="44.82096" lon="-0.53219">
        <ele>-0.01727294921875</ele>
        <time>2022-02-23T09:20:39Z</time>
      </trkpt>
      <trkpt lat="44.82088" lon="-0.5321">
        <ele>-1.8004150390625</ele>
        <time>2022-02-23T09:20:47Z</time>
      </trkpt>
      <trkpt lat="44.82079" lon="-0.53202">
        <ele>-2.7144165039062</ele>
        <time>2022-02-23T09:20:55Z</time>
      </trkpt>
      <trkpt lat="44.82071" lon="-0.53197">
        <ele>-2.9011840820312</ele>
        <time>2022-02-23T09:21:01Z</time>
      </trkpt>
      <trkpt lat="44.82063" lon="-0.53191">
        <ele>-3.3379516601562</ele>
        <time>2022-02-23T09:21:08Z</time>
      </trkpt>
      <trkpt lat="44.82053" lon="-0.53186">
        <ele>-1.0747680664062</ele>
        <time>2022-02-23T09:21:18Z</time>
      </trkpt>
      <trkpt lat="44.82045" lon="-0.53179">
        <ele>-2.119384765625</ele>
        <time>2022-02-23T09:21:24Z</time>
      </trkpt>
      <trkpt lat="44.82035" lon="-0.53174">
        <ele>-2.7088012695312</ele>
        <time>2022-02-23T09:21:30Z</time>
      </trkpt>
      <trkpt lat="44.82026" lon="-0.53167">
        <ele>-1.15771484375</ele>
        <time>2022-02-23T09:21:37Z</time>
      </trkpt>
      <trkpt lat="44.82015" lon="-0.5316">
        <ele>0.22113037109375</ele>
        <time>2022-02-23T09:21:45Z</time>
      </trkpt>
      <trkpt lat="44.82007" lon="-0.53154">
        <ele>0.288818359375</ele>
        <time>2022-02-23T09:21:52Z</time>
      </trkpt>
      <trkpt lat="44.81997" lon="-0.53148">
        <ele>-0.87677001953125</ele>
        <time>2022-02-23T09:22:00Z</time>
      </trkpt>
      <trkpt lat="44.81988" lon="-0.53142">
        <ele>0.029052734375</ele>
        <time>2022-02-23T09:22:07Z</time>
      </trkpt>
      <trkpt lat="44.81978" lon="-0.53136">
        <ele>2.331298828125</ele>
        <time>2022-02-23T09:22:14Z</time>
      </trkpt>
      <trkpt lat="44.8197" lon="-0.53129">
        <ele>2.4894409179688</ele>
        <time>2022-02-23T09:22:22Z</time>
      </trkpt>
      <trkpt lat="44.81958" lon="-0.53124">
        <ele>2.4434814453125</ele>
        <time>2022-02-23T09:22:30Z</time>
      </trkpt>
      <trkpt lat="44.81949" lon="-0.53116">
        <ele>2.830078125</ele>
        <time>2022-02-23T09:22:38Z</time>
      </trkpt>
      <trkpt lat="44.81939" lon="-0.5311">
        <ele>2.702880859375</ele>
        <time>2022-02-23T09:22:46Z</time>
      </trkpt>
      <trkpt lat="44.81929" lon="-0.53102">
        <ele>2.8684692382812</ele>
        <time>2022-02-23T09:22:54Z</time>
      </trkpt>
      <trkpt lat="44.81921" lon="-0.53096">
        <ele>3.6400146484375</ele>
        <time>2022-02-23T09:23:01Z</time>
      </trkpt>
      <trkpt lat="44.81912" lon="-0.53091">
        <ele>3.521728515625</ele>
        <time>2022-02-23T09:23:07Z</time>
      </trkpt>
      <trkpt lat="44.81902" lon="-0.53086">
        <ele>4.5171508789062</ele>
        <time>2022-02-23T09:23:14Z</time>
      </trkpt>
      <trkpt lat="44.81893" lon="-0.53079">
        <ele>4.8433227539062</ele>
        <time>2022-02-23T09:23:21Z</time>
      </trkpt>
      <trkpt lat="44.81885" lon="-0.53074">
        <ele>3.5765991210938</ele>
        <time>2022-02-23T09:23:28Z</time>
      </trkpt>
      <trkpt lat="44.81876" lon="-0.53066">
        <ele>3.2353515625</ele>
        <time>2022-02-23T09:23:36Z</time>
      </trkpt>
      <trkpt lat="44.81867" lon="-0.5306">
        <ele>1.5226440429688</ele>
        <time>2022-02-23T09:23:44Z</time>
      </trkpt>
      <trkpt lat="44.81858" lon="-0.53055">
        <ele>1.20703125</ele>
        <time>2022-02-23T09:23:52Z</time>
      </trkpt>
      <trkpt lat="44.81849" lon="-0.53048">
        <ele>0.052490234375</ele>
        <time>2022-02-23T09:24:00Z</time>
      </trkpt>
      <trkpt lat="44.8184" lon="-0.53041">
        <ele>0.2364501953125</ele>
        <time>2022-02-23T09:24:08Z</time>
      </trkpt>
      <trkpt lat="44.8183" lon="-0.53035">
        <ele>0.45416259765625</ele>
        <time>2022-02-23T09:24:16Z</time>
      </trkpt>
      <trkpt lat="44.8182" lon="-0.53029">
        <ele>0.29229736328125</ele>
        <time>2022-02-23T09:24:24Z</time>
      </trkpt>
      <trkpt lat="44.8181" lon="-0.53024">
        <ele>-0.6522216796875</ele>
        <time>2022-02-23T09:24:31Z</time>
      </trkpt>
      <trkpt lat="44.81801" lon="-0.53017">
        <ele>1.2107543945312</ele>
        <time>2022-02-23T09:24:40Z</time>
      </trkpt>
      <trkpt lat="44.81791" lon="-0.53012">
        <ele>-0.044677734375</ele>
        <time>2022-02-23T09:24:48Z</time>
      </trkpt>
      <trkpt lat="44.81782" lon="-0.53006">
        <ele>0.3394775390625</ele>
        <time>2022-02-23T09:24:57Z</time>
      </trkpt>
      <trkpt lat="44.81773" lon="-0.52998">
        <ele>0.19732666015625</ele>
        <time>2022-02-23T09:25:04Z</time>
      </trkpt>
      <trkpt lat="44.81763" lon="-0.52992">
        <ele>0.29400634765625</ele>
        <time>2022-02-23T09:25:11Z</time>
      </trkpt>
      <trkpt lat="44.81754" lon="-0.52985">
        <ele>2.0538940429688</ele>
        <time>2022-02-23T09:25:18Z</time>
      </trkpt>
      <trkpt lat="44.81744" lon="-0.5298">
        <ele>2.6033325195312</ele>
        <time>2022-02-23T09:25:25Z</time>
      </trkpt>
      <trkpt lat="44.81734" lon="-0.52975">
        <ele>2.5142822265625</ele>
        <time>2022-02-23T09:25:32Z</time>
      </trkpt>
      <trkpt lat="44.81726" lon="-0.52969">
        <ele>1.0068969726562</ele>
        <time>2022-02-23T09:25:38Z</time>
      </trkpt>
      <trkpt lat="44.81716" lon="-0.52962">
        <ele>-2.0482177734375</ele>
        <time>2022-02-23T09:25:46Z</time>
      </trkpt>
      <trkpt lat="44.81708" lon="-0.52954">
        <ele>-1.1154174804688</ele>
        <time>2022-02-23T09:25:54Z</time>
      </trkpt>
      <trkpt lat="44.81698" lon="-0.52948">
        <ele>-1.9861450195312</ele>
        <time>2022-02-23T09:26:02Z</time>
      </trkpt>
      <trkpt lat="44.81689" lon="-0.52942">
        <ele>-0.6348876953125</ele>
        <time>2022-02-23T09:26:08Z</time>
      </trkpt>
      <trkpt lat="44.81679" lon="-0.52935">
        <ele>-0.669921875</ele>
        <time>2022-02-23T09:26:16Z</time>
      </trkpt>
      <trkpt lat="44.81669" lon="-0.52928">
        <ele>-1.8104858398438</ele>
        <time>2022-02-23T09:26:24Z</time>
      </trkpt>
      <trkpt lat="44.81658" lon="-0.52922">
        <ele>-0.98358154296875</ele>
        <time>2022-02-23T09:26:31Z</time>
      </trkpt>
      <trkpt lat="44.81649" lon="-0.52916">
        <ele>-2.9481811523438</ele>
        <time>2022-02-23T09:26:38Z</time>
      </trkpt>
      <trkpt lat="44.81639" lon="-0.52908">
        <ele>-1.9464111328125</ele>
        <time>2022-02-23T09:26:46Z</time>
      </trkpt>
      <trkpt lat="44.8163" lon="-0.52904">
        <ele>-3.4946899414062</ele>
        <time>2022-02-23T09:27:21Z</time>
      </trkpt>
      <trkpt lat="44.81622" lon="-0.52898">
        <ele>-2.3002319335938</ele>
        <time>2022-02-23T09:27:28Z</time>
      </trkpt>
      <trkpt lat="44.81612" lon="-0.52893">
        <ele>1.5147705078125</ele>
        <time>2022-02-23T09:27:37Z</time>
      </trkpt>
      <trkpt lat="44.81603" lon="-0.52887">
        <ele>1.1445922851562</ele>
        <time>2022-02-23T09:27:43Z</time>
      </trkpt>
      <trkpt lat="44.81594" lon="-0.5288">
        <ele>0.39874267578125</ele>
        <time>2022-02-23T09:27:52Z</time>
      </trkpt>
      <trkpt lat="44.81586" lon="-0.52873">
        <ele>-0.0260009765625</ele>
        <time>2022-02-23T09:28:00Z</time>
      </trkpt>
      <trkpt lat="44.81577" lon="-0.52867">
        <ele>4.9102783203125</ele>
        <time>2022-02-23T09:28:07Z</time>
      </trkpt>
      <trkpt lat="44.81566" lon="-0.52859">
        <ele>3.5455932617188</ele>
        <time>2022-02-23T09:28:15Z</time>
      </trkpt>
      <trkpt lat="44.81556" lon="-0.52854">
        <ele>2.55859375</ele>
        <time>2022-02-23T09:28:23Z</time>
      </trkpt>
      <trkpt lat="44.81546" lon="-0.52846">
        <ele>2.941650390625</ele>
        <time>2022-02-23T09:28:31Z</time>
      </trkpt>
      <trkpt lat="44.81538" lon="-0.52839">
        <ele>2.58642578125</ele>
        <time>2022-02-23T09:28:38Z</time>
      </trkpt>
      <trkpt lat="44.81527" lon="-0.52834">
        <ele>4.2302856445312</ele>
        <time>2022-02-23T09:28:43Z</time>
      </trkpt>
      <trkpt lat="44.81518" lon="-0.52829">
        <ele>4.345703125</ele>
        <time>2022-02-23T09:28:51Z</time>
      </trkpt>
      <trkpt lat="44.81509" lon="-0.52823">
        <ele>2.9150390625</ele>
        <time>2022-02-23T09:28:58Z</time>
      </trkpt>
      <trkpt lat="44.815" lon="-0.52816">
        <ele>2.2778930664062</ele>
        <time>2022-02-23T09:29:06Z</time>
      </trkpt>
      <trkpt lat="44.8149" lon="-0.5281">
        <ele>0.4989013671875</ele>
        <time>2022-02-23T09:29:14Z</time>
      </trkpt>
      <trkpt lat="44.81481" lon="-0.52804">
        <ele>-0.17303466796875</ele>
        <time>2022-02-23T09:29:21Z</time>
      </trkpt>
      <trkpt lat="44.81475" lon="-0.52795">
        <ele>1.1218872070312</ele>
        <time>2022-02-23T09:29:35Z</time>
      </trkpt>
      <trkpt lat="44.81464" lon="-0.5279">
        <ele>1.1158447265625</ele>
        <time>2022-02-23T09:29:45Z</time>
      </trkpt>
      <trkpt lat="44.81455" lon="-0.52784">
        <ele>3.1268310546875</ele>
        <time>2022-02-23T09:29:52Z</time>
      </trkpt>
      <trkpt lat="44.81446" lon="-0.52778">
        <ele>2.947998046875</ele>
        <time>2022-02-23T09:30:00Z</time>
      </trkpt>
      <trkpt lat="44.81437" lon="-0.52773">
        <ele>5.5216064453125</ele>
        <time>2022-02-23T09:30:08Z</time>
      </trkpt>
      <trkpt lat="44.81427" lon="-0.52767">
        <ele>3.8262329101562</ele>
        <time>2022-02-23T09:30:17Z</time>
      </trkpt>
      <trkpt lat="44.81417" lon="-0.52759">
        <ele>2.8451538085938</ele>
        <time>2022-02-23T09:30:24Z</time>
      </trkpt>
      <trkpt lat="44.81408" lon="-0.52754">
        <ele>5.698974609375</ele>
        <time>2022-02-23T09:30:31Z</time>
      </trkpt>
      <trkpt lat="44.81397" lon="-0.52749">
        <ele>8.1923217773438</ele>
        <time>2022-02-23T09:30:40Z</time>
      </trkpt>
      <trkpt lat="44.8139" lon="-0.5274">
        <ele>10.73583984375</ele>
        <time>2022-02-23T09:30:48Z</time>
      </trkpt>
      <trkpt lat="44.81381" lon="-0.52735">
        <ele>11.31884765625</ele>
        <time>2022-02-23T09:30:55Z</time>
      </trkpt>
      <trkpt lat="44.8137" lon="-0.5273">
        <ele>10.232604980469</ele>
        <time>2022-02-23T09:31:06Z</time>
      </trkpt>
      <trkpt lat="44.81359" lon="-0.52724">
        <ele>9.7447509765625</ele>
        <time>2022-02-23T09:31:13Z</time>
      </trkpt>
      <trkpt lat="44.8135" lon="-0.52718">
        <ele>6.6763305664062</ele>
        <time>2022-02-23T09:31:21Z</time>
      </trkpt>
      <trkpt lat="44.81342" lon="-0.52712">
        <ele>6.8638305664062</ele>
        <time>2022-02-23T09:31:28Z</time>
      </trkpt>
      <trkpt lat="44.81332" lon="-0.52704">
        <ele>4.477783203125</ele>
        <time>2022-02-23T09:31:34Z</time>
      </trkpt>
      <trkpt lat="44.81322" lon="-0.52695">
        <ele>5.7454833984375</ele>
        <time>2022-02-23T09:31:40Z</time>
      </trkpt>
      <trkpt lat="44.81313" lon="-0.52687">
        <ele>5.3418579101562</ele>
        <time>2022-02-23T09:31:47Z</time>
      </trkpt>
      <trkpt lat="44.81303" lon="-0.5268">
        <ele>4.7520141601562</ele>
        <time>2022-02-23T09:31:55Z</time>
      </trkpt>
      <trkpt lat="44.81293" lon="-0.52675">
        <ele>3.835205078125</ele>
        <time>2022-02-23T09:32:03Z</time>
      </trkpt>
      <trkpt lat="44.81282" lon="-0.52669">
        <ele>4.3015747070312</ele>
        <time>2022-02-23T09:32:12Z</time>
      </trkpt>
      <trkpt lat="44.81272" lon="-0.52663">
        <ele>4.046875</ele>
        <time>2022-02-23T09:32:20Z</time>
      </trkpt>
      <trkpt lat="44.81262" lon="-0.52656">
        <ele>3.8489990234375</ele>
        <time>2022-02-23T09:32:28Z</time>
      </trkpt>
      <trkpt lat="44.81252" lon="-0.52649">
        <ele>3.3712158203125</ele>
        <time>2022-02-23T09:32:36Z</time>
      </trkpt>
      <trkpt lat="44.81244" lon="-0.52643">
        <ele>3.0289306640625</ele>
        <time>2022-02-23T09:32:42Z</time>
      </trkpt>
      <trkpt lat="44.81235" lon="-0.52636">
        <ele>2.7994384765625</ele>
        <time>2022-02-23T09:32:50Z</time>
      </trkpt>
      <trkpt lat="44.81225" lon="-0.5263">
        <ele>1.5767211914062</ele>
        <time>2022-02-23T09:32:58Z</time>
      </trkpt>
      <trkpt lat="44.81215" lon="-0.52623">
        <ele>2.8271484375</ele>
        <time>2022-02-23T09:33:06Z</time>
      </trkpt>
      <trkpt lat="44.81206" lon="-0.52618">
        <ele>1.16748046875</ele>
        <time>2022-02-23T09:33:13Z</time>
      </trkpt>
      <trkpt lat="44.81196" lon="-0.52612">
        <ele>3.1048583984375</ele>
        <time>2022-02-23T09:33:20Z</time>
      </trkpt>
      <trkpt lat="44.81187" lon="-0.52605">
        <ele>2.8864135742188</ele>
        <time>2022-02-23T09:33:27Z</time>
      </trkpt>
      <trkpt lat="44.81178" lon="-0.52599">
        <ele>2.1489868164062</ele>
        <time>2022-02-23T09:33:36Z</time>
      </trkpt>
      <trkpt lat="44.81168" lon="-0.52592">
        <ele>5.1626586914062</ele>
        <time>2022-02-23T09:33:44Z</time>
      </trkpt>
      <trkpt lat="44.81159" lon="-0.52585">
        <ele>4.596923828125</ele>
        <time>2022-02-23T09:33:52Z</time>
      </trkpt>
      <trkpt lat="44.8115" lon="-0.52579">
        <ele>6.0440063476562</ele>
        <time>2022-02-23T09:33:59Z</time>
      </trkpt>
      <trkpt lat="44.81141" lon="-0.52573">
        <ele>6.9644775390625</ele>
        <time>2022-02-23T09:34:07Z</time>
      </trkpt>
      <trkpt lat="44.81131" lon="-0.52566">
        <ele>7.3271484375</ele>
        <time>2022-02-23T09:34:15Z</time>
      </trkpt>
      <trkpt lat="44.8112" lon="-0.52558">
        <ele>6.5979614257812</ele>
        <time>2022-02-23T09:34:23Z</time>
      </trkpt>
      <trkpt lat="44.81112" lon="-0.52552">
        <ele>4.87744140625</ele>
        <time>2022-02-23T09:34:31Z</time>
      </trkpt>
      <trkpt lat="44.81104" lon="-0.52546">
        <ele>4.7178955078125</ele>
        <time>2022-02-23T09:34:37Z</time>
      </trkpt>
      <trkpt lat="44.81095" lon="-0.52541">
        <ele>4.00927734375</ele>
        <time>2022-02-23T09:34:43Z</time>
      </trkpt>
      <trkpt lat="44.81086" lon="-0.52537">
        <ele>3.1588745117188</ele>
        <time>2022-02-23T09:34:49Z</time>
      </trkpt>
      <trkpt lat="44.81077" lon="-0.52534">
        <ele>2.3579711914062</ele>
        <time>2022-02-23T09:34:56Z</time>
      </trkpt>
      <trkpt lat="44.81067" lon="-0.52528">
        <ele>3.32421875</ele>
        <time>2022-02-23T09:35:03Z</time>
      </trkpt>
      <trkpt lat="44.81056" lon="-0.52522">
        <ele>1.1652221679688</ele>
        <time>2022-02-23T09:35:12Z</time>
      </trkpt>
      <trkpt lat="44.81047" lon="-0.52516">
        <ele>4.706298828125</ele>
        <time>2022-02-23T09:35:24Z</time>
      </trkpt>
      <trkpt lat="44.81037" lon="-0.52512">
        <ele>5.2385864257812</ele>
        <time>2022-02-23T09:35:32Z</time>
      </trkpt>
      <trkpt lat="44.8103" lon="-0.52525">
        <ele>2.4050903320312</ele>
        <time>2022-02-23T09:35:47Z</time>
      </trkpt>
      <trkpt lat="44.81022" lon="-0.52534">
        <ele>2.7728271484375</ele>
        <time>2022-02-23T09:36:05Z</time>
      </trkpt>
      <trkpt lat="44.81025" lon="-0.5252">
        <ele>1.7926635742188</ele>
        <time>2022-02-23T09:36:48Z</time>
      </trkpt>
      <trkpt lat="44.81029" lon="-0.52506">
        <ele>3.7407836914062</ele>
        <time>2022-02-23T09:36:58Z</time>
      </trkpt>
      <trkpt lat="44.8102" lon="-0.52502">
        <ele>6.177001953125</ele>
        <time>2022-02-23T09:37:12Z</time>
      </trkpt>
      <trkpt lat="44.81012" lon="-0.52494">
        <ele>6.2362060546875</ele>
        <time>2022-02-23T09:37:22Z</time>
      </trkpt>
      <trkpt lat="44.81002" lon="-0.52488">
        <ele>5.7545166015625</ele>
        <time>2022-02-23T09:37:31Z</time>
      </trkpt>
      <trkpt lat="44.80993" lon="-0.52482">
        <ele>6.5895385742188</ele>
        <time>2022-02-23T09:37:39Z</time>
      </trkpt>
      <trkpt lat="44.80984" lon="-0.52476">
        <ele>6.1588745117188</ele>
        <time>2022-02-23T09:37:46Z</time>
      </trkpt>
      <trkpt lat="44.80975" lon="-0.52472">
        <ele>6.5370483398438</ele>
        <time>2022-02-23T09:37:54Z</time>
      </trkpt>
      <trkpt lat="44.80963" lon="-0.52458">
        <ele>6.1596069335938</ele>
        <time>2022-02-23T09:38:18Z</time>
      </trkpt>
      <trkpt lat="44.8095" lon="-0.5245">
        <ele>9.5843505859375</ele>
        <time>2022-02-23T09:38:22Z</time>
      </trkpt>
      <trkpt lat="44.80938" lon="-0.52442">
        <ele>13.888427734375</ele>
        <time>2022-02-23T09:38:26Z</time>
      </trkpt>
      <trkpt lat="44.8093" lon="-0.52434">
        <ele>13.806030273438</ele>
        <time>2022-02-23T09:38:31Z</time>
      </trkpt>
      <trkpt lat="44.80921" lon="-0.52438">
        <ele>13.74072265625</ele>
        <time>2022-02-23T09:38:49Z</time>
      </trkpt>
      <trkpt lat="44.80913" lon="-0.52444">
        <ele>9.1442260742188</ele>
        <time>2022-02-23T09:39:01Z</time>
      </trkpt>
      <trkpt lat="44.80902" lon="-0.52441">
        <ele>5.6011962890625</ele>
        <time>2022-02-23T09:39:09Z</time>
      </trkpt>
      <trkpt lat="44.80891" lon="-0.52441">
        <ele>3.164306640625</ele>
        <time>2022-02-23T09:39:16Z</time>
      </trkpt>
      <trkpt lat="44.8089" lon="-0.52423">
        <ele>5.0755004882812</ele>
        <time>2022-02-23T09:39:28Z</time>
      </trkpt>
      <trkpt lat="44.80887" lon="-0.5241">
        <ele>6.0065307617188</ele>
        <time>2022-02-23T09:39:41Z</time>
      </trkpt>
      <trkpt lat="44.80879" lon="-0.52402">
        <ele>6.1211547851562</ele>
        <time>2022-02-23T09:39:51Z</time>
      </trkpt>
      <trkpt lat="44.8087" lon="-0.52396">
        <ele>8.001220703125</ele>
        <time>2022-02-23T09:39:59Z</time>
      </trkpt>
      <trkpt lat="44.8086" lon="-0.52391">
        <ele>3.398193359375</ele>
        <time>2022-02-23T09:40:07Z</time>
      </trkpt>
      <trkpt lat="44.8085" lon="-0.52387">
        <ele>4.2678833007812</ele>
        <time>2022-02-23T09:40:15Z</time>
      </trkpt>
      <trkpt lat="44.80841" lon="-0.5238">
        <ele>3.8711547851562</ele>
        <time>2022-02-23T09:40:25Z</time>
      </trkpt>
      <trkpt lat="44.80833" lon="-0.52373">
        <ele>7.193603515625</ele>
        <time>2022-02-23T09:40:39Z</time>
      </trkpt>
      <trkpt lat="44.80822" lon="-0.52367">
        <ele>8.7064819335938</ele>
        <time>2022-02-23T09:40:45Z</time>
      </trkpt>
      <trkpt lat="44.80813" lon="-0.52358">
        <ele>9.4034423828125</ele>
        <time>2022-02-23T09:40:51Z</time>
      </trkpt>
      <trkpt lat="44.80802" lon="-0.52353">
        <ele>6.7547607421875</ele>
        <time>2022-02-23T09:40:58Z</time>
      </trkpt>
      <trkpt lat="44.80793" lon="-0.52347">
        <ele>7.6515502929688</ele>
        <time>2022-02-23T09:41:06Z</time>
      </trkpt>
      <trkpt lat="44.80784" lon="-0.52339">
        <ele>9.8841552734375</ele>
        <time>2022-02-23T09:41:12Z</time>
      </trkpt>
      <trkpt lat="44.80774" lon="-0.52333">
        <ele>6.559814453125</ele>
        <time>2022-02-23T09:41:18Z</time>
      </trkpt>
      <trkpt lat="44.80766" lon="-0.52328">
        <ele>8.1710205078125</ele>
        <time>2022-02-23T09:41:23Z</time>
      </trkpt>
      <trkpt lat="44.80756" lon="-0.52321">
        <ele>5.3472900390625</ele>
        <time>2022-02-23T09:41:30Z</time>
      </trkpt>
      <trkpt lat="44.80747" lon="-0.52314">
        <ele>4.6414794921875</ele>
        <time>2022-02-23T09:41:37Z</time>
      </trkpt>
      <trkpt lat="44.80737" lon="-0.52309">
        <ele>6.302490234375</ele>
        <time>2022-02-23T09:41:45Z</time>
      </trkpt>
      <trkpt lat="44.8073" lon="-0.52301">
        <ele>8.2359008789062</ele>
        <time>2022-02-23T09:41:54Z</time>
      </trkpt>
      <trkpt lat="44.8072" lon="-0.52295">
        <ele>6.9855346679688</ele>
        <time>2022-02-23T09:42:02Z</time>
      </trkpt>
      <trkpt lat="44.80716" lon="-0.52282">
        <ele>8.5153198242188</ele>
        <time>2022-02-23T09:42:08Z</time>
      </trkpt>
      <trkpt lat="44.80718" lon="-0.52266">
        <ele>8.3145141601562</ele>
        <time>2022-02-23T09:42:17Z</time>
      </trkpt>
      <trkpt lat="44.80723" lon="-0.52253">
        <ele>6.2857055664062</ele>
        <time>2022-02-23T09:42:25Z</time>
      </trkpt>
      <trkpt lat="44.80727" lon="-0.52239">
        <ele>7.4730834960938</ele>
        <time>2022-02-23T09:42:33Z</time>
      </trkpt>
      <trkpt lat="44.80732" lon="-0.52225">
        <ele>7.9968872070312</ele>
        <time>2022-02-23T09:42:41Z</time>
      </trkpt>
      <trkpt lat="44.80733" lon="-0.52213">
        <ele>7.7114868164062</ele>
        <time>2022-02-23T09:42:51Z</time>
      </trkpt>
      <trkpt lat="44.80739" lon="-0.52201">
        <ele>8.8861083984375</ele>
        <time>2022-02-23T09:42:59Z</time>
      </trkpt>
      <trkpt lat="44.80745" lon="-0.52187">
        <ele>9.0877075195312</ele>
        <time>2022-02-23T09:43:08Z</time>
      </trkpt>
      <trkpt lat="44.8075" lon="-0.52175">
        <ele>5.8885498046875</ele>
        <time>2022-02-23T09:43:16Z</time>
      </trkpt>
      <trkpt lat="44.80754" lon="-0.52162">
        <ele>7.2549438476562</ele>
        <time>2022-02-23T09:43:23Z</time>
      </trkpt>
      <trkpt lat="44.80759" lon="-0.52147">
        <ele>9.8809204101562</ele>
        <time>2022-02-23T09:43:31Z</time>
      </trkpt>
      <trkpt lat="44.80761" lon="-0.52133">
        <ele>8.2657470703125</ele>
        <time>2022-02-23T09:43:38Z</time>
      </trkpt>
      <trkpt lat="44.80765" lon="-0.52119">
        <ele>5.235107421875</ele>
        <time>2022-02-23T09:43:46Z</time>
      </trkpt>
      <trkpt lat="44.80772" lon="-0.52105">
        <ele>4.1591796875</ele>
        <time>2022-02-23T09:43:54Z</time>
      </trkpt>
      <trkpt lat="44.80773" lon="-0.52092">
        <ele>1.6880493164062</ele>
        <time>2022-02-23T09:44:00Z</time>
      </trkpt>
      <trkpt lat="44.80778" lon="-0.52078">
        <ele>1.6182861328125</ele>
        <time>2022-02-23T09:44:07Z</time>
      </trkpt>
      <trkpt lat="44.80782" lon="-0.52064">
        <ele>-0.77960205078125</ele>
        <time>2022-02-23T09:44:14Z</time>
      </trkpt>
      <trkpt lat="44.80782" lon="-0.5205">
        <ele>-5.09423828125</ele>
        <time>2022-02-23T09:44:21Z</time>
      </trkpt>
      <trkpt lat="44.80782" lon="-0.52035">
        <ele>-3.6806640625</ele>
        <time>2022-02-23T09:44:29Z</time>
      </trkpt>
      <trkpt lat="44.80784" lon="-0.52019">
        <ele>-3.0270385742188</ele>
        <time>2022-02-23T09:44:37Z</time>
      </trkpt>
      <trkpt lat="44.80786" lon="-0.52005">
        <ele>-4.9945678710938</ele>
        <time>2022-02-23T09:44:45Z</time>
      </trkpt>
      <trkpt lat="44.80789" lon="-0.51993">
        <ele>-3.6760864257812</ele>
        <time>2022-02-23T09:44:51Z</time>
      </trkpt>
      <trkpt lat="44.80793" lon="-0.51979">
        <ele>-2.4365234375</ele>
        <time>2022-02-23T09:44:58Z</time>
      </trkpt>
      <trkpt lat="44.80798" lon="-0.51967">
        <ele>-0.2802734375</ele>
        <time>2022-02-23T09:45:05Z</time>
      </trkpt>
      <trkpt lat="44.80804" lon="-0.51951">
        <ele>-1.2841796875</ele>
        <time>2022-02-23T09:45:15Z</time>
      </trkpt>
      <trkpt lat="44.80808" lon="-0.51937">
        <ele>4.2518310546875</ele>
        <time>2022-02-23T09:45:22Z</time>
      </trkpt>
      <trkpt lat="44.80817" lon="-0.51931">
        <ele>4.827880859375</ele>
        <time>2022-02-23T09:45:29Z</time>
      </trkpt>
      <trkpt lat="44.80828" lon="-0.51932">
        <ele>4.9012451171875</ele>
        <time>2022-02-23T09:45:37Z</time>
      </trkpt>
      <trkpt lat="44.80837" lon="-0.51939">
        <ele>1.6212158203125</ele>
        <time>2022-02-23T09:45:45Z</time>
      </trkpt>
      <trkpt lat="44.80848" lon="-0.51941">
        <ele>4.7341918945312</ele>
        <time>2022-02-23T09:45:54Z</time>
      </trkpt>
      <trkpt lat="44.80856" lon="-0.51934">
        <ele>3.15087890625</ele>
        <time>2022-02-23T09:46:00Z</time>
      </trkpt>
      <trkpt lat="44.80863" lon="-0.51922">
        <ele>3.1513061523438</ele>
        <time>2022-02-23T09:46:08Z</time>
      </trkpt>
      <trkpt lat="44.80872" lon="-0.51915">
        <ele>3.96826171875</ele>
        <time>2022-02-23T09:46:16Z</time>
      </trkpt>
      <trkpt lat="44.80882" lon="-0.51914">
        <ele>4.5128784179688</ele>
        <time>2022-02-23T09:46:32Z</time>
      </trkpt>
      <trkpt lat="44.80891" lon="-0.51912">
        <ele>7.124267578125</ele>
        <time>2022-02-23T09:46:43Z</time>
      </trkpt>
      <trkpt lat="44.8089" lon="-0.51898">
        <ele>6.79345703125</ele>
        <time>2022-02-23T09:46:50Z</time>
      </trkpt>
      <trkpt lat="44.80882" lon="-0.51892">
        <ele>6.26708984375</ele>
        <time>2022-02-23T09:46:56Z</time>
      </trkpt>
      <trkpt lat="44.80872" lon="-0.51886">
        <ele>7.2139282226562</ele>
        <time>2022-02-23T09:47:05Z</time>
      </trkpt>
      <trkpt lat="44.80866" lon="-0.51872">
        <ele>5.2784423828125</ele>
        <time>2022-02-23T09:47:13Z</time>
      </trkpt>
      <trkpt lat="44.80864" lon="-0.51858">
        <ele>4.566650390625</ele>
        <time>2022-02-23T09:48:18Z</time>
      </trkpt>
      <trkpt lat="44.80865" lon="-0.51844">
        <ele>7.0198974609375</ele>
        <time>2022-02-23T09:48:25Z</time>
      </trkpt>
      <trkpt lat="44.80865" lon="-0.51829">
        <ele>10.904663085938</ele>
        <time>2022-02-23T09:48:34Z</time>
      </trkpt>
      <trkpt lat="44.80868" lon="-0.51814">
        <ele>7.9566650390625</ele>
        <time>2022-02-23T09:48:43Z</time>
      </trkpt>
      <trkpt lat="44.80871" lon="-0.51801">
        <ele>6.9190673828125</ele>
        <time>2022-02-23T09:48:51Z</time>
      </trkpt>
      <trkpt lat="44.80876" lon="-0.51789">
        <ele>9.00732421875</ele>
        <time>2022-02-23T09:48:58Z</time>
      </trkpt>
      <trkpt lat="44.8088" lon="-0.51778">
        <ele>10.616394042969</ele>
        <time>2022-02-23T09:49:04Z</time>
      </trkpt>
      <trkpt lat="44.80882" lon="-0.51763">
        <ele>10.134704589844</ele>
        <time>2022-02-23T09:49:12Z</time>
      </trkpt>
      <trkpt lat="44.80883" lon="-0.5175">
        <ele>8.3858032226562</ele>
        <time>2022-02-23T09:49:19Z</time>
      </trkpt>
      <trkpt lat="44.80885" lon="-0.51736">
        <ele>9.102294921875</ele>
        <time>2022-02-23T09:49:28Z</time>
      </trkpt>
      <trkpt lat="44.80889" lon="-0.51723">
        <ele>11.576721191406</ele>
        <time>2022-02-23T09:49:36Z</time>
      </trkpt>
      <trkpt lat="44.80892" lon="-0.5171">
        <ele>9.5941162109375</ele>
        <time>2022-02-23T09:49:42Z</time>
      </trkpt>
      <trkpt lat="44.80893" lon="-0.51696">
        <ele>11.043090820312</ele>
        <time>2022-02-23T09:49:50Z</time>
      </trkpt>
      <trkpt lat="44.80897" lon="-0.51682">
        <ele>11.59716796875</ele>
        <time>2022-02-23T09:49:58Z</time>
      </trkpt>
      <trkpt lat="44.80898" lon="-0.51669">
        <ele>14.208374023438</ele>
        <time>2022-02-23T09:50:05Z</time>
      </trkpt>
      <trkpt lat="44.809" lon="-0.51656">
        <ele>12.571044921875</ele>
        <time>2022-02-23T09:50:11Z</time>
      </trkpt>
      <trkpt lat="44.80901" lon="-0.51641">
        <ele>13.584228515625</ele>
        <time>2022-02-23T09:50:19Z</time>
      </trkpt>
      <trkpt lat="44.80903" lon="-0.51628">
        <ele>14.048706054688</ele>
        <time>2022-02-23T09:50:27Z</time>
      </trkpt>
      <trkpt lat="44.80903" lon="-0.51615">
        <ele>12.02783203125</ele>
        <time>2022-02-23T09:50:34Z</time>
      </trkpt>
      <trkpt lat="44.80905" lon="-0.516">
        <ele>14.617370605469</ele>
        <time>2022-02-23T09:50:41Z</time>
      </trkpt>
      <trkpt lat="44.80906" lon="-0.51584">
        <ele>17.333618164062</ele>
        <time>2022-02-23T09:50:50Z</time>
      </trkpt>
      <trkpt lat="44.80909" lon="-0.51569">
        <ele>14.544128417969</ele>
        <time>2022-02-23T09:50:58Z</time>
      </trkpt>
      <trkpt lat="44.80913" lon="-0.51554">
        <ele>13.139465332031</ele>
        <time>2022-02-23T09:51:05Z</time>
      </trkpt>
      <trkpt lat="44.80916" lon="-0.51541">
        <ele>12.02099609375</ele>
        <time>2022-02-23T09:51:11Z</time>
      </trkpt>
      <trkpt lat="44.8092" lon="-0.51529">
        <ele>11.569030761719</ele>
        <time>2022-02-23T09:51:47Z</time>
      </trkpt>
      <trkpt lat="44.80923" lon="-0.51515">
        <ele>9.2177124023438</ele>
        <time>2022-02-23T09:51:55Z</time>
      </trkpt>
      <trkpt lat="44.80924" lon="-0.51501">
        <ele>9.816650390625</ele>
        <time>2022-02-23T09:52:02Z</time>
      </trkpt>
      <trkpt lat="44.80926" lon="-0.51486">
        <ele>11.845275878906</ele>
        <time>2022-02-23T09:52:09Z</time>
      </trkpt>
      <trkpt lat="44.80927" lon="-0.51471">
        <ele>10.199584960938</ele>
        <time>2022-02-23T09:52:15Z</time>
      </trkpt>
      <trkpt lat="44.80928" lon="-0.51457">
        <ele>6.22265625</ele>
        <time>2022-02-23T09:52:24Z</time>
      </trkpt>
      <trkpt lat="44.80931" lon="-0.51443">
        <ele>6.9000854492188</ele>
        <time>2022-02-23T09:52:34Z</time>
      </trkpt>
      <trkpt lat="44.80934" lon="-0.51429">
        <ele>10.102722167969</ele>
        <time>2022-02-23T09:52:42Z</time>
      </trkpt>
      <trkpt lat="44.80935" lon="-0.51415">
        <ele>8.0206909179688</ele>
        <time>2022-02-23T09:52:49Z</time>
      </trkpt>
      <trkpt lat="44.80936" lon="-0.51402">
        <ele>9.7679443359375</ele>
        <time>2022-02-23T09:52:57Z</time>
      </trkpt>
      <trkpt lat="44.8094" lon="-0.51387">
        <ele>13.410400390625</ele>
        <time>2022-02-23T09:53:07Z</time>
      </trkpt>
      <trkpt lat="44.80942" lon="-0.51373">
        <ele>14.098327636719</ele>
        <time>2022-02-23T09:53:14Z</time>
      </trkpt>
      <trkpt lat="44.80945" lon="-0.5136">
        <ele>11.822570800781</ele>
        <time>2022-02-23T09:53:20Z</time>
      </trkpt>
      <trkpt lat="44.8095" lon="-0.51347">
        <ele>10.832397460938</ele>
        <time>2022-02-23T09:53:28Z</time>
      </trkpt>
      <trkpt lat="44.80948" lon="-0.51332">
        <ele>8.2285766601562</ele>
        <time>2022-02-23T09:53:34Z</time>
      </trkpt>
      <trkpt lat="44.80949" lon="-0.51317">
        <ele>7.2244873046875</ele>
        <time>2022-02-23T09:53:43Z</time>
      </trkpt>
      <trkpt lat="44.80952" lon="-0.51303">
        <ele>12.741088867188</ele>
        <time>2022-02-23T09:53:51Z</time>
      </trkpt>
      <trkpt lat="44.80958" lon="-0.51291">
        <ele>15.901550292969</ele>
        <time>2022-02-23T09:53:58Z</time>
      </trkpt>
      <trkpt lat="44.80959" lon="-0.51278">
        <ele>13.474487304688</ele>
        <time>2022-02-23T09:54:03Z</time>
      </trkpt>
      <trkpt lat="44.80963" lon="-0.51265">
        <ele>13.892883300781</ele>
        <time>2022-02-23T09:54:12Z</time>
      </trkpt>
      <trkpt lat="44.80967" lon="-0.51251">
        <ele>11.476257324219</ele>
        <time>2022-02-23T09:54:22Z</time>
      </trkpt>
      <trkpt lat="44.80969" lon="-0.51235">
        <ele>7.5829467773438</ele>
        <time>2022-02-23T09:54:30Z</time>
      </trkpt>
      <trkpt lat="44.8097" lon="-0.51222">
        <ele>7.9120483398438</ele>
        <time>2022-02-23T09:54:38Z</time>
      </trkpt>
      <trkpt lat="44.80975" lon="-0.51208">
        <ele>7.1906127929688</ele>
        <time>2022-02-23T09:54:45Z</time>
      </trkpt>
      <trkpt lat="44.80978" lon="-0.51196">
        <ele>8.41357421875</ele>
        <time>2022-02-23T09:54:52Z</time>
      </trkpt>
      <trkpt lat="44.80981" lon="-0.51183">
        <ele>1.9514770507812</ele>
        <time>2022-02-23T09:54:59Z</time>
      </trkpt>
      <trkpt lat="44.80983" lon="-0.51169">
        <ele>2.1769409179688</ele>
        <time>2022-02-23T09:55:05Z</time>
      </trkpt>
      <trkpt lat="44.80985" lon="-0.51157">
        <ele>3.004150390625</ele>
        <time>2022-02-23T09:55:12Z</time>
      </trkpt>
      <trkpt lat="44.80987" lon="-0.51143">
        <ele>5.911376953125</ele>
        <time>2022-02-23T09:55:19Z</time>
      </trkpt>
      <trkpt lat="44.80994" lon="-0.51126">
        <ele>3.1886596679688</ele>
        <time>2022-02-23T09:55:32Z</time>
      </trkpt>
      <trkpt lat="44.80999" lon="-0.51114">
        <ele>6.5396118164062</ele>
        <time>2022-02-23T09:55:39Z</time>
      </trkpt>
      <trkpt lat="44.81004" lon="-0.51102">
        <ele>0.62249755859375</ele>
        <time>2022-02-23T09:55:47Z</time>
      </trkpt>
      <trkpt lat="44.81005" lon="-0.51086">
        <ele>-4.0842895507812</ele>
        <time>2022-02-23T09:55:57Z</time>
      </trkpt>
      <trkpt lat="44.81006" lon="-0.51073">
        <ele>-0.482421875</ele>
        <time>2022-02-23T09:56:03Z</time>
      </trkpt>
      <trkpt lat="44.81007" lon="-0.5106">
        <ele>-1.023193359375</ele>
        <time>2022-02-23T09:56:10Z</time>
      </trkpt>
      <trkpt lat="44.81007" lon="-0.51047">
        <ele>-0.051513671875</ele>
        <time>2022-02-23T09:56:16Z</time>
      </trkpt>
      <trkpt lat="44.8101" lon="-0.51034">
        <ele>2.3766479492188</ele>
        <time>2022-02-23T09:56:23Z</time>
      </trkpt>
      <trkpt lat="44.81014" lon="-0.5102">
        <ele>3.870361328125</ele>
        <time>2022-02-23T09:56:30Z</time>
      </trkpt>
      <trkpt lat="44.81015" lon="-0.51007">
        <ele>3.526123046875</ele>
        <time>2022-02-23T09:56:36Z</time>
      </trkpt>
      <trkpt lat="44.81016" lon="-0.50993">
        <ele>3.2559814453125</ele>
        <time>2022-02-23T09:56:42Z</time>
      </trkpt>
      <trkpt lat="44.81019" lon="-0.50978">
        <ele>3.706298828125</ele>
        <time>2022-02-23T09:56:50Z</time>
      </trkpt>
      <trkpt lat="44.81024" lon="-0.50966">
        <ele>2.4078369140625</ele>
        <time>2022-02-23T09:56:59Z</time>
      </trkpt>
      <trkpt lat="44.81026" lon="-0.50952">
        <ele>5.74462890625</ele>
        <time>2022-02-23T09:57:06Z</time>
      </trkpt>
      <trkpt lat="44.81027" lon="-0.50937">
        <ele>6.90185546875</ele>
        <time>2022-02-23T09:57:13Z</time>
      </trkpt>
      <trkpt lat="44.81031" lon="-0.50924">
        <ele>5.547607421875</ele>
        <time>2022-02-23T09:57:20Z</time>
      </trkpt>
      <trkpt lat="44.81033" lon="-0.50909">
        <ele>4.5052490234375</ele>
        <time>2022-02-23T09:57:28Z</time>
      </trkpt>
      <trkpt lat="44.81036" lon="-0.50895">
        <ele>4.6632080078125</ele>
        <time>2022-02-23T09:57:36Z</time>
      </trkpt>
      <trkpt lat="44.81038" lon="-0.50882">
        <ele>2.834716796875</ele>
        <time>2022-02-23T09:57:42Z</time>
      </trkpt>
      <trkpt lat="44.81041" lon="-0.5087">
        <ele>2.6151733398438</ele>
        <time>2022-02-23T09:57:48Z</time>
      </trkpt>
      <trkpt lat="44.81046" lon="-0.50855">
        <ele>4.5732421875</ele>
        <time>2022-02-23T09:57:56Z</time>
      </trkpt>
      <trkpt lat="44.81049" lon="-0.5084">
        <ele>5.7960205078125</ele>
        <time>2022-02-23T09:58:04Z</time>
      </trkpt>
      <trkpt lat="44.81054" lon="-0.50826">
        <ele>5.8016357421875</ele>
        <time>2022-02-23T09:58:12Z</time>
      </trkpt>
      <trkpt lat="44.81059" lon="-0.50813">
        <ele>5.124267578125</ele>
        <time>2022-02-23T09:58:19Z</time>
      </trkpt>
      <trkpt lat="44.81064" lon="-0.50799">
        <ele>6.897216796875</ele>
        <time>2022-02-23T09:58:27Z</time>
      </trkpt>
      <trkpt lat="44.81069" lon="-0.50787">
        <ele>8.5625</ele>
        <time>2022-02-23T09:58:35Z</time>
      </trkpt>
      <trkpt lat="44.81072" lon="-0.50773">
        <ele>8.150634765625</ele>
        <time>2022-02-23T09:58:42Z</time>
      </trkpt>
      <trkpt lat="44.81076" lon="-0.5076">
        <ele>14.695007324219</ele>
        <time>2022-02-23T09:58:49Z</time>
      </trkpt>
      <trkpt lat="44.8108" lon="-0.50749">
        <ele>10.775817871094</ele>
        <time>2022-02-23T09:58:56Z</time>
      </trkpt>
      <trkpt lat="44.81084" lon="-0.50735">
        <ele>13.086120605469</ele>
        <time>2022-02-23T09:59:04Z</time>
      </trkpt>
      <trkpt lat="44.81087" lon="-0.50723">
        <ele>10.941467285156</ele>
        <time>2022-02-23T09:59:10Z</time>
      </trkpt>
      <trkpt lat="44.81092" lon="-0.50708">
        <ele>10.392272949219</ele>
        <time>2022-02-23T09:59:18Z</time>
      </trkpt>
      <trkpt lat="44.81097" lon="-0.50696">
        <ele>9.722412109375</ele>
        <time>2022-02-23T09:59:26Z</time>
      </trkpt>
      <trkpt lat="44.81101" lon="-0.50682">
        <ele>12.65380859375</ele>
        <time>2022-02-23T09:59:34Z</time>
      </trkpt>
      <trkpt lat="44.81105" lon="-0.5067">
        <ele>8.8490600585938</ele>
        <time>2022-02-23T09:59:42Z</time>
      </trkpt>
      <trkpt lat="44.81109" lon="-0.50656">
        <ele>12.421813964844</ele>
        <time>2022-02-23T09:59:50Z</time>
      </trkpt>
      <trkpt lat="44.81111" lon="-0.50643">
        <ele>13.696166992188</ele>
        <time>2022-02-23T09:59:57Z</time>
      </trkpt>
      <trkpt lat="44.81113" lon="-0.50629">
        <ele>15.917907714844</ele>
        <time>2022-02-23T10:00:05Z</time>
      </trkpt>
      <trkpt lat="44.81122" lon="-0.50623">
        <ele>12.575744628906</ele>
        <time>2022-02-23T10:00:13Z</time>
      </trkpt>
      <trkpt lat="44.8112" lon="-0.50611">
        <ele>11.566772460938</ele>
        <time>2022-02-23T10:00:24Z</time>
      </trkpt>
      <trkpt lat="44.81123" lon="-0.50598">
        <ele>16.521423339844</ele>
        <time>2022-02-23T10:00:33Z</time>
      </trkpt>
      <trkpt lat="44.81129" lon="-0.50585">
        <ele>17.763732910156</ele>
        <time>2022-02-23T10:00:40Z</time>
      </trkpt>
      <trkpt lat="44.81133" lon="-0.50572">
        <ele>19.093200683594</ele>
        <time>2022-02-23T10:00:50Z</time>
      </trkpt>
      <trkpt lat="44.81136" lon="-0.50559">
        <ele>27.333923339844</ele>
        <time>2022-02-23T10:01:00Z</time>
      </trkpt>
      <trkpt lat="44.81143" lon="-0.50547">
        <ele>24.3837890625</ele>
        <time>2022-02-23T10:01:08Z</time>
      </trkpt>
      <trkpt lat="44.81143" lon="-0.50532">
        <ele>26.01123046875</ele>
        <time>2022-02-23T10:01:17Z</time>
      </trkpt>
      <trkpt lat="44.81144" lon="-0.50518">
        <ele>25.785339355469</ele>
        <time>2022-02-23T10:01:24Z</time>
      </trkpt>
      <trkpt lat="44.81145" lon="-0.50504">
        <ele>23.149169921875</ele>
        <time>2022-02-23T10:01:31Z</time>
      </trkpt>
      <trkpt lat="44.81147" lon="-0.5049">
        <ele>23.173706054688</ele>
        <time>2022-02-23T10:01:42Z</time>
      </trkpt>
      <trkpt lat="44.81152" lon="-0.50478">
        <ele>25.88134765625</ele>
        <time>2022-02-23T10:01:49Z</time>
      </trkpt>
      <trkpt lat="44.81152" lon="-0.50463">
        <ele>29.317626953125</ele>
        <time>2022-02-23T10:02:05Z</time>
      </trkpt>
      <trkpt lat="44.81153" lon="-0.50449">
        <ele>31.124755859375</ele>
        <time>2022-02-23T10:02:19Z</time>
      </trkpt>
      <trkpt lat="44.81163" lon="-0.50453">
        <ele>41.166809082031</ele>
        <time>2022-02-23T10:02:35Z</time>
      </trkpt>
      <trkpt lat="44.81176" lon="-0.50449">
        <ele>37.342895507812</ele>
        <time>2022-02-23T10:03:19Z</time>
      </trkpt>
      <trkpt lat="44.81186" lon="-0.50454">
        <ele>41.788940429688</ele>
        <time>2022-02-23T10:03:24Z</time>
      </trkpt>
      <trkpt lat="44.81196" lon="-0.50458">
        <ele>40.1767578125</ele>
        <time>2022-02-23T10:03:30Z</time>
      </trkpt>
      <trkpt lat="44.81207" lon="-0.50453">
        <ele>40.095336914062</ele>
        <time>2022-02-23T10:03:36Z</time>
      </trkpt>
      <trkpt lat="44.81219" lon="-0.50456">
        <ele>49.505798339844</ele>
        <time>2022-02-23T10:03:44Z</time>
      </trkpt>
      <trkpt lat="44.81227" lon="-0.50466">
        <ele>44.567993164062</ele>
        <time>2022-02-23T10:03:51Z</time>
      </trkpt>
      <trkpt lat="44.81237" lon="-0.50469">
        <ele>41.343139648438</ele>
        <time>2022-02-23T10:03:58Z</time>
      </trkpt>
      <trkpt lat="44.81247" lon="-0.5047">
        <ele>44.057373046875</ele>
        <time>2022-02-23T10:04:05Z</time>
      </trkpt>
      <trkpt lat="44.8125" lon="-0.50482">
        <ele>48.162902832031</ele>
        <time>2022-02-23T10:04:15Z</time>
      </trkpt>
      <trkpt lat="44.81252" lon="-0.50469">
        <ele>52.591125488281</ele>
        <time>2022-02-23T10:05:19Z</time>
      </trkpt>
      <trkpt lat="44.81258" lon="-0.50458">
        <ele>64.797302246094</ele>
        <time>2022-02-23T10:05:27Z</time>
      </trkpt>
      <trkpt lat="44.81263" lon="-0.50444">
        <ele>67.134765625</ele>
        <time>2022-02-23T10:05:32Z</time>
      </trkpt>
      <trkpt lat="44.81269" lon="-0.5043">
        <ele>71.788940429688</ele>
        <time>2022-02-23T10:05:38Z</time>
      </trkpt>
      <trkpt lat="44.81271" lon="-0.50417">
        <ele>76.635803222656</ele>
        <time>2022-02-23T10:05:45Z</time>
      </trkpt>
      <trkpt lat="44.8128" lon="-0.50409">
        <ele>78.143859863281</ele>
        <time>2022-02-23T10:05:51Z</time>
      </trkpt>
      <trkpt lat="44.81287" lon="-0.50396">
        <ele>78.66943359375</ele>
        <time>2022-02-23T10:05:58Z</time>
      </trkpt>
      <trkpt lat="44.81278" lon="-0.50404">
        <ele>71.379638671875</ele>
        <time>2022-02-23T10:07:50Z</time>
      </trkpt>
      <trkpt lat="44.81284" lon="-0.50393">
        <ele>60.787292480469</ele>
        <time>2022-02-23T10:08:56Z</time>
      </trkpt>
      <trkpt lat="44.81293" lon="-0.50389">
        <ele>69.073608398438</ele>
        <time>2022-02-23T10:10:25Z</time>
      </trkpt>
      <trkpt lat="44.81302" lon="-0.50383">
        <ele>71.823486328125</ele>
        <time>2022-02-23T10:10:37Z</time>
      </trkpt>
      <trkpt lat="44.81312" lon="-0.50385">
        <ele>72.853149414062</ele>
        <time>2022-02-23T10:10:46Z</time>
      </trkpt>
      <trkpt lat="44.81322" lon="-0.50392">
        <ele>73.771545410156</ele>
        <time>2022-02-23T10:10:54Z</time>
      </trkpt>
      <trkpt lat="44.81332" lon="-0.50394">
        <ele>74.473815917969</ele>
        <time>2022-02-23T10:11:03Z</time>
      </trkpt>
      <trkpt lat="44.81341" lon="-0.50397">
        <ele>72.778869628906</ele>
        <time>2022-02-23T10:11:15Z</time>
      </trkpt>
      <trkpt lat="44.81351" lon="-0.50399">
        <ele>74.465576171875</ele>
        <time>2022-02-23T10:12:01Z</time>
      </trkpt>
      <trkpt lat="44.81359" lon="-0.50392">
        <ele>75.716247558594</ele>
        <time>2022-02-23T10:12:07Z</time>
      </trkpt>
      <trkpt lat="44.81369" lon="-0.50386">
        <ele>76.601379394531</ele>
        <time>2022-02-23T10:12:13Z</time>
      </trkpt>
      <trkpt lat="44.81378" lon="-0.5038">
        <ele>77.683776855469</ele>
        <time>2022-02-23T10:12:19Z</time>
      </trkpt>
      <trkpt lat="44.81388" lon="-0.50382">
        <ele>78.013793945312</ele>
        <time>2022-02-23T10:12:28Z</time>
      </trkpt>
      <trkpt lat="44.81396" lon="-0.50373">
        <ele>73.703979492188</ele>
        <time>2022-02-23T10:12:36Z</time>
      </trkpt>
      <trkpt lat="44.81407" lon="-0.50376">
        <ele>74.640380859375</ele>
        <time>2022-02-23T10:12:43Z</time>
      </trkpt>
      <trkpt lat="44.81406" lon="-0.50362">
        <ele>75.940246582031</ele>
        <time>2022-02-23T10:13:03Z</time>
      </trkpt>
      <trkpt lat="44.81399" lon="-0.50355">
        <ele>76.231201171875</ele>
        <time>2022-02-23T10:13:11Z</time>
      </trkpt>
      <trkpt lat="44.81395" lon="-0.50342">
        <ele>78.278564453125</ele>
        <time>2022-02-23T10:13:17Z</time>
      </trkpt>
      <trkpt lat="44.81399" lon="-0.50328">
        <ele>80.258850097656</ele>
        <time>2022-02-23T10:13:24Z</time>
      </trkpt>
      <trkpt lat="44.814" lon="-0.50313">
        <ele>82.311706542969</ele>
        <time>2022-02-23T10:13:31Z</time>
      </trkpt>
      <trkpt lat="44.81401" lon="-0.50296">
        <ele>81.810180664062</ele>
        <time>2022-02-23T10:13:40Z</time>
      </trkpt>
      <trkpt lat="44.81399" lon="-0.50282">
        <ele>77.702819824219</ele>
        <time>2022-02-23T10:13:48Z</time>
      </trkpt>
      <trkpt lat="44.81398" lon="-0.50269">
        <ele>76.114868164062</ele>
        <time>2022-02-23T10:13:56Z</time>
      </trkpt>
      <trkpt lat="44.81396" lon="-0.50254">
        <ele>72.849365234375</ele>
        <time>2022-02-23T10:14:04Z</time>
      </trkpt>
      <trkpt lat="44.81394" lon="-0.5024">
        <ele>74.355651855469</ele>
        <time>2022-02-23T10:14:13Z</time>
      </trkpt>
      <trkpt lat="44.81394" lon="-0.50225">
        <ele>71.406127929688</ele>
        <time>2022-02-23T10:14:21Z</time>
      </trkpt>
      <trkpt lat="44.81394" lon="-0.5021">
        <ele>72.153442382812</ele>
        <time>2022-02-23T10:14:29Z</time>
      </trkpt>
      <trkpt lat="44.81393" lon="-0.50196">
        <ele>69.824157714844</ele>
        <time>2022-02-23T10:14:36Z</time>
      </trkpt>
      <trkpt lat="44.81393" lon="-0.50182">
        <ele>69.113159179688</ele>
        <time>2022-02-23T10:14:45Z</time>
      </trkpt>
      <trkpt lat="44.81394" lon="-0.50167">
        <ele>66.728515625</ele>
        <time>2022-02-23T10:14:52Z</time>
      </trkpt>
      <trkpt lat="44.81393" lon="-0.50152">
        <ele>66.4248046875</ele>
        <time>2022-02-23T10:14:59Z</time>
      </trkpt>
      <trkpt lat="44.81392" lon="-0.50139">
        <ele>63.362609863281</ele>
        <time>2022-02-23T10:15:08Z</time>
      </trkpt>
      <trkpt lat="44.81394" lon="-0.50125">
        <ele>63.500610351562</ele>
        <time>2022-02-23T10:15:16Z</time>
      </trkpt>
      <trkpt lat="44.81393" lon="-0.50111">
        <ele>58.098876953125</ele>
        <time>2022-02-23T10:15:23Z</time>
      </trkpt>
      <trkpt lat="44.81393" lon="-0.50098">
        <ele>59.585327148438</ele>
        <time>2022-02-23T10:15:29Z</time>
      </trkpt>
      <trkpt lat="44.81395" lon="-0.50084">
        <ele>60.786071777344</ele>
        <time>2022-02-23T10:15:36Z</time>
      </trkpt>
      <trkpt lat="44.81403" lon="-0.50078">
        <ele>63.239562988281</ele>
        <time>2022-02-23T10:15:44Z</time>
      </trkpt>
      <trkpt lat="44.81414" lon="-0.50081">
        <ele>59.753784179688</ele>
        <time>2022-02-23T10:15:51Z</time>
      </trkpt>
      <trkpt lat="44.81424" lon="-0.50077">
        <ele>60.566528320312</ele>
        <time>2022-02-23T10:16:00Z</time>
      </trkpt>
      <trkpt lat="44.81432" lon="-0.5007">
        <ele>60.6162109375</ele>
        <time>2022-02-23T10:16:06Z</time>
      </trkpt>
      <trkpt lat="44.81442" lon="-0.50064">
        <ele>56.380737304688</ele>
        <time>2022-02-23T10:16:15Z</time>
      </trkpt>
      <trkpt lat="44.81446" lon="-0.50052">
        <ele>55.972290039062</ele>
        <time>2022-02-23T10:16:27Z</time>
      </trkpt>
      <trkpt lat="44.81452" lon="-0.50041">
        <ele>53.34716796875</ele>
        <time>2022-02-23T10:16:40Z</time>
      </trkpt>
      <trkpt lat="44.81455" lon="-0.50026">
        <ele>47.751159667969</ele>
        <time>2022-02-23T10:17:03Z</time>
      </trkpt>
      <trkpt lat="44.81456" lon="-0.50013">
        <ele>44.687927246094</ele>
        <time>2022-02-23T10:17:09Z</time>
      </trkpt>
      <trkpt lat="44.8146" lon="-0.50001">
        <ele>45.713745117188</ele>
        <time>2022-02-23T10:17:15Z</time>
      </trkpt>
      <trkpt lat="44.81468" lon="-0.49991">
        <ele>42.189819335938</ele>
        <time>2022-02-23T10:17:21Z</time>
      </trkpt>
      <trkpt lat="44.8147" lon="-0.49976">
        <ele>44.034118652344</ele>
        <time>2022-02-23T10:17:30Z</time>
      </trkpt>
      <trkpt lat="44.81475" lon="-0.49964">
        <ele>45.590393066406</ele>
        <time>2022-02-23T10:17:39Z</time>
      </trkpt>
      <trkpt lat="44.81483" lon="-0.49956">
        <ele>43.816284179688</ele>
        <time>2022-02-23T10:17:50Z</time>
      </trkpt>
      <trkpt lat="44.81487" lon="-0.49944">
        <ele>36.623413085938</ele>
        <time>2022-02-23T10:17:59Z</time>
      </trkpt>
      <trkpt lat="44.81489" lon="-0.49931">
        <ele>37.836303710938</ele>
        <time>2022-02-23T10:18:05Z</time>
      </trkpt>
      <trkpt lat="44.8149" lon="-0.49917">
        <ele>35.038696289062</ele>
        <time>2022-02-23T10:18:11Z</time>
      </trkpt>
      <trkpt lat="44.81497" lon="-0.49902">
        <ele>29.765014648438</ele>
        <time>2022-02-23T10:18:21Z</time>
      </trkpt>
      <trkpt lat="44.81501" lon="-0.49888">
        <ele>25.151306152344</ele>
        <time>2022-02-23T10:18:29Z</time>
      </trkpt>
      <trkpt lat="44.81504" lon="-0.49874">
        <ele>26.124816894531</ele>
        <time>2022-02-23T10:18:39Z</time>
      </trkpt>
      <trkpt lat="44.81515" lon="-0.49872">
        <ele>20.263061523438</ele>
        <time>2022-02-23T10:19:13Z</time>
      </trkpt>
      <trkpt lat="44.81524" lon="-0.49874">
        <ele>24.885498046875</ele>
        <time>2022-02-23T10:19:21Z</time>
      </trkpt>
      <trkpt lat="44.81534" lon="-0.49872">
        <ele>26.73095703125</ele>
        <time>2022-02-23T10:19:46Z</time>
      </trkpt>
      <trkpt lat="44.81542" lon="-0.49879">
        <ele>29.74169921875</ele>
        <time>2022-02-23T10:19:52Z</time>
      </trkpt>
      <trkpt lat="44.81551" lon="-0.49888">
        <ele>32.291809082031</ele>
        <time>2022-02-23T10:19:59Z</time>
      </trkpt>
      <trkpt lat="44.81559" lon="-0.49895">
        <ele>30.109130859375</ele>
        <time>2022-02-23T10:20:06Z</time>
      </trkpt>
      <trkpt lat="44.81567" lon="-0.49905">
        <ele>26.220031738281</ele>
        <time>2022-02-23T10:20:13Z</time>
      </trkpt>
      <trkpt lat="44.81573" lon="-0.49914">
        <ele>23.803649902344</ele>
        <time>2022-02-23T10:20:20Z</time>
      </trkpt>
      <trkpt lat="44.81581" lon="-0.49926">
        <ele>26.057312011719</ele>
        <time>2022-02-23T10:20:31Z</time>
      </trkpt>
      <trkpt lat="44.81589" lon="-0.49934">
        <ele>24.649475097656</ele>
        <time>2022-02-23T10:20:42Z</time>
      </trkpt>
      <trkpt lat="44.81598" lon="-0.49938">
        <ele>24.454711914062</ele>
        <time>2022-02-23T10:20:48Z</time>
      </trkpt>
      <trkpt lat="44.81606" lon="-0.49945">
        <ele>22.815124511719</ele>
        <time>2022-02-23T10:20:55Z</time>
      </trkpt>
      <trkpt lat="44.81617" lon="-0.4995">
        <ele>23.122497558594</ele>
        <time>2022-02-23T10:21:05Z</time>
      </trkpt>
      <trkpt lat="44.8162" lon="-0.49964">
        <ele>22.2568359375</ele>
        <time>2022-02-23T10:21:15Z</time>
      </trkpt>
      <trkpt lat="44.81624" lon="-0.49975">
        <ele>25.37646484375</ele>
        <time>2022-02-23T10:21:27Z</time>
      </trkpt>
      <trkpt lat="44.81629" lon="-0.49988">
        <ele>26.909912109375</ele>
        <time>2022-02-23T10:21:36Z</time>
      </trkpt>
      <trkpt lat="44.81629" lon="-0.50002">
        <ele>30.75048828125</ele>
        <time>2022-02-23T10:21:52Z</time>
      </trkpt>
      <trkpt lat="44.81636" lon="-0.50011">
        <ele>32.570129394531</ele>
        <time>2022-02-23T10:22:04Z</time>
      </trkpt>
      <trkpt lat="44.81643" lon="-0.50021">
        <ele>35.002807617188</ele>
        <time>2022-02-23T10:22:12Z</time>
      </trkpt>
      <trkpt lat="44.81648" lon="-0.50032">
        <ele>29.647155761719</ele>
        <time>2022-02-23T10:22:27Z</time>
      </trkpt>
      <trkpt lat="44.81651" lon="-0.50044">
        <ele>30.264038085938</ele>
        <time>2022-02-23T10:22:35Z</time>
      </trkpt>
      <trkpt lat="44.81658" lon="-0.50056">
        <ele>33.330627441406</ele>
        <time>2022-02-23T10:22:43Z</time>
      </trkpt>
      <trkpt lat="44.81664" lon="-0.50068">
        <ele>38.376953125</ele>
        <time>2022-02-23T10:22:56Z</time>
      </trkpt>
      <trkpt lat="44.81671" lon="-0.50077">
        <ele>46.617919921875</ele>
        <time>2022-02-23T10:23:03Z</time>
      </trkpt>
      <trkpt lat="44.81678" lon="-0.50088">
        <ele>48.966674804688</ele>
        <time>2022-02-23T10:23:13Z</time>
      </trkpt>
      <trkpt lat="44.81683" lon="-0.50103">
        <ele>46.720275878906</ele>
        <time>2022-02-23T10:23:19Z</time>
      </trkpt>
      <trkpt lat="44.81691" lon="-0.50108">
        <ele>49.920959472656</ele>
        <time>2022-02-23T10:23:33Z</time>
      </trkpt>
      <trkpt lat="44.81697" lon="-0.50119">
        <ele>40.829406738281</ele>
        <time>2022-02-23T10:23:47Z</time>
      </trkpt>
      <trkpt lat="44.81702" lon="-0.50131">
        <ele>45.060852050781</ele>
        <time>2022-02-23T10:23:55Z</time>
      </trkpt>
      <trkpt lat="44.81707" lon="-0.50143">
        <ele>50.267639160156</ele>
        <time>2022-02-23T10:24:02Z</time>
      </trkpt>
      <trkpt lat="44.81714" lon="-0.50154">
        <ele>53.991760253906</ele>
        <time>2022-02-23T10:24:09Z</time>
      </trkpt>
      <trkpt lat="44.81715" lon="-0.50172">
        <ele>54.505615234375</ele>
        <time>2022-02-23T10:24:19Z</time>
      </trkpt>
      <trkpt lat="44.81717" lon="-0.50186">
        <ele>54.097290039062</ele>
        <time>2022-02-23T10:24:27Z</time>
      </trkpt>
      <trkpt lat="44.81723" lon="-0.50196">
        <ele>56.956359863281</ele>
        <time>2022-02-23T10:24:34Z</time>
      </trkpt>
      <trkpt lat="44.81726" lon="-0.50209">
        <ele>56.275817871094</ele>
        <time>2022-02-23T10:24:41Z</time>
      </trkpt>
      <trkpt lat="44.81731" lon="-0.50224">
        <ele>58.401000976562</ele>
        <time>2022-02-23T10:24:51Z</time>
      </trkpt>
      <trkpt lat="44.8174" lon="-0.5022">
        <ele>67.881958007812</ele>
        <time>2022-02-23T10:27:14Z</time>
      </trkpt>
      <trkpt lat="44.81744" lon="-0.50208">
        <ele>64.645751953125</ele>
        <time>2022-02-23T10:27:23Z</time>
      </trkpt>
      <trkpt lat="44.81752" lon="-0.50197">
        <ele>62.2744140625</ele>
        <time>2022-02-23T10:27:45Z</time>
      </trkpt>
      <trkpt lat="44.81759" lon="-0.50188">
        <ele>62.673095703125</ele>
        <time>2022-02-23T10:27:52Z</time>
      </trkpt>
      <trkpt lat="44.81767" lon="-0.50179">
        <ele>64.96240234375</ele>
        <time>2022-02-23T10:28:12Z</time>
      </trkpt>
      <trkpt lat="44.81775" lon="-0.50168">
        <ele>64.350402832031</ele>
        <time>2022-02-23T10:28:19Z</time>
      </trkpt>
      <trkpt lat="44.81782" lon="-0.50159">
        <ele>62.751647949219</ele>
        <time>2022-02-23T10:28:27Z</time>
      </trkpt>
      <trkpt lat="44.81791" lon="-0.50147">
        <ele>59.564331054688</ele>
        <time>2022-02-23T10:28:47Z</time>
      </trkpt>
      <trkpt lat="44.81796" lon="-0.50135">
        <ele>59.279357910156</ele>
        <time>2022-02-23T10:28:54Z</time>
      </trkpt>
      <trkpt lat="44.81801" lon="-0.50121">
        <ele>57.532775878906</ele>
        <time>2022-02-23T10:29:02Z</time>
      </trkpt>
      <trkpt lat="44.81808" lon="-0.50111">
        <ele>57.066589355469</ele>
        <time>2022-02-23T10:29:10Z</time>
      </trkpt>
      <trkpt lat="44.81814" lon="-0.50098">
        <ele>58.034118652344</ele>
        <time>2022-02-23T10:29:17Z</time>
      </trkpt>
      <trkpt lat="44.81821" lon="-0.50088">
        <ele>59.681030273438</ele>
        <time>2022-02-23T10:29:24Z</time>
      </trkpt>
      <trkpt lat="44.81829" lon="-0.50079">
        <ele>59.852966308594</ele>
        <time>2022-02-23T10:29:33Z</time>
      </trkpt>
      <trkpt lat="44.81837" lon="-0.5007">
        <ele>57.467712402344</ele>
        <time>2022-02-23T10:29:40Z</time>
      </trkpt>
      <trkpt lat="44.81847" lon="-0.5006">
        <ele>58.692810058594</ele>
        <time>2022-02-23T10:29:50Z</time>
      </trkpt>
      <trkpt lat="44.81857" lon="-0.50055">
        <ele>59.097839355469</ele>
        <time>2022-02-23T10:29:57Z</time>
      </trkpt>
      <trkpt lat="44.81867" lon="-0.50049">
        <ele>56.519775390625</ele>
        <time>2022-02-23T10:30:03Z</time>
      </trkpt>
      <trkpt lat="44.81877" lon="-0.50047">
        <ele>53.38623046875</ele>
        <time>2022-02-23T10:30:10Z</time>
      </trkpt>
      <trkpt lat="44.81886" lon="-0.50041">
        <ele>55.86865234375</ele>
        <time>2022-02-23T10:30:20Z</time>
      </trkpt>
      <trkpt lat="44.8189" lon="-0.50027">
        <ele>60.177551269531</ele>
        <time>2022-02-23T10:30:33Z</time>
      </trkpt>
      <trkpt lat="44.81888" lon="-0.50013">
        <ele>63.129699707031</ele>
        <time>2022-02-23T10:31:01Z</time>
      </trkpt>
      <trkpt lat="44.81883" lon="-0.50001">
        <ele>63.244750976562</ele>
        <time>2022-02-23T10:31:05Z</time>
      </trkpt>
      <trkpt lat="44.81879" lon="-0.49987">
        <ele>60.8525390625</ele>
        <time>2022-02-23T10:31:10Z</time>
      </trkpt>
      <trkpt lat="44.81877" lon="-0.49972">
        <ele>58.062438964844</ele>
        <time>2022-02-23T10:31:19Z</time>
      </trkpt>
      <trkpt lat="44.81878" lon="-0.49959">
        <ele>61.534057617188</ele>
        <time>2022-02-23T10:31:30Z</time>
      </trkpt>
      <trkpt lat="44.81888" lon="-0.49953">
        <ele>63.070495605469</ele>
        <time>2022-02-23T10:31:38Z</time>
      </trkpt>
      <trkpt lat="44.81899" lon="-0.49946">
        <ele>64.435241699219</ele>
        <time>2022-02-23T10:31:46Z</time>
      </trkpt>
      <trkpt lat="44.81907" lon="-0.49936">
        <ele>60.426635742188</ele>
        <time>2022-02-23T10:31:54Z</time>
      </trkpt>
      <trkpt lat="44.81909" lon="-0.49923">
        <ele>59.543701171875</ele>
        <time>2022-02-23T10:32:02Z</time>
      </trkpt>
      <trkpt lat="44.81918" lon="-0.49913">
        <ele>56.763732910156</ele>
        <time>2022-02-23T10:32:10Z</time>
      </trkpt>
      <trkpt lat="44.81928" lon="-0.49912">
        <ele>58.017761230469</ele>
        <time>2022-02-23T10:32:18Z</time>
      </trkpt>
      <trkpt lat="44.81937" lon="-0.49921">
        <ele>54.528869628906</ele>
        <time>2022-02-23T10:32:32Z</time>
      </trkpt>
      <trkpt lat="44.81947" lon="-0.49921">
        <ele>54.689575195312</ele>
        <time>2022-02-23T10:32:39Z</time>
      </trkpt>
      <trkpt lat="44.81956" lon="-0.49914">
        <ele>51.900085449219</ele>
        <time>2022-02-23T10:32:46Z</time>
      </trkpt>
      <trkpt lat="44.81965" lon="-0.49907">
        <ele>50.8095703125</ele>
        <time>2022-02-23T10:32:55Z</time>
      </trkpt>
      <trkpt lat="44.81974" lon="-0.49902">
        <ele>53.774475097656</ele>
        <time>2022-02-23T10:33:03Z</time>
      </trkpt>
      <trkpt lat="44.81984" lon="-0.49894">
        <ele>57.099060058594</ele>
        <time>2022-02-23T10:33:11Z</time>
      </trkpt>
      <trkpt lat="44.81994" lon="-0.49892">
        <ele>59.893920898438</ele>
        <time>2022-02-23T10:33:22Z</time>
      </trkpt>
      <trkpt lat="44.82004" lon="-0.4989">
        <ele>62.018493652344</ele>
        <time>2022-02-23T10:33:28Z</time>
      </trkpt>
      <trkpt lat="44.82015" lon="-0.49884">
        <ele>61.725036621094</ele>
        <time>2022-02-23T10:33:35Z</time>
      </trkpt>
      <trkpt lat="44.8202" lon="-0.49866">
        <ele>63.588806152344</ele>
        <time>2022-02-23T10:33:48Z</time>
      </trkpt>
      <trkpt lat="44.8202" lon="-0.49851">
        <ele>62.412902832031</ele>
        <time>2022-02-23T10:34:54Z</time>
      </trkpt>
      <trkpt lat="44.82018" lon="-0.49837">
        <ele>60.564697265625</ele>
        <time>2022-02-23T10:35:01Z</time>
      </trkpt>
      <trkpt lat="44.82021" lon="-0.49824">
        <ele>57.194580078125</ele>
        <time>2022-02-23T10:35:09Z</time>
      </trkpt>
      <trkpt lat="44.82028" lon="-0.49808">
        <ele>56.416687011719</ele>
        <time>2022-02-23T10:35:24Z</time>
      </trkpt>
      <trkpt lat="44.82035" lon="-0.49798">
        <ele>52.743896484375</ele>
        <time>2022-02-23T10:35:32Z</time>
      </trkpt>
      <trkpt lat="44.82047" lon="-0.49785">
        <ele>58.83349609375</ele>
        <time>2022-02-23T10:36:10Z</time>
      </trkpt>
      <trkpt lat="44.82055" lon="-0.49772">
        <ele>61.518249511719</ele>
        <time>2022-02-23T10:36:16Z</time>
      </trkpt>
      <trkpt lat="44.82065" lon="-0.49762">
        <ele>58.97119140625</ele>
        <time>2022-02-23T10:36:22Z</time>
      </trkpt>
      <trkpt lat="44.82073" lon="-0.49753">
        <ele>58.647094726562</ele>
        <time>2022-02-23T10:36:29Z</time>
      </trkpt>
      <trkpt lat="44.82082" lon="-0.49749">
        <ele>59.954956054688</ele>
        <time>2022-02-23T10:36:35Z</time>
      </trkpt>
      <trkpt lat="44.82091" lon="-0.49743">
        <ele>58.289733886719</ele>
        <time>2022-02-23T10:36:41Z</time>
      </trkpt>
      <trkpt lat="44.82101" lon="-0.49736">
        <ele>63.384460449219</ele>
        <time>2022-02-23T10:36:47Z</time>
      </trkpt>
      <trkpt lat="44.82112" lon="-0.49735">
        <ele>63.840393066406</ele>
        <time>2022-02-23T10:36:53Z</time>
      </trkpt>
      <trkpt lat="44.8212" lon="-0.49744">
        <ele>62.64306640625</ele>
        <time>2022-02-23T10:37:01Z</time>
      </trkpt>
      <trkpt lat="44.82125" lon="-0.49755">
        <ele>63.631591796875</ele>
        <time>2022-02-23T10:37:10Z</time>
      </trkpt>
      <trkpt lat="44.82133" lon="-0.49766">
        <ele>62.909606933594</ele>
        <time>2022-02-23T10:37:18Z</time>
      </trkpt>
      <trkpt lat="44.82137" lon="-0.49777">
        <ele>62.177551269531</ele>
        <time>2022-02-23T10:37:25Z</time>
      </trkpt>
      <trkpt lat="44.82143" lon="-0.49791">
        <ele>61.955139160156</ele>
        <time>2022-02-23T10:37:33Z</time>
      </trkpt>
      <trkpt lat="44.82146" lon="-0.49805">
        <ele>63.784484863281</ele>
        <time>2022-02-23T10:37:41Z</time>
      </trkpt>
      <trkpt lat="44.82152" lon="-0.49818">
        <ele>61.454833984375</ele>
        <time>2022-02-23T10:37:49Z</time>
      </trkpt>
      <trkpt lat="44.8216" lon="-0.49824">
        <ele>61.821105957031</ele>
        <time>2022-02-23T10:37:57Z</time>
      </trkpt>
      <trkpt lat="44.82164" lon="-0.49836">
        <ele>63.533447265625</ele>
        <time>2022-02-23T10:38:02Z</time>
      </trkpt>
      <trkpt lat="44.82174" lon="-0.49849">
        <ele>65.21533203125</ele>
        <time>2022-02-23T10:38:12Z</time>
      </trkpt>
      <trkpt lat="44.82183" lon="-0.49859">
        <ele>66.151733398438</ele>
        <time>2022-02-23T10:38:19Z</time>
      </trkpt>
      <trkpt lat="44.82192" lon="-0.49865">
        <ele>68.593139648438</ele>
        <time>2022-02-23T10:38:26Z</time>
      </trkpt>
      <trkpt lat="44.82195" lon="-0.49877">
        <ele>68.216857910156</ele>
        <time>2022-02-23T10:38:38Z</time>
      </trkpt>
      <trkpt lat="44.82201" lon="-0.49888">
        <ele>68.844421386719</ele>
        <time>2022-02-23T10:38:55Z</time>
      </trkpt>
      <trkpt lat="44.8221" lon="-0.49883">
        <ele>70.272705078125</ele>
        <time>2022-02-23T10:39:05Z</time>
      </trkpt>
      <trkpt lat="44.82221" lon="-0.49878">
        <ele>70.086853027344</ele>
        <time>2022-02-23T10:39:14Z</time>
      </trkpt>
      <trkpt lat="44.82232" lon="-0.49878">
        <ele>69.590637207031</ele>
        <time>2022-02-23T10:39:22Z</time>
      </trkpt>
      <trkpt lat="44.8224" lon="-0.49884">
        <ele>67.6875</ele>
        <time>2022-02-23T10:39:28Z</time>
      </trkpt>
      <trkpt lat="44.82247" lon="-0.49894">
        <ele>67.917419433594</ele>
        <time>2022-02-23T10:39:35Z</time>
      </trkpt>
      <trkpt lat="44.82254" lon="-0.49902">
        <ele>67.432373046875</ele>
        <time>2022-02-23T10:39:41Z</time>
      </trkpt>
      <trkpt lat="44.82263" lon="-0.49913">
        <ele>67.079772949219</ele>
        <time>2022-02-23T10:39:49Z</time>
      </trkpt>
      <trkpt lat="44.82269" lon="-0.49924">
        <ele>67.361389160156</ele>
        <time>2022-02-23T10:39:56Z</time>
      </trkpt>
      <trkpt lat="44.82275" lon="-0.49933">
        <ele>66.14013671875</ele>
        <time>2022-02-23T10:40:03Z</time>
      </trkpt>
      <trkpt lat="44.82279" lon="-0.49947">
        <ele>66.084411621094</ele>
        <time>2022-02-23T10:40:12Z</time>
      </trkpt>
      <trkpt lat="44.82286" lon="-0.49956">
        <ele>68.546264648438</ele>
        <time>2022-02-23T10:40:21Z</time>
      </trkpt>
      <trkpt lat="44.82294" lon="-0.49967">
        <ele>72.518188476562</ele>
        <time>2022-02-23T10:40:28Z</time>
      </trkpt>
      <trkpt lat="44.82301" lon="-0.49979">
        <ele>74.741821289062</ele>
        <time>2022-02-23T10:40:37Z</time>
      </trkpt>
      <trkpt lat="44.8231" lon="-0.49988">
        <ele>73.002868652344</ele>
        <time>2022-02-23T10:40:45Z</time>
      </trkpt>
      <trkpt lat="44.82318" lon="-0.5">
        <ele>72.410888671875</ele>
        <time>2022-02-23T10:40:53Z</time>
      </trkpt>
      <trkpt lat="44.82326" lon="-0.50007">
        <ele>74.0615234375</ele>
        <time>2022-02-23T10:40:59Z</time>
      </trkpt>
      <trkpt lat="44.82334" lon="-0.50013">
        <ele>71.816467285156</ele>
        <time>2022-02-23T10:41:09Z</time>
      </trkpt>
      <trkpt lat="44.82335" lon="-0.50027">
        <ele>67.906127929688</ele>
        <time>2022-02-23T10:41:18Z</time>
      </trkpt>
      <trkpt lat="44.82339" lon="-0.50038">
        <ele>68.078491210938</ele>
        <time>2022-02-23T10:41:25Z</time>
      </trkpt>
      <trkpt lat="44.82348" lon="-0.50047">
        <ele>63.999084472656</ele>
        <time>2022-02-23T10:41:33Z</time>
      </trkpt>
      <trkpt lat="44.8235" lon="-0.5006">
        <ele>61.940734863281</ele>
        <time>2022-02-23T10:41:41Z</time>
      </trkpt>
      <trkpt lat="44.82354" lon="-0.50074">
        <ele>66.365356445312</ele>
        <time>2022-02-23T10:41:49Z</time>
      </trkpt>
      <trkpt lat="44.82356" lon="-0.50088">
        <ele>68.477294921875</ele>
        <time>2022-02-23T10:41:57Z</time>
      </trkpt>
      <trkpt lat="44.82361" lon="-0.501">
        <ele>69.165222167969</ele>
        <time>2022-02-23T10:42:04Z</time>
      </trkpt>
      <trkpt lat="44.82363" lon="-0.50113">
        <ele>68.521118164062</ele>
        <time>2022-02-23T10:42:14Z</time>
      </trkpt>
      <trkpt lat="44.82366" lon="-0.50126">
        <ele>69.475341796875</ele>
        <time>2022-02-23T10:42:23Z</time>
      </trkpt>
      <trkpt lat="44.82371" lon="-0.50139">
        <ele>65.747192382812</ele>
        <time>2022-02-23T10:42:31Z</time>
      </trkpt>
      <trkpt lat="44.82374" lon="-0.50152">
        <ele>68.191650390625</ele>
        <time>2022-02-23T10:42:37Z</time>
      </trkpt>
      <trkpt lat="44.82377" lon="-0.50166">
        <ele>65.037841796875</ele>
        <time>2022-02-23T10:42:45Z</time>
      </trkpt>
      <trkpt lat="44.82379" lon="-0.50179">
        <ele>65.512329101562</ele>
        <time>2022-02-23T10:42:53Z</time>
      </trkpt>
      <trkpt lat="44.82381" lon="-0.50193">
        <ele>63.1982421875</ele>
        <time>2022-02-23T10:43:03Z</time>
      </trkpt>
      <trkpt lat="44.82381" lon="-0.50206">
        <ele>62.448974609375</ele>
        <time>2022-02-23T10:43:22Z</time>
      </trkpt>
      <trkpt lat="44.82381" lon="-0.50221">
        <ele>62.885864257812</ele>
        <time>2022-02-23T10:43:50Z</time>
      </trkpt>
      <trkpt lat="44.8238" lon="-0.50236">
        <ele>66.019653320312</ele>
        <time>2022-02-23T10:43:57Z</time>
      </trkpt>
      <trkpt lat="44.82374" lon="-0.50246">
        <ele>62.263244628906</ele>
        <time>2022-02-23T10:44:07Z</time>
      </trkpt>
      <trkpt lat="44.82364" lon="-0.5025">
        <ele>62.394165039062</ele>
        <time>2022-02-23T10:44:17Z</time>
      </trkpt>
      <trkpt lat="44.82356" lon="-0.50255">
        <ele>65.570129394531</ele>
        <time>2022-02-23T10:44:24Z</time>
      </trkpt>
      <trkpt lat="44.82346" lon="-0.50261">
        <ele>65.853820800781</ele>
        <time>2022-02-23T10:44:34Z</time>
      </trkpt>
      <trkpt lat="44.82335" lon="-0.50264">
        <ele>66.605346679688</ele>
        <time>2022-02-23T10:44:46Z</time>
      </trkpt>
      <trkpt lat="44.82326" lon="-0.5027">
        <ele>62.621032714844</ele>
        <time>2022-02-23T10:44:52Z</time>
      </trkpt>
      <trkpt lat="44.8232" lon="-0.50283">
        <ele>58.909606933594</ele>
        <time>2022-02-23T10:44:59Z</time>
      </trkpt>
      <trkpt lat="44.8232" lon="-0.50296">
        <ele>58.390625</ele>
        <time>2022-02-23T10:45:05Z</time>
      </trkpt>
      <trkpt lat="44.8231" lon="-0.50308">
        <ele>54.264038085938</ele>
        <time>2022-02-23T10:45:16Z</time>
      </trkpt>
      <trkpt lat="44.82308" lon="-0.50321">
        <ele>54.596435546875</ele>
        <time>2022-02-23T10:45:24Z</time>
      </trkpt>
      <trkpt lat="44.82305" lon="-0.50334">
        <ele>54.930725097656</ele>
        <time>2022-02-23T10:45:31Z</time>
      </trkpt>
      <trkpt lat="44.82303" lon="-0.50349">
        <ele>56.743774414062</ele>
        <time>2022-02-23T10:45:40Z</time>
      </trkpt>
      <trkpt lat="44.82303" lon="-0.50362">
        <ele>57.629821777344</ele>
        <time>2022-02-23T10:45:47Z</time>
      </trkpt>
      <trkpt lat="44.82304" lon="-0.50377">
        <ele>58.230651855469</ele>
        <time>2022-02-23T10:45:56Z</time>
      </trkpt>
      <trkpt lat="44.82303" lon="-0.50392">
        <ele>55.251831054688</ele>
        <time>2022-02-23T10:46:04Z</time>
      </trkpt>
      <trkpt lat="44.82301" lon="-0.50405">
        <ele>55.16552734375</ele>
        <time>2022-02-23T10:46:16Z</time>
      </trkpt>
      <trkpt lat="44.82309" lon="-0.50416">
        <ele>54.3349609375</ele>
        <time>2022-02-23T10:46:44Z</time>
      </trkpt>
      <trkpt lat="44.82317" lon="-0.50432">
        <ele>51.729248046875</ele>
        <time>2022-02-23T10:46:56Z</time>
      </trkpt>
      <trkpt lat="44.82322" lon="-0.50443">
        <ele>51.606567382812</ele>
        <time>2022-02-23T10:47:04Z</time>
      </trkpt>
      <trkpt lat="44.82328" lon="-0.50453">
        <ele>49.032836914062</ele>
        <time>2022-02-23T10:47:13Z</time>
      </trkpt>
      <trkpt lat="44.82337" lon="-0.50463">
        <ele>47.805297851562</ele>
        <time>2022-02-23T10:47:22Z</time>
      </trkpt>
      <trkpt lat="44.82343" lon="-0.50473">
        <ele>41.402893066406</ele>
        <time>2022-02-23T10:47:32Z</time>
      </trkpt>
      <trkpt lat="44.82349" lon="-0.50484">
        <ele>41.890625</ele>
        <time>2022-02-23T10:47:40Z</time>
      </trkpt>
      <trkpt lat="44.82357" lon="-0.50491">
        <ele>42.594299316406</ele>
        <time>2022-02-23T10:47:48Z</time>
      </trkpt>
      <trkpt lat="44.82365" lon="-0.50501">
        <ele>42.615966796875</ele>
        <time>2022-02-23T10:47:57Z</time>
      </trkpt>
      <trkpt lat="44.82372" lon="-0.50512">
        <ele>47.584899902344</ele>
        <time>2022-02-23T10:48:06Z</time>
      </trkpt>
      <trkpt lat="44.82381" lon="-0.50521">
        <ele>41.934997558594</ele>
        <time>2022-02-23T10:48:17Z</time>
      </trkpt>
      <trkpt lat="44.82387" lon="-0.50532">
        <ele>38.151672363281</ele>
        <time>2022-02-23T10:48:24Z</time>
      </trkpt>
      <trkpt lat="44.82394" lon="-0.50542">
        <ele>33.331604003906</ele>
        <time>2022-02-23T10:48:32Z</time>
      </trkpt>
      <trkpt lat="44.82401" lon="-0.50552">
        <ele>33.318054199219</ele>
        <time>2022-02-23T10:48:39Z</time>
      </trkpt>
      <trkpt lat="44.82405" lon="-0.50565">
        <ele>32.348266601562</ele>
        <time>2022-02-23T10:48:48Z</time>
      </trkpt>
      <trkpt lat="44.82409" lon="-0.50577">
        <ele>32.412231445312</ele>
        <time>2022-02-23T10:48:56Z</time>
      </trkpt>
      <trkpt lat="44.82415" lon="-0.50589">
        <ele>37.141296386719</ele>
        <time>2022-02-23T10:49:05Z</time>
      </trkpt>
      <trkpt lat="44.82425" lon="-0.50593">
        <ele>28.952819824219</ele>
        <time>2022-02-23T10:49:15Z</time>
      </trkpt>
      <trkpt lat="44.82434" lon="-0.50598">
        <ele>30.133483886719</ele>
        <time>2022-02-23T10:49:25Z</time>
      </trkpt>
      <trkpt lat="44.82444" lon="-0.50604">
        <ele>29.11669921875</ele>
        <time>2022-02-23T10:49:33Z</time>
      </trkpt>
      <trkpt lat="44.82454" lon="-0.50606">
        <ele>31.083068847656</ele>
        <time>2022-02-23T10:49:42Z</time>
      </trkpt>
      <trkpt lat="44.82464" lon="-0.50611">
        <ele>26.133911132812</ele>
        <time>2022-02-23T10:49:54Z</time>
      </trkpt>
      <trkpt lat="44.8247" lon="-0.50621">
        <ele>25.008544921875</ele>
        <time>2022-02-23T10:50:05Z</time>
      </trkpt>
      <trkpt lat="44.82474" lon="-0.50634">
        <ele>24.17529296875</ele>
        <time>2022-02-23T10:50:10Z</time>
      </trkpt>
      <trkpt lat="44.82475" lon="-0.50648">
        <ele>22.75830078125</ele>
        <time>2022-02-23T10:50:15Z</time>
      </trkpt>
      <trkpt lat="44.82476" lon="-0.50664">
        <ele>21.080993652344</ele>
        <time>2022-02-23T10:50:21Z</time>
      </trkpt>
      <trkpt lat="44.82469" lon="-0.50675">
        <ele>20.968688964844</ele>
        <time>2022-02-23T10:50:30Z</time>
      </trkpt>
      <trkpt lat="44.8247" lon="-0.50692">
        <ele>21.032531738281</ele>
        <time>2022-02-23T10:50:38Z</time>
      </trkpt>
      <trkpt lat="44.8247" lon="-0.50706">
        <ele>22.40478515625</ele>
        <time>2022-02-23T10:50:48Z</time>
      </trkpt>
      <trkpt lat="44.82474" lon="-0.50721">
        <ele>24.471740722656</ele>
        <time>2022-02-23T10:50:53Z</time>
      </trkpt>
      <trkpt lat="44.82473" lon="-0.50733">
        <ele>24.160217285156</ele>
        <time>2022-02-23T10:50:58Z</time>
      </trkpt>
      <trkpt lat="44.82477" lon="-0.50746">
        <ele>23.279052734375</ele>
        <time>2022-02-23T10:51:06Z</time>
      </trkpt>
      <trkpt lat="44.82479" lon="-0.50759">
        <ele>24.957214355469</ele>
        <time>2022-02-23T10:51:14Z</time>
      </trkpt>
      <trkpt lat="44.82486" lon="-0.50772">
        <ele>21.712890625</ele>
        <time>2022-02-23T10:51:22Z</time>
      </trkpt>
      <trkpt lat="44.82491" lon="-0.50784">
        <ele>21.454467773438</ele>
        <time>2022-02-23T10:51:28Z</time>
      </trkpt>
      <trkpt lat="44.82493" lon="-0.50799">
        <ele>20.503967285156</ele>
        <time>2022-02-23T10:51:36Z</time>
      </trkpt>
      <trkpt lat="44.82496" lon="-0.50813">
        <ele>18.772827148438</ele>
        <time>2022-02-23T10:51:43Z</time>
      </trkpt>
      <trkpt lat="44.82505" lon="-0.5082">
        <ele>19.47412109375</ele>
        <time>2022-02-23T10:51:52Z</time>
      </trkpt>
      <trkpt lat="44.82515" lon="-0.50822">
        <ele>17.977661132812</ele>
        <time>2022-02-23T10:52:01Z</time>
      </trkpt>
      <trkpt lat="44.82524" lon="-0.5082">
        <ele>10.689208984375</ele>
        <time>2022-02-23T10:52:14Z</time>
      </trkpt>
      <trkpt lat="44.82534" lon="-0.50819">
        <ele>12.355529785156</ele>
        <time>2022-02-23T10:52:29Z</time>
      </trkpt>
      <trkpt lat="44.82542" lon="-0.50814">
        <ele>13.256896972656</ele>
        <time>2022-02-23T10:52:40Z</time>
      </trkpt>
      <trkpt lat="44.82551" lon="-0.50819">
        <ele>15.391723632812</ele>
        <time>2022-02-23T10:52:46Z</time>
      </trkpt>
      <trkpt lat="44.8256" lon="-0.50821">
        <ele>15.850952148438</ele>
        <time>2022-02-23T10:52:56Z</time>
      </trkpt>
      <trkpt lat="44.82572" lon="-0.50814">
        <ele>16.373352050781</ele>
        <time>2022-02-23T10:53:02Z</time>
      </trkpt>
      <trkpt lat="44.8258" lon="-0.50802">
        <ele>17.50732421875</ele>
        <time>2022-02-23T10:53:12Z</time>
      </trkpt>
      <trkpt lat="44.8259" lon="-0.50794">
        <ele>10.731750488281</ele>
        <time>2022-02-23T10:53:19Z</time>
      </trkpt>
      <trkpt lat="44.82597" lon="-0.50783">
        <ele>12.392272949219</ele>
        <time>2022-02-23T10:53:24Z</time>
      </trkpt>
      <trkpt lat="44.82602" lon="-0.50767">
        <ele>8.675048828125</ele>
        <time>2022-02-23T10:53:31Z</time>
      </trkpt>
      <trkpt lat="44.82611" lon="-0.50766">
        <ele>11.058532714844</ele>
        <time>2022-02-23T10:53:39Z</time>
      </trkpt>
      <trkpt lat="44.82621" lon="-0.50762">
        <ele>11.693725585938</ele>
        <time>2022-02-23T10:53:49Z</time>
      </trkpt>
      <trkpt lat="44.82628" lon="-0.5075">
        <ele>17.484313964844</ele>
        <time>2022-02-23T10:53:58Z</time>
      </trkpt>
      <trkpt lat="44.82637" lon="-0.50743">
        <ele>22.55029296875</ele>
        <time>2022-02-23T10:54:08Z</time>
      </trkpt>
      <trkpt lat="44.82643" lon="-0.50732">
        <ele>23.666625976562</ele>
        <time>2022-02-23T10:54:18Z</time>
      </trkpt>
      <trkpt lat="44.8265" lon="-0.50722">
        <ele>27.653930664062</ele>
        <time>2022-02-23T10:54:25Z</time>
      </trkpt>
      <trkpt lat="44.82652" lon="-0.50708">
        <ele>30.029235839844</ele>
        <time>2022-02-23T10:54:35Z</time>
      </trkpt>
      <trkpt lat="44.82655" lon="-0.50695">
        <ele>31.400207519531</ele>
        <time>2022-02-23T10:54:42Z</time>
      </trkpt>
      <trkpt lat="44.82659" lon="-0.50682">
        <ele>35.695434570312</ele>
        <time>2022-02-23T10:54:49Z</time>
      </trkpt>
      <trkpt lat="44.82662" lon="-0.50668">
        <ele>35.110717773438</ele>
        <time>2022-02-23T10:54:57Z</time>
      </trkpt>
      <trkpt lat="44.8266" lon="-0.50654">
        <ele>35.84912109375</ele>
        <time>2022-02-23T10:55:06Z</time>
      </trkpt>
      <trkpt lat="44.82655" lon="-0.50642">
        <ele>40.212646484375</ele>
        <time>2022-02-23T10:55:14Z</time>
      </trkpt>
      <trkpt lat="44.82667" lon="-0.50634">
        <ele>38.894775390625</ele>
        <time>2022-02-23T10:55:25Z</time>
      </trkpt>
      <trkpt lat="44.82677" lon="-0.5063">
        <ele>41.241333007812</ele>
        <time>2022-02-23T10:55:34Z</time>
      </trkpt>
      <trkpt lat="44.82676" lon="-0.50612">
        <ele>39.690490722656</ele>
        <time>2022-02-23T10:55:45Z</time>
      </trkpt>
      <trkpt lat="44.82672" lon="-0.50599">
        <ele>39.088806152344</ele>
        <time>2022-02-23T10:55:52Z</time>
      </trkpt>
      <trkpt lat="44.82674" lon="-0.50586">
        <ele>40.105712890625</ele>
        <time>2022-02-23T10:56:00Z</time>
      </trkpt>
      <trkpt lat="44.82671" lon="-0.50573">
        <ele>46.878723144531</ele>
        <time>2022-02-23T10:56:28Z</time>
      </trkpt>
      <trkpt lat="44.82664" lon="-0.50563">
        <ele>44.918579101562</ele>
        <time>2022-02-23T10:56:33Z</time>
      </trkpt>
      <trkpt lat="44.82658" lon="-0.50552">
        <ele>41.747314453125</ele>
        <time>2022-02-23T10:56:41Z</time>
      </trkpt>
      <trkpt lat="44.82655" lon="-0.50539">
        <ele>44.415832519531</ele>
        <time>2022-02-23T10:56:51Z</time>
      </trkpt>
      <trkpt lat="44.82656" lon="-0.50521">
        <ele>45.175415039062</ele>
        <time>2022-02-23T10:57:09Z</time>
      </trkpt>
      <trkpt lat="44.82653" lon="-0.50507">
        <ele>49.376892089844</ele>
        <time>2022-02-23T10:57:16Z</time>
      </trkpt>
      <trkpt lat="44.82644" lon="-0.50501">
        <ele>51.2392578125</ele>
        <time>2022-02-23T10:57:24Z</time>
      </trkpt>
      <trkpt lat="44.82641" lon="-0.50487">
        <ele>53.538452148438</ele>
        <time>2022-02-23T10:57:33Z</time>
      </trkpt>
      <trkpt lat="44.82634" lon="-0.50478">
        <ele>54.241271972656</ele>
        <time>2022-02-23T10:57:45Z</time>
      </trkpt>
      <trkpt lat="44.8263" lon="-0.50465">
        <ele>55.371948242188</ele>
        <time>2022-02-23T10:57:50Z</time>
      </trkpt>
      <trkpt lat="44.82623" lon="-0.50454">
        <ele>54.333374023438</ele>
        <time>2022-02-23T10:58:08Z</time>
      </trkpt>
      <trkpt lat="44.82614" lon="-0.50446">
        <ele>59.226806640625</ele>
        <time>2022-02-23T10:58:38Z</time>
      </trkpt>
      <trkpt lat="44.82605" lon="-0.50439">
        <ele>60.600463867188</ele>
        <time>2022-02-23T10:58:44Z</time>
      </trkpt>
      <trkpt lat="44.82595" lon="-0.50437">
        <ele>61.857482910156</ele>
        <time>2022-02-23T10:58:50Z</time>
      </trkpt>
      <trkpt lat="44.82587" lon="-0.50429">
        <ele>61.123168945312</ele>
        <time>2022-02-23T10:58:57Z</time>
      </trkpt>
      <trkpt lat="44.82577" lon="-0.50429">
        <ele>62.424682617188</ele>
        <time>2022-02-23T10:59:08Z</time>
      </trkpt>
      <trkpt lat="44.82573" lon="-0.50417">
        <ele>55.820556640625</ele>
        <time>2022-02-23T11:00:49Z</time>
      </trkpt>
      <trkpt lat="44.82568" lon="-0.50404">
        <ele>53.75537109375</ele>
        <time>2022-02-23T11:00:54Z</time>
      </trkpt>
      <trkpt lat="44.82563" lon="-0.50391">
        <ele>54.873229980469</ele>
        <time>2022-02-23T11:01:01Z</time>
      </trkpt>
      <trkpt lat="44.82557" lon="-0.50381">
        <ele>56.762268066406</ele>
        <time>2022-02-23T11:01:07Z</time>
      </trkpt>
      <trkpt lat="44.82553" lon="-0.50366">
        <ele>56.776672363281</ele>
        <time>2022-02-23T11:01:19Z</time>
      </trkpt>
      <trkpt lat="44.82549" lon="-0.50353">
        <ele>59.125732421875</ele>
        <time>2022-02-23T11:01:34Z</time>
      </trkpt>
      <trkpt lat="44.82542" lon="-0.50343">
        <ele>58.863586425781</ele>
        <time>2022-02-23T11:01:42Z</time>
      </trkpt>
      <trkpt lat="44.82534" lon="-0.50336">
        <ele>62.459106445312</ele>
        <time>2022-02-23T11:01:49Z</time>
      </trkpt>
      <trkpt lat="44.82531" lon="-0.50323">
        <ele>60.597045898438</ele>
        <time>2022-02-23T11:01:57Z</time>
      </trkpt>
      <trkpt lat="44.82527" lon="-0.50311">
        <ele>62.870178222656</ele>
        <time>2022-02-23T11:02:34Z</time>
      </trkpt>
      <trkpt lat="44.8253" lon="-0.50298">
        <ele>63.282592773438</ele>
        <time>2022-02-23T11:02:40Z</time>
      </trkpt>
      <trkpt lat="44.82531" lon="-0.50312">
        <ele>64.716491699219</ele>
        <time>2022-02-23T11:03:29Z</time>
      </trkpt>
      <trkpt lat="44.82534" lon="-0.50328">
        <ele>62.266418457031</ele>
        <time>2022-02-23T11:03:35Z</time>
      </trkpt>
      <trkpt lat="44.82543" lon="-0.50335">
        <ele>61.822937011719</ele>
        <time>2022-02-23T11:03:43Z</time>
      </trkpt>
      <trkpt lat="44.82551" lon="-0.50343">
        <ele>56.52978515625</ele>
        <time>2022-02-23T11:03:51Z</time>
      </trkpt>
      <trkpt lat="44.82555" lon="-0.50357">
        <ele>54.440551757812</ele>
        <time>2022-02-23T11:03:59Z</time>
      </trkpt>
      <trkpt lat="44.82557" lon="-0.5037">
        <ele>55.582397460938</ele>
        <time>2022-02-23T11:04:07Z</time>
      </trkpt>
      <trkpt lat="44.82559" lon="-0.50385">
        <ele>57.565734863281</ele>
        <time>2022-02-23T11:04:35Z</time>
      </trkpt>
      <trkpt lat="44.82564" lon="-0.50398">
        <ele>57.525817871094</ele>
        <time>2022-02-23T11:04:39Z</time>
      </trkpt>
      <trkpt lat="44.82569" lon="-0.50411">
        <ele>58.3857421875</ele>
        <time>2022-02-23T11:04:51Z</time>
      </trkpt>
      <trkpt lat="44.8256" lon="-0.50412">
        <ele>59.855041503906</ele>
        <time>2022-02-23T11:05:12Z</time>
      </trkpt>
      <trkpt lat="44.8255" lon="-0.50416">
        <ele>59.504272460938</ele>
        <time>2022-02-23T11:05:17Z</time>
      </trkpt>
      <trkpt lat="44.82539" lon="-0.50418">
        <ele>56.417785644531</ele>
        <time>2022-02-23T11:05:24Z</time>
      </trkpt>
      <trkpt lat="44.8253" lon="-0.50414">
        <ele>56.433227539062</ele>
        <time>2022-02-23T11:05:29Z</time>
      </trkpt>
      <trkpt lat="44.8252" lon="-0.50411">
        <ele>54.333984375</ele>
        <time>2022-02-23T11:05:33Z</time>
      </trkpt>
      <trkpt lat="44.8251" lon="-0.50404">
        <ele>54.875183105469</ele>
        <time>2022-02-23T11:05:40Z</time>
      </trkpt>
      <trkpt lat="44.82499" lon="-0.50402">
        <ele>55.616943359375</ele>
        <time>2022-02-23T11:05:48Z</time>
      </trkpt>
      <trkpt lat="44.82489" lon="-0.50402">
        <ele>55.341064453125</ele>
        <time>2022-02-23T11:05:56Z</time>
      </trkpt>
      <trkpt lat="44.8248" lon="-0.50396">
        <ele>56.01611328125</ele>
        <time>2022-02-23T11:06:03Z</time>
      </trkpt>
      <trkpt lat="44.8247" lon="-0.50396">
        <ele>57.557861328125</ele>
        <time>2022-02-23T11:06:14Z</time>
      </trkpt>
      <trkpt lat="44.82459" lon="-0.50399">
        <ele>58.28271484375</ele>
        <time>2022-02-23T11:06:21Z</time>
      </trkpt>
      <trkpt lat="44.82451" lon="-0.50409">
        <ele>57.599792480469</ele>
        <time>2022-02-23T11:06:30Z</time>
      </trkpt>
      <trkpt lat="44.82446" lon="-0.5042">
        <ele>55.003540039062</ele>
        <time>2022-02-23T11:06:40Z</time>
      </trkpt>
      <trkpt lat="44.82449" lon="-0.50432">
        <ele>56.633728027344</ele>
        <time>2022-02-23T11:06:48Z</time>
      </trkpt>
      <trkpt lat="44.82449" lon="-0.50447">
        <ele>54.918212890625</ele>
        <time>2022-02-23T11:06:56Z</time>
      </trkpt>
      <trkpt lat="44.82452" lon="-0.5046">
        <ele>54.053100585938</ele>
        <time>2022-02-23T11:07:03Z</time>
      </trkpt>
      <trkpt lat="44.82455" lon="-0.50473">
        <ele>56.166442871094</ele>
        <time>2022-02-23T11:07:10Z</time>
      </trkpt>
      <trkpt lat="44.82449" lon="-0.50491">
        <ele>53.715148925781</ele>
        <time>2022-02-23T11:07:45Z</time>
      </trkpt>
      <trkpt lat="44.82445" lon="-0.50503">
        <ele>49.089599609375</ele>
        <time>2022-02-23T11:07:54Z</time>
      </trkpt>
      <trkpt lat="44.82436" lon="-0.50507">
        <ele>47.063720703125</ele>
        <time>2022-02-23T11:07:59Z</time>
      </trkpt>
      <trkpt lat="44.82425" lon="-0.50507">
        <ele>45.042419433594</ele>
        <time>2022-02-23T11:08:06Z</time>
      </trkpt>
      <trkpt lat="44.82414" lon="-0.50508">
        <ele>41.504516601562</ele>
        <time>2022-02-23T11:08:13Z</time>
      </trkpt>
      <trkpt lat="44.82405" lon="-0.50507">
        <ele>42.689270019531</ele>
        <time>2022-02-23T11:08:24Z</time>
      </trkpt>
      <trkpt lat="44.82396" lon="-0.50509">
        <ele>41.597595214844</ele>
        <time>2022-02-23T11:08:34Z</time>
      </trkpt>
      <trkpt lat="44.82389" lon="-0.50517">
        <ele>37.37548828125</ele>
        <time>2022-02-23T11:08:42Z</time>
      </trkpt>
      <trkpt lat="44.82381" lon="-0.50526">
        <ele>34.026000976562</ele>
        <time>2022-02-23T11:08:48Z</time>
      </trkpt>
      <trkpt lat="44.82388" lon="-0.50538">
        <ele>34.021545410156</ele>
        <time>2022-02-23T11:09:08Z</time>
      </trkpt>
      <trkpt lat="44.82394" lon="-0.50554">
        <ele>36.587890625</ele>
        <time>2022-02-23T11:09:31Z</time>
      </trkpt>
      <trkpt lat="44.82399" lon="-0.50565">
        <ele>33.411499023438</ele>
        <time>2022-02-23T11:09:55Z</time>
      </trkpt>
      <trkpt lat="44.82406" lon="-0.50575">
        <ele>30.633850097656</ele>
        <time>2022-02-23T11:10:02Z</time>
      </trkpt>
      <trkpt lat="44.82413" lon="-0.50587">
        <ele>35.929565429688</ele>
        <time>2022-02-23T11:10:11Z</time>
      </trkpt>
      <trkpt lat="44.82423" lon="-0.50593">
        <ele>30.883972167969</ele>
        <time>2022-02-23T11:10:22Z</time>
      </trkpt>
      <trkpt lat="44.82433" lon="-0.50596">
        <ele>29.584655761719</ele>
        <time>2022-02-23T11:10:29Z</time>
      </trkpt>
      <trkpt lat="44.82441" lon="-0.50604">
        <ele>30.426086425781</ele>
        <time>2022-02-23T11:10:34Z</time>
      </trkpt>
      <trkpt lat="44.8245" lon="-0.50609">
        <ele>29.516906738281</ele>
        <time>2022-02-23T11:10:39Z</time>
      </trkpt>
      <trkpt lat="44.8246" lon="-0.50614">
        <ele>29.525695800781</ele>
        <time>2022-02-23T11:10:44Z</time>
      </trkpt>
      <trkpt lat="44.8247" lon="-0.50621">
        <ele>30.254760742188</ele>
        <time>2022-02-23T11:10:51Z</time>
      </trkpt>
      <trkpt lat="44.82472" lon="-0.50635">
        <ele>25.803161621094</ele>
        <time>2022-02-23T11:11:01Z</time>
      </trkpt>
      <trkpt lat="44.82466" lon="-0.50646">
        <ele>28.234375</ele>
        <time>2022-02-23T11:11:10Z</time>
      </trkpt>
      <trkpt lat="44.82463" lon="-0.50658">
        <ele>31.345886230469</ele>
        <time>2022-02-23T11:11:17Z</time>
      </trkpt>
      <trkpt lat="44.82461" lon="-0.50674">
        <ele>32.599304199219</ele>
        <time>2022-02-23T11:11:24Z</time>
      </trkpt>
      <trkpt lat="44.82465" lon="-0.50688">
        <ele>26.791870117188</ele>
        <time>2022-02-23T11:11:32Z</time>
      </trkpt>
      <trkpt lat="44.82469" lon="-0.50702">
        <ele>29.5068359375</ele>
        <time>2022-02-23T11:11:39Z</time>
      </trkpt>
      <trkpt lat="44.82472" lon="-0.50714">
        <ele>22.241088867188</ele>
        <time>2022-02-23T11:11:45Z</time>
      </trkpt>
      <trkpt lat="44.82472" lon="-0.50729">
        <ele>20.751708984375</ele>
        <time>2022-02-23T11:11:53Z</time>
      </trkpt>
      <trkpt lat="44.82476" lon="-0.50745">
        <ele>17.975402832031</ele>
        <time>2022-02-23T11:12:02Z</time>
      </trkpt>
      <trkpt lat="44.8248" lon="-0.50759">
        <ele>15.977783203125</ele>
        <time>2022-02-23T11:12:13Z</time>
      </trkpt>
      <trkpt lat="44.82485" lon="-0.50772">
        <ele>18.861572265625</ele>
        <time>2022-02-23T11:12:21Z</time>
      </trkpt>
      <trkpt lat="44.82492" lon="-0.50781">
        <ele>17.4365234375</ele>
        <time>2022-02-23T11:12:29Z</time>
      </trkpt>
      <trkpt lat="44.825" lon="-0.50788">
        <ele>19.344482421875</ele>
        <time>2022-02-23T11:12:35Z</time>
      </trkpt>
      <trkpt lat="44.82505" lon="-0.50801">
        <ele>19.795715332031</ele>
        <time>2022-02-23T11:12:44Z</time>
      </trkpt>
      <trkpt lat="44.82511" lon="-0.50813">
        <ele>18.603942871094</ele>
        <time>2022-02-23T11:12:52Z</time>
      </trkpt>
      <trkpt lat="44.8252" lon="-0.50818">
        <ele>20.068786621094</ele>
        <time>2022-02-23T11:13:06Z</time>
      </trkpt>
      <trkpt lat="44.8253" lon="-0.50823">
        <ele>19.051147460938</ele>
        <time>2022-02-23T11:13:11Z</time>
      </trkpt>
      <trkpt lat="44.82542" lon="-0.50826">
        <ele>20.343505859375</ele>
        <time>2022-02-23T11:13:18Z</time>
      </trkpt>
      <trkpt lat="44.82551" lon="-0.50835">
        <ele>21.687255859375</ele>
        <time>2022-02-23T11:13:31Z</time>
      </trkpt>
      <trkpt lat="44.82558" lon="-0.50845">
        <ele>18.756713867188</ele>
        <time>2022-02-23T11:13:38Z</time>
      </trkpt>
      <trkpt lat="44.82559" lon="-0.50861">
        <ele>17.67822265625</ele>
        <time>2022-02-23T11:13:46Z</time>
      </trkpt>
      <trkpt lat="44.82567" lon="-0.50868">
        <ele>17.054504394531</ele>
        <time>2022-02-23T11:14:15Z</time>
      </trkpt>
      <trkpt lat="44.82575" lon="-0.50876">
        <ele>18.97314453125</ele>
        <time>2022-02-23T11:14:21Z</time>
      </trkpt>
      <trkpt lat="44.82584" lon="-0.5088">
        <ele>17.837707519531</ele>
        <time>2022-02-23T11:14:32Z</time>
      </trkpt>
      <trkpt lat="44.82593" lon="-0.50889">
        <ele>15.244689941406</ele>
        <time>2022-02-23T11:14:40Z</time>
      </trkpt>
      <trkpt lat="44.82603" lon="-0.50929">
        <ele>12.412719726562</ele>
        <time>2022-02-23T11:15:11Z</time>
      </trkpt>
      <trkpt lat="44.82595" lon="-0.50894">
        <ele>13.544921875</ele>
        <time>2022-02-23T11:15:32Z</time>
      </trkpt>
      <trkpt lat="44.8261" lon="-0.50933">
        <ele>22.110046386719</ele>
        <time>2022-02-23T11:15:35Z</time>
      </trkpt>
      <trkpt lat="44.82623" lon="-0.50933">
        <ele>15.671691894531</ele>
        <time>2022-02-23T11:15:38Z</time>
      </trkpt>
      <trkpt lat="44.82633" lon="-0.50937">
        <ele>12.979248046875</ele>
        <time>2022-02-23T11:16:01Z</time>
      </trkpt>
      <trkpt lat="44.82639" lon="-0.50926">
        <ele>12.072143554688</ele>
        <time>2022-02-23T11:16:10Z</time>
      </trkpt>
      <trkpt lat="44.82647" lon="-0.50919">
        <ele>10.136779785156</ele>
        <time>2022-02-23T11:16:16Z</time>
      </trkpt>
      <trkpt lat="44.82654" lon="-0.5091">
        <ele>7.77099609375</ele>
        <time>2022-02-23T11:16:23Z</time>
      </trkpt>
      <trkpt lat="44.82659" lon="-0.50896">
        <ele>8.6687622070312</ele>
        <time>2022-02-23T11:16:29Z</time>
      </trkpt>
      <trkpt lat="44.82665" lon="-0.50883">
        <ele>8.5225219726562</ele>
        <time>2022-02-23T11:16:37Z</time>
      </trkpt>
      <trkpt lat="44.82674" lon="-0.50875">
        <ele>10.759155273438</ele>
        <time>2022-02-23T11:16:44Z</time>
      </trkpt>
      <trkpt lat="44.82681" lon="-0.50862">
        <ele>12.314819335938</ele>
        <time>2022-02-23T11:16:52Z</time>
      </trkpt>
      <trkpt lat="44.82688" lon="-0.50855">
        <ele>12.654418945312</ele>
        <time>2022-02-23T11:16:58Z</time>
      </trkpt>
      <trkpt lat="44.82697" lon="-0.50862">
        <ele>12.470886230469</ele>
        <time>2022-02-23T11:17:06Z</time>
      </trkpt>
      <trkpt lat="44.82704" lon="-0.50874">
        <ele>11.400695800781</ele>
        <time>2022-02-23T11:17:36Z</time>
      </trkpt>
      <trkpt lat="44.82711" lon="-0.50884">
        <ele>11.031555175781</ele>
        <time>2022-02-23T11:17:44Z</time>
      </trkpt>
      <trkpt lat="44.82717" lon="-0.50897">
        <ele>10.492065429688</ele>
        <time>2022-02-23T11:17:51Z</time>
      </trkpt>
      <trkpt lat="44.82724" lon="-0.50909">
        <ele>12.684204101562</ele>
        <time>2022-02-23T11:17:56Z</time>
      </trkpt>
      <trkpt lat="44.8273" lon="-0.50921">
        <ele>11.368896484375</ele>
        <time>2022-02-23T11:18:00Z</time>
      </trkpt>
      <trkpt lat="44.82736" lon="-0.50934">
        <ele>14.626342773438</ele>
        <time>2022-02-23T11:18:06Z</time>
      </trkpt>
      <trkpt lat="44.82745" lon="-0.50938">
        <ele>13.481811523438</ele>
        <time>2022-02-23T11:18:13Z</time>
      </trkpt>
      <trkpt lat="44.82754" lon="-0.50947">
        <ele>17.123168945312</ele>
        <time>2022-02-23T11:18:21Z</time>
      </trkpt>
      <trkpt lat="44.82757" lon="-0.50961">
        <ele>11.792358398438</ele>
        <time>2022-02-23T11:18:33Z</time>
      </trkpt>
      <trkpt lat="44.82762" lon="-0.50972">
        <ele>11.456787109375</ele>
        <time>2022-02-23T11:18:41Z</time>
      </trkpt>
      <trkpt lat="44.82769" lon="-0.50982">
        <ele>11.6416015625</ele>
        <time>2022-02-23T11:18:49Z</time>
      </trkpt>
      <trkpt lat="44.82772" lon="-0.50995">
        <ele>11.271728515625</ele>
        <time>2022-02-23T11:18:56Z</time>
      </trkpt>
      <trkpt lat="44.82774" lon="-0.51008">
        <ele>12.096801757812</ele>
        <time>2022-02-23T11:19:10Z</time>
      </trkpt>
      <trkpt lat="44.82787" lon="-0.51012">
        <ele>13.449584960938</ele>
        <time>2022-02-23T11:19:36Z</time>
      </trkpt>
      <trkpt lat="44.82798" lon="-0.51014">
        <ele>11.13232421875</ele>
        <time>2022-02-23T11:19:43Z</time>
      </trkpt>
      <trkpt lat="44.82808" lon="-0.5102">
        <ele>11.572143554688</ele>
        <time>2022-02-23T11:19:46Z</time>
      </trkpt>
      <trkpt lat="44.82818" lon="-0.51026">
        <ele>10.964172363281</ele>
        <time>2022-02-23T11:19:50Z</time>
      </trkpt>
      <trkpt lat="44.82827" lon="-0.51031">
        <ele>12.175537109375</ele>
        <time>2022-02-23T11:19:56Z</time>
      </trkpt>
      <trkpt lat="44.82837" lon="-0.51039">
        <ele>15.945983886719</ele>
        <time>2022-02-23T11:20:16Z</time>
      </trkpt>
      <trkpt lat="44.82846" lon="-0.51045">
        <ele>17.872192382812</ele>
        <time>2022-02-23T11:20:20Z</time>
      </trkpt>
      <trkpt lat="44.82857" lon="-0.51054">
        <ele>12.64990234375</ele>
        <time>2022-02-23T11:20:24Z</time>
      </trkpt>
      <trkpt lat="44.82867" lon="-0.51058">
        <ele>16.226440429688</ele>
        <time>2022-02-23T11:20:31Z</time>
      </trkpt>
      <trkpt lat="44.82876" lon="-0.51063">
        <ele>16.765563964844</ele>
        <time>2022-02-23T11:20:37Z</time>
      </trkpt>
      <trkpt lat="44.82886" lon="-0.51069">
        <ele>17.281433105469</ele>
        <time>2022-02-23T11:20:49Z</time>
      </trkpt>
      <trkpt lat="44.82892" lon="-0.51079">
        <ele>18.984497070312</ele>
        <time>2022-02-23T11:21:03Z</time>
      </trkpt>
      <trkpt lat="44.82898" lon="-0.51092">
        <ele>22.302795410156</ele>
        <time>2022-02-23T11:21:25Z</time>
      </trkpt>
      <trkpt lat="44.82905" lon="-0.51104">
        <ele>22.887329101562</ele>
        <time>2022-02-23T11:21:32Z</time>
      </trkpt>
      <trkpt lat="44.82911" lon="-0.51114">
        <ele>26.789001464844</ele>
        <time>2022-02-23T11:21:41Z</time>
      </trkpt>
      <trkpt lat="44.82918" lon="-0.51123">
        <ele>20.935974121094</ele>
        <time>2022-02-23T11:21:49Z</time>
      </trkpt>
      <trkpt lat="44.82925" lon="-0.51133">
        <ele>19.831909179688</ele>
        <time>2022-02-23T11:21:57Z</time>
      </trkpt>
      <trkpt lat="44.82916" lon="-0.51142">
        <ele>24.169189453125</ele>
        <time>2022-02-23T11:22:34Z</time>
      </trkpt>
      <trkpt lat="44.82909" lon="-0.51154">
        <ele>26.572875976562</ele>
        <time>2022-02-23T11:22:40Z</time>
      </trkpt>
      <trkpt lat="44.82901" lon="-0.51164">
        <ele>26.254272460938</ele>
        <time>2022-02-23T11:22:46Z</time>
      </trkpt>
      <trkpt lat="44.82893" lon="-0.51176">
        <ele>30.450378417969</ele>
        <time>2022-02-23T11:22:54Z</time>
      </trkpt>
      <trkpt lat="44.82892" lon="-0.51191">
        <ele>30.884887695312</ele>
        <time>2022-02-23T11:23:01Z</time>
      </trkpt>
      <trkpt lat="44.82894" lon="-0.51206">
        <ele>29.562072753906</ele>
        <time>2022-02-23T11:23:09Z</time>
      </trkpt>
      <trkpt lat="44.82893" lon="-0.51222">
        <ele>30.073852539062</ele>
        <time>2022-02-23T11:23:17Z</time>
      </trkpt>
      <trkpt lat="44.82888" lon="-0.51234">
        <ele>32.13134765625</ele>
        <time>2022-02-23T11:23:31Z</time>
      </trkpt>
      <trkpt lat="44.82887" lon="-0.51252">
        <ele>32.893371582031</ele>
        <time>2022-02-23T11:23:43Z</time>
      </trkpt>
      <trkpt lat="44.82883" lon="-0.51264">
        <ele>30.270141601562</ele>
        <time>2022-02-23T11:23:52Z</time>
      </trkpt>
      <trkpt lat="44.82878" lon="-0.51277">
        <ele>32.768920898438</ele>
        <time>2022-02-23T11:24:00Z</time>
      </trkpt>
      <trkpt lat="44.82878" lon="-0.51293">
        <ele>29.440246582031</ele>
        <time>2022-02-23T11:24:07Z</time>
      </trkpt>
      <trkpt lat="44.82876" lon="-0.51306">
        <ele>28.197265625</ele>
        <time>2022-02-23T11:24:17Z</time>
      </trkpt>
      <trkpt lat="44.82868" lon="-0.51312">
        <ele>27.353637695312</ele>
        <time>2022-02-23T11:24:26Z</time>
      </trkpt>
      <trkpt lat="44.82857" lon="-0.51313">
        <ele>31.80029296875</ele>
        <time>2022-02-23T11:24:33Z</time>
      </trkpt>
      <trkpt lat="44.82849" lon="-0.51317">
        <ele>34.025939941406</ele>
        <time>2022-02-23T11:24:49Z</time>
      </trkpt>
      <trkpt lat="44.8282" lon="-0.51317">
        <ele>28.966674804688</ele>
        <time>2022-02-23T11:24:55Z</time>
      </trkpt>
      <trkpt lat="44.8281" lon="-0.51311">
        <ele>27.750244140625</ele>
        <time>2022-02-23T11:25:00Z</time>
      </trkpt>
      <trkpt lat="44.82802" lon="-0.51318">
        <ele>30.839233398438</ele>
        <time>2022-02-23T11:25:10Z</time>
      </trkpt>
      <trkpt lat="44.82799" lon="-0.51332">
        <ele>31.813598632812</ele>
        <time>2022-02-23T11:25:20Z</time>
      </trkpt>
      <trkpt lat="44.82793" lon="-0.51341">
        <ele>34.114196777344</ele>
        <time>2022-02-23T11:25:27Z</time>
      </trkpt>
      <trkpt lat="44.82785" lon="-0.5135">
        <ele>38.68359375</ele>
        <time>2022-02-23T11:25:34Z</time>
      </trkpt>
      <trkpt lat="44.82778" lon="-0.5136">
        <ele>42.163757324219</ele>
        <time>2022-02-23T11:26:01Z</time>
      </trkpt>
      <trkpt lat="44.82771" lon="-0.51369">
        <ele>48.46728515625</ele>
        <time>2022-02-23T11:27:22Z</time>
      </trkpt>
      <trkpt lat="44.82763" lon="-0.51377">
        <ele>50.283203125</ele>
        <time>2022-02-23T11:27:28Z</time>
      </trkpt>
      <trkpt lat="44.82753" lon="-0.51383">
        <ele>54.93505859375</ele>
        <time>2022-02-23T11:27:33Z</time>
      </trkpt>
      <trkpt lat="44.82744" lon="-0.51388">
        <ele>53.683898925781</ele>
        <time>2022-02-23T11:27:39Z</time>
      </trkpt>
      <trkpt lat="44.82734" lon="-0.51393">
        <ele>52.558471679688</ele>
        <time>2022-02-23T11:27:45Z</time>
      </trkpt>
      <trkpt lat="44.82725" lon="-0.51398">
        <ele>52.419616699219</ele>
        <time>2022-02-23T11:27:51Z</time>
      </trkpt>
      <trkpt lat="44.82717" lon="-0.51404">
        <ele>50.335266113281</ele>
        <time>2022-02-23T11:27:57Z</time>
      </trkpt>
      <trkpt lat="44.82707" lon="-0.5141">
        <ele>53.273803710938</ele>
        <time>2022-02-23T11:28:05Z</time>
      </trkpt>
      <trkpt lat="44.82698" lon="-0.51416">
        <ele>53.534057617188</ele>
        <time>2022-02-23T11:28:13Z</time>
      </trkpt>
      <trkpt lat="44.82689" lon="-0.51424">
        <ele>55.411071777344</ele>
        <time>2022-02-23T11:28:21Z</time>
      </trkpt>
      <trkpt lat="44.8268" lon="-0.51433">
        <ele>54.933532714844</ele>
        <time>2022-02-23T11:28:31Z</time>
      </trkpt>
      <trkpt lat="44.8267" lon="-0.51438">
        <ele>52.861511230469</ele>
        <time>2022-02-23T11:28:39Z</time>
      </trkpt>
      <trkpt lat="44.82665" lon="-0.51448">
        <ele>48.319396972656</ele>
        <time>2022-02-23T11:28:46Z</time>
      </trkpt>
      <trkpt lat="44.8266" lon="-0.51462">
        <ele>50.345520019531</ele>
        <time>2022-02-23T11:28:54Z</time>
      </trkpt>
      <trkpt lat="44.82662" lon="-0.51476">
        <ele>50.255249023438</ele>
        <time>2022-02-23T11:29:01Z</time>
      </trkpt>
      <trkpt lat="44.82667" lon="-0.51492">
        <ele>50.391540527344</ele>
        <time>2022-02-23T11:29:08Z</time>
      </trkpt>
      <trkpt lat="44.82667" lon="-0.51506">
        <ele>52.770446777344</ele>
        <time>2022-02-23T11:29:19Z</time>
      </trkpt>
      <trkpt lat="44.82672" lon="-0.51519">
        <ele>52.685607910156</ele>
        <time>2022-02-23T11:29:28Z</time>
      </trkpt>
      <trkpt lat="44.82679" lon="-0.5153">
        <ele>54.77783203125</ele>
        <time>2022-02-23T11:29:36Z</time>
      </trkpt>
      <trkpt lat="44.82683" lon="-0.51543">
        <ele>55.546508789062</ele>
        <time>2022-02-23T11:29:44Z</time>
      </trkpt>
      <trkpt lat="44.82688" lon="-0.51556">
        <ele>58.770874023438</ele>
        <time>2022-02-23T11:29:51Z</time>
      </trkpt>
      <trkpt lat="44.82692" lon="-0.51569">
        <ele>57.4423828125</ele>
        <time>2022-02-23T11:29:59Z</time>
      </trkpt>
      <trkpt lat="44.82693" lon="-0.51583">
        <ele>54.855163574219</ele>
        <time>2022-02-23T11:30:08Z</time>
      </trkpt>
      <trkpt lat="44.82696" lon="-0.51597">
        <ele>52.995727539062</ele>
        <time>2022-02-23T11:30:16Z</time>
      </trkpt>
      <trkpt lat="44.827" lon="-0.51609">
        <ele>55.239501953125</ele>
        <time>2022-02-23T11:30:24Z</time>
      </trkpt>
      <trkpt lat="44.82706" lon="-0.51622">
        <ele>56.582214355469</ele>
        <time>2022-02-23T11:30:32Z</time>
      </trkpt>
      <trkpt lat="44.82712" lon="-0.51633">
        <ele>59.300354003906</ele>
        <time>2022-02-23T11:30:39Z</time>
      </trkpt>
      <trkpt lat="44.82719" lon="-0.51642">
        <ele>60.177612304688</ele>
        <time>2022-02-23T11:30:45Z</time>
      </trkpt>
      <trkpt lat="44.82725" lon="-0.51653">
        <ele>57.874938964844</ele>
        <time>2022-02-23T11:30:53Z</time>
      </trkpt>
      <trkpt lat="44.82733" lon="-0.51665">
        <ele>55.842163085938</ele>
        <time>2022-02-23T11:31:01Z</time>
      </trkpt>
      <trkpt lat="44.8274" lon="-0.51676">
        <ele>58.907409667969</ele>
        <time>2022-02-23T11:31:09Z</time>
      </trkpt>
      <trkpt lat="44.82747" lon="-0.51687">
        <ele>58.582641601562</ele>
        <time>2022-02-23T11:31:17Z</time>
      </trkpt>
      <trkpt lat="44.82756" lon="-0.51698">
        <ele>59.886840820312</ele>
        <time>2022-02-23T11:31:25Z</time>
      </trkpt>
      <trkpt lat="44.82764" lon="-0.51709">
        <ele>61.726257324219</ele>
        <time>2022-02-23T11:31:33Z</time>
      </trkpt>
      <trkpt lat="44.82772" lon="-0.51719">
        <ele>61.902526855469</ele>
        <time>2022-02-23T11:31:41Z</time>
      </trkpt>
      <trkpt lat="44.8278" lon="-0.51728">
        <ele>61.167846679688</ele>
        <time>2022-02-23T11:31:48Z</time>
      </trkpt>
      <trkpt lat="44.82788" lon="-0.51736">
        <ele>60.856323242188</ele>
        <time>2022-02-23T11:31:55Z</time>
      </trkpt>
      <trkpt lat="44.82793" lon="-0.51747">
        <ele>60.21044921875</ele>
        <time>2022-02-23T11:32:03Z</time>
      </trkpt>
      <trkpt lat="44.828" lon="-0.51758">
        <ele>59.645568847656</ele>
        <time>2022-02-23T11:32:10Z</time>
      </trkpt>
      <trkpt lat="44.82808" lon="-0.5177">
        <ele>61.38037109375</ele>
        <time>2022-02-23T11:32:18Z</time>
      </trkpt>
      <trkpt lat="44.82814" lon="-0.51783">
        <ele>62.494812011719</ele>
        <time>2022-02-23T11:32:25Z</time>
      </trkpt>
      <trkpt lat="44.82819" lon="-0.51796">
        <ele>57.997192382812</ele>
        <time>2022-02-23T11:32:33Z</time>
      </trkpt>
      <trkpt lat="44.82816" lon="-0.51808">
        <ele>58.585083007812</ele>
        <time>2022-02-23T11:32:43Z</time>
      </trkpt>
      <trkpt lat="44.82809" lon="-0.51818">
        <ele>59.272399902344</ele>
        <time>2022-02-23T11:32:50Z</time>
      </trkpt>
      <trkpt lat="44.82804" lon="-0.5183">
        <ele>60.46142578125</ele>
        <time>2022-02-23T11:32:58Z</time>
      </trkpt>
      <trkpt lat="44.82797" lon="-0.51841">
        <ele>59.744140625</ele>
        <time>2022-02-23T11:33:04Z</time>
      </trkpt>
      <trkpt lat="44.8279" lon="-0.51851">
        <ele>58.307250976562</ele>
        <time>2022-02-23T11:33:14Z</time>
      </trkpt>
      <trkpt lat="44.82781" lon="-0.51858">
        <ele>54.662902832031</ele>
        <time>2022-02-23T11:33:24Z</time>
      </trkpt>
      <trkpt lat="44.82773" lon="-0.51866">
        <ele>48.164367675781</ele>
        <time>2022-02-23T11:33:33Z</time>
      </trkpt>
      <trkpt lat="44.82766" lon="-0.51874">
        <ele>47.798461914062</ele>
        <time>2022-02-23T11:33:43Z</time>
      </trkpt>
      <trkpt lat="44.82765" lon="-0.51889">
        <ele>47.611572265625</ele>
        <time>2022-02-23T11:33:50Z</time>
      </trkpt>
      <trkpt lat="44.82771" lon="-0.519">
        <ele>45.325927734375</ele>
        <time>2022-02-23T11:33:59Z</time>
      </trkpt>
      <trkpt lat="44.82772" lon="-0.51919">
        <ele>45.82177734375</ele>
        <time>2022-02-23T11:34:10Z</time>
      </trkpt>
      <trkpt lat="44.82781" lon="-0.51927">
        <ele>42.899353027344</ele>
        <time>2022-02-23T11:34:15Z</time>
      </trkpt>
      <trkpt lat="44.82792" lon="-0.51932">
        <ele>46.616394042969</ele>
        <time>2022-02-23T11:34:22Z</time>
      </trkpt>
      <trkpt lat="44.82791" lon="-0.51947">
        <ele>39.227905273438</ele>
        <time>2022-02-23T11:34:37Z</time>
      </trkpt>
      <trkpt lat="44.82799" lon="-0.51958">
        <ele>35.8828125</ele>
        <time>2022-02-23T11:34:44Z</time>
      </trkpt>
      <trkpt lat="44.82805" lon="-0.51967">
        <ele>36.307189941406</ele>
        <time>2022-02-23T11:34:49Z</time>
      </trkpt>
      <trkpt lat="44.82812" lon="-0.5198">
        <ele>35.0732421875</ele>
        <time>2022-02-23T11:34:55Z</time>
      </trkpt>
      <trkpt lat="44.82819" lon="-0.51987">
        <ele>39.552795410156</ele>
        <time>2022-02-23T11:35:00Z</time>
      </trkpt>
      <trkpt lat="44.82828" lon="-0.51997">
        <ele>41.759338378906</ele>
        <time>2022-02-23T11:35:08Z</time>
      </trkpt>
      <trkpt lat="44.82837" lon="-0.52004">
        <ele>44.46142578125</ele>
        <time>2022-02-23T11:35:16Z</time>
      </trkpt>
      <trkpt lat="44.82847" lon="-0.52007">
        <ele>43.634765625</ele>
        <time>2022-02-23T11:35:22Z</time>
      </trkpt>
      <trkpt lat="44.82852" lon="-0.52018">
        <ele>43.832641601562</ele>
        <time>2022-02-23T11:35:29Z</time>
      </trkpt>
      <trkpt lat="44.82859" lon="-0.52026">
        <ele>47.9248046875</ele>
        <time>2022-02-23T11:35:34Z</time>
      </trkpt>
      <trkpt lat="44.82872" lon="-0.5203">
        <ele>50.645141601562</ele>
        <time>2022-02-23T11:36:09Z</time>
      </trkpt>
      <trkpt lat="44.82883" lon="-0.52038">
        <ele>49.737426757812</ele>
        <time>2022-02-23T11:36:14Z</time>
      </trkpt>
      <trkpt lat="44.82902" lon="-0.52055">
        <ele>57.063049316406</ele>
        <time>2022-02-23T11:36:21Z</time>
      </trkpt>
      <trkpt lat="44.82908" lon="-0.52066">
        <ele>58.370727539062</ele>
        <time>2022-02-23T11:36:27Z</time>
      </trkpt>
      <trkpt lat="44.82914" lon="-0.52077">
        <ele>52.512756347656</ele>
        <time>2022-02-23T11:36:36Z</time>
      </trkpt>
      <trkpt lat="44.82919" lon="-0.52087">
        <ele>57.734558105469</ele>
        <time>2022-02-23T11:37:06Z</time>
      </trkpt>
      <trkpt lat="44.82927" lon="-0.52096">
        <ele>50.748718261719</ele>
        <time>2022-02-23T11:37:13Z</time>
      </trkpt>
      <trkpt lat="44.82936" lon="-0.52104">
        <ele>44.969177246094</ele>
        <time>2022-02-23T11:37:19Z</time>
      </trkpt>
      <trkpt lat="44.82945" lon="-0.52111">
        <ele>45.206176757812</ele>
        <time>2022-02-23T11:37:25Z</time>
      </trkpt>
      <trkpt lat="44.82956" lon="-0.52117">
        <ele>38.872009277344</ele>
        <time>2022-02-23T11:37:32Z</time>
      </trkpt>
      <trkpt lat="44.82964" lon="-0.52122">
        <ele>49.309631347656</ele>
        <time>2022-02-23T11:37:46Z</time>
      </trkpt>
      <trkpt lat="44.82972" lon="-0.52129">
        <ele>47.427001953125</ele>
        <time>2022-02-23T11:38:34Z</time>
      </trkpt>
      <trkpt lat="44.82966" lon="-0.52141">
        <ele>51.462219238281</ele>
        <time>2022-02-23T11:39:04Z</time>
      </trkpt>
      <trkpt lat="44.8297" lon="-0.52155">
        <ele>49.562194824219</ele>
        <time>2022-02-23T11:39:11Z</time>
      </trkpt>
      <trkpt lat="44.82975" lon="-0.52166">
        <ele>43.44873046875</ele>
        <time>2022-02-23T11:39:19Z</time>
      </trkpt>
      <trkpt lat="44.8298" lon="-0.52178">
        <ele>45.615966796875</ele>
        <time>2022-02-23T11:39:24Z</time>
      </trkpt>
      <trkpt lat="44.82984" lon="-0.52191">
        <ele>53.32080078125</ele>
        <time>2022-02-23T11:39:31Z</time>
      </trkpt>
      <trkpt lat="44.82981" lon="-0.52204">
        <ele>52.916015625</ele>
        <time>2022-02-23T11:40:02Z</time>
      </trkpt>
      <trkpt lat="44.82988" lon="-0.52216">
        <ele>48.816467285156</ele>
        <time>2022-02-23T11:40:10Z</time>
      </trkpt>
      <trkpt lat="44.82988" lon="-0.5223">
        <ele>48.333190917969</ele>
        <time>2022-02-23T11:40:20Z</time>
      </trkpt>
      <trkpt lat="44.82985" lon="-0.52243">
        <ele>43.066772460938</ele>
        <time>2022-02-23T11:40:27Z</time>
      </trkpt>
      <trkpt lat="44.82976" lon="-0.52245">
        <ele>43.676208496094</ele>
        <time>2022-02-23T11:40:39Z</time>
      </trkpt>
      <trkpt lat="44.82975" lon="-0.52259">
        <ele>42.135803222656</ele>
        <time>2022-02-23T11:40:45Z</time>
      </trkpt>
      <trkpt lat="44.82977" lon="-0.52273">
        <ele>39.0615234375</ele>
        <time>2022-02-23T11:40:52Z</time>
      </trkpt>
      <trkpt lat="44.82979" lon="-0.52286">
        <ele>36.93798828125</ele>
        <time>2022-02-23T11:40:59Z</time>
      </trkpt>
      <trkpt lat="44.82981" lon="-0.52299">
        <ele>34.474243164062</ele>
        <time>2022-02-23T11:41:07Z</time>
      </trkpt>
      <trkpt lat="44.82992" lon="-0.52306">
        <ele>35.025756835938</ele>
        <time>2022-02-23T11:41:12Z</time>
      </trkpt>
      <trkpt lat="44.83001" lon="-0.52313">
        <ele>28.341735839844</ele>
        <time>2022-02-23T11:41:23Z</time>
      </trkpt>
      <trkpt lat="44.83006" lon="-0.52326">
        <ele>27.458129882812</ele>
        <time>2022-02-23T11:41:33Z</time>
      </trkpt>
      <trkpt lat="44.83004" lon="-0.52339">
        <ele>24.618347167969</ele>
        <time>2022-02-23T11:41:47Z</time>
      </trkpt>
      <trkpt lat="44.83005" lon="-0.52355">
        <ele>36.153137207031</ele>
        <time>2022-02-23T11:43:19Z</time>
      </trkpt>
      <trkpt lat="44.8301" lon="-0.52368">
        <ele>38.595336914062</ele>
        <time>2022-02-23T11:45:32Z</time>
      </trkpt>
      <trkpt lat="44.83019" lon="-0.52378">
        <ele>30.826171875</ele>
        <time>2022-02-23T11:45:37Z</time>
      </trkpt>
      <trkpt lat="44.83026" lon="-0.52386">
        <ele>25.278503417969</ele>
        <time>2022-02-23T11:45:42Z</time>
      </trkpt>
      <trkpt lat="44.83036" lon="-0.52394">
        <ele>27.429077148438</ele>
        <time>2022-02-23T11:45:52Z</time>
      </trkpt>
      <trkpt lat="44.83046" lon="-0.52392">
        <ele>27.796997070312</ele>
        <time>2022-02-23T11:46:01Z</time>
      </trkpt>
      <trkpt lat="44.83057" lon="-0.5238">
        <ele>28.7890625</ele>
        <time>2022-02-23T11:46:16Z</time>
      </trkpt>
      <trkpt lat="44.83061" lon="-0.52369">
        <ele>23.399780273438</ele>
        <time>2022-02-23T11:46:26Z</time>
      </trkpt>
      <trkpt lat="44.83068" lon="-0.52359">
        <ele>22.071472167969</ele>
        <time>2022-02-23T11:46:32Z</time>
      </trkpt>
      <trkpt lat="44.83071" lon="-0.52345">
        <ele>18.660034179688</ele>
        <time>2022-02-23T11:46:37Z</time>
      </trkpt>
      <trkpt lat="44.8308" lon="-0.52347">
        <ele>16.039916992188</ele>
        <time>2022-02-23T11:46:52Z</time>
      </trkpt>
      <trkpt lat="44.83087" lon="-0.52362">
        <ele>17.111145019531</ele>
        <time>2022-02-23T11:48:19Z</time>
      </trkpt>
      <trkpt lat="44.83087" lon="-0.52377">
        <ele>15.426391601562</ele>
        <time>2022-02-23T11:48:31Z</time>
      </trkpt>
      <trkpt lat="44.83084" lon="-0.52392">
        <ele>6.4703979492188</ele>
        <time>2022-02-23T11:48:37Z</time>
      </trkpt>
      <trkpt lat="44.83083" lon="-0.52406">
        <ele>12.349487304688</ele>
        <time>2022-02-23T11:49:01Z</time>
      </trkpt>
      <trkpt lat="44.83084" lon="-0.52422">
        <ele>11.012084960938</ele>
        <time>2022-02-23T11:49:05Z</time>
      </trkpt>
      <trkpt lat="44.8308" lon="-0.52437">
        <ele>12.741455078125</ele>
        <time>2022-02-23T11:49:10Z</time>
      </trkpt>
      <trkpt lat="44.83073" lon="-0.52449">
        <ele>13.161193847656</ele>
        <time>2022-02-23T11:49:16Z</time>
      </trkpt>
      <trkpt lat="44.83062" lon="-0.52449">
        <ele>9.8795166015625</ele>
        <time>2022-02-23T11:49:33Z</time>
      </trkpt>
      <trkpt lat="44.83059" lon="-0.52462">
        <ele>8.4585571289062</ele>
        <time>2022-02-23T11:49:40Z</time>
      </trkpt>
      <trkpt lat="44.83063" lon="-0.52474">
        <ele>12.79833984375</ele>
        <time>2022-02-23T11:49:44Z</time>
      </trkpt>
      <trkpt lat="44.83069" lon="-0.52484">
        <ele>13.051147460938</ele>
        <time>2022-02-23T11:49:57Z</time>
      </trkpt>
      <trkpt lat="44.83078" lon="-0.52478">
        <ele>17.501220703125</ele>
        <time>2022-02-23T11:50:16Z</time>
      </trkpt>
      <trkpt lat="44.83086" lon="-0.52472">
        <ele>18.769714355469</ele>
        <time>2022-02-23T11:50:50Z</time>
      </trkpt>
      <trkpt lat="44.83095" lon="-0.52465">
        <ele>13.004699707031</ele>
        <time>2022-02-23T11:50:58Z</time>
      </trkpt>
      <trkpt lat="44.83103" lon="-0.5246">
        <ele>9.78125</ele>
        <time>2022-02-23T11:51:04Z</time>
      </trkpt>
      <trkpt lat="44.83113" lon="-0.52456">
        <ele>12.346984863281</ele>
        <time>2022-02-23T11:51:11Z</time>
      </trkpt>
      <trkpt lat="44.83121" lon="-0.52447">
        <ele>8.5657348632812</ele>
        <time>2022-02-23T11:51:18Z</time>
      </trkpt>
      <trkpt lat="44.83114" lon="-0.52462">
        <ele>7.0441284179688</ele>
        <time>2022-02-23T12:42:05Z</time>
      </trkpt>
      <trkpt lat="44.83109" lon="-0.52474">
        <ele>4.63916015625</ele>
        <time>2022-02-23T12:42:11Z</time>
      </trkpt>
      <trkpt lat="44.83107" lon="-0.52488">
        <ele>3.327880859375</ele>
        <time>2022-02-23T12:42:17Z</time>
      </trkpt>
      <trkpt lat="44.83108" lon="-0.52502">
        <ele>3.5787963867188</ele>
        <time>2022-02-23T12:42:24Z</time>
      </trkpt>
      <trkpt lat="44.83108" lon="-0.52517">
        <ele>1.56982421875</ele>
        <time>2022-02-23T12:42:32Z</time>
      </trkpt>
      <trkpt lat="44.83112" lon="-0.5253">
        <ele>0.8260498046875</ele>
        <time>2022-02-23T12:42:40Z</time>
      </trkpt>
      <trkpt lat="44.83117" lon="-0.52544">
        <ele>-0.75543212890625</ele>
        <time>2022-02-23T12:42:48Z</time>
      </trkpt>
      <trkpt lat="44.83127" lon="-0.5254">
        <ele>-2.8358154296875</ele>
        <time>2022-02-23T12:43:03Z</time>
      </trkpt>
      <trkpt lat="44.83134" lon="-0.52529">
        <ele>-5.1853637695312</ele>
        <time>2022-02-23T12:43:12Z</time>
      </trkpt>
      <trkpt lat="44.83142" lon="-0.52522">
        <ele>-7.53173828125</ele>
        <time>2022-02-23T12:43:20Z</time>
      </trkpt>
      <trkpt lat="44.83152" lon="-0.52517">
        <ele>-11.556457519531</ele>
        <time>2022-02-23T12:43:33Z</time>
      </trkpt>
      <trkpt lat="44.83161" lon="-0.52514">
        <ele>-9.344482421875</ele>
        <time>2022-02-23T12:43:42Z</time>
      </trkpt>
      <trkpt lat="44.8317" lon="-0.52511">
        <ele>-6.9985961914062</ele>
        <time>2022-02-23T12:43:49Z</time>
      </trkpt>
      <trkpt lat="44.83179" lon="-0.52507">
        <ele>-3.997802734375</ele>
        <time>2022-02-23T12:43:58Z</time>
      </trkpt>
      <trkpt lat="44.83188" lon="-0.52497">
        <ele>-0.98699951171875</ele>
        <time>2022-02-23T12:44:06Z</time>
      </trkpt>
      <trkpt lat="44.83197" lon="-0.5249">
        <ele>3.3355102539062</ele>
        <time>2022-02-23T12:44:14Z</time>
      </trkpt>
      <trkpt lat="44.83206" lon="-0.52485">
        <ele>6.5288696289062</ele>
        <time>2022-02-23T12:44:22Z</time>
      </trkpt>
      <trkpt lat="44.83216" lon="-0.52478">
        <ele>5.7938232421875</ele>
        <time>2022-02-23T12:44:32Z</time>
      </trkpt>
      <trkpt lat="44.83224" lon="-0.52469">
        <ele>6.1860961914062</ele>
        <time>2022-02-23T12:44:39Z</time>
      </trkpt>
      <trkpt lat="44.8323" lon="-0.52459">
        <ele>4.2127685546875</ele>
        <time>2022-02-23T12:44:45Z</time>
      </trkpt>
      <trkpt lat="44.83237" lon="-0.52448">
        <ele>4.8824462890625</ele>
        <time>2022-02-23T12:44:51Z</time>
      </trkpt>
      <trkpt lat="44.83249" lon="-0.52438">
        <ele>2.2545166015625</ele>
        <time>2022-02-23T12:45:00Z</time>
      </trkpt>
      <trkpt lat="44.83258" lon="-0.52432">
        <ele>1.8817138671875</ele>
        <time>2022-02-23T12:45:09Z</time>
      </trkpt>
      <trkpt lat="44.83266" lon="-0.52423">
        <ele>2.9278564453125</ele>
        <time>2022-02-23T12:45:20Z</time>
      </trkpt>
      <trkpt lat="44.83275" lon="-0.52418">
        <ele>1.6673583984375</ele>
        <time>2022-02-23T12:45:29Z</time>
      </trkpt>
      <trkpt lat="44.83284" lon="-0.52412">
        <ele>7.703125</ele>
        <time>2022-02-23T12:45:55Z</time>
      </trkpt>
      <trkpt lat="44.83293" lon="-0.52422">
        <ele>9.7491455078125</ele>
        <time>2022-02-23T12:46:03Z</time>
      </trkpt>
      <trkpt lat="44.83303" lon="-0.52419">
        <ele>14.731628417969</ele>
        <time>2022-02-23T12:46:20Z</time>
      </trkpt>
      <trkpt lat="44.83313" lon="-0.52422">
        <ele>13.786376953125</ele>
        <time>2022-02-23T12:46:50Z</time>
      </trkpt>
      <trkpt lat="44.83324" lon="-0.52423">
        <ele>14.940185546875</ele>
        <time>2022-02-23T12:46:55Z</time>
      </trkpt>
      <trkpt lat="44.83334" lon="-0.52424">
        <ele>20.050231933594</ele>
        <time>2022-02-23T12:47:02Z</time>
      </trkpt>
      <trkpt lat="44.83344" lon="-0.5242">
        <ele>22.44580078125</ele>
        <time>2022-02-23T12:47:09Z</time>
      </trkpt>
      <trkpt lat="44.83354" lon="-0.52416">
        <ele>24.764587402344</ele>
        <time>2022-02-23T12:47:19Z</time>
      </trkpt>
      <trkpt lat="44.83361" lon="-0.52404">
        <ele>24.087341308594</ele>
        <time>2022-02-23T12:47:25Z</time>
      </trkpt>
      <trkpt lat="44.83371" lon="-0.52406">
        <ele>17.582214355469</ele>
        <time>2022-02-23T12:47:32Z</time>
      </trkpt>
      <trkpt lat="44.83384" lon="-0.52405">
        <ele>22.94384765625</ele>
        <time>2022-02-23T12:47:44Z</time>
      </trkpt>
      <trkpt lat="44.83394" lon="-0.52399">
        <ele>27.299255371094</ele>
        <time>2022-02-23T12:47:54Z</time>
      </trkpt>
      <trkpt lat="44.83405" lon="-0.52396">
        <ele>27.561767578125</ele>
        <time>2022-02-23T12:48:00Z</time>
      </trkpt>
      <trkpt lat="44.83415" lon="-0.524">
        <ele>24.771362304688</ele>
        <time>2022-02-23T12:48:09Z</time>
      </trkpt>
      <trkpt lat="44.83426" lon="-0.52394">
        <ele>25.623779296875</ele>
        <time>2022-02-23T12:48:17Z</time>
      </trkpt>
      <trkpt lat="44.83435" lon="-0.52394">
        <ele>25.9033203125</ele>
        <time>2022-02-23T12:48:24Z</time>
      </trkpt>
      <trkpt lat="44.83444" lon="-0.52389">
        <ele>25.6806640625</ele>
        <time>2022-02-23T12:48:34Z</time>
      </trkpt>
      <trkpt lat="44.83456" lon="-0.52388">
        <ele>29.788818359375</ele>
        <time>2022-02-23T12:48:44Z</time>
      </trkpt>
      <trkpt lat="44.83464" lon="-0.52379">
        <ele>25.946594238281</ele>
        <time>2022-02-23T12:48:50Z</time>
      </trkpt>
      <trkpt lat="44.83473" lon="-0.52379">
        <ele>24.571655273438</ele>
        <time>2022-02-23T12:48:59Z</time>
      </trkpt>
      <trkpt lat="44.83484" lon="-0.52374">
        <ele>26.79833984375</ele>
        <time>2022-02-23T12:49:06Z</time>
      </trkpt>
      <trkpt lat="44.83491" lon="-0.52364">
        <ele>29.674560546875</ele>
        <time>2022-02-23T12:49:19Z</time>
      </trkpt>
      <trkpt lat="44.835" lon="-0.52358">
        <ele>30.994262695312</ele>
        <time>2022-02-23T12:49:23Z</time>
      </trkpt>
      <trkpt lat="44.83507" lon="-0.52349">
        <ele>29.649963378906</ele>
        <time>2022-02-23T12:49:27Z</time>
      </trkpt>
      <trkpt lat="44.83515" lon="-0.52342">
        <ele>30.717590332031</ele>
        <time>2022-02-23T12:49:35Z</time>
      </trkpt>
      <trkpt lat="44.83524" lon="-0.52337">
        <ele>29.099731445312</ele>
        <time>2022-02-23T12:50:15Z</time>
      </trkpt>
      <trkpt lat="44.83526" lon="-0.52322">
        <ele>38.408020019531</ele>
        <time>2022-02-23T12:50:19Z</time>
      </trkpt>
      <trkpt lat="44.83526" lon="-0.52307">
        <ele>43.785339355469</ele>
        <time>2022-02-23T12:50:24Z</time>
      </trkpt>
      <trkpt lat="44.83525" lon="-0.52292">
        <ele>41.529418945312</ele>
        <time>2022-02-23T12:50:30Z</time>
      </trkpt>
      <trkpt lat="44.83522" lon="-0.52278">
        <ele>41.318725585938</ele>
        <time>2022-02-23T12:50:36Z</time>
      </trkpt>
      <trkpt lat="44.83521" lon="-0.52263">
        <ele>40.770690917969</ele>
        <time>2022-02-23T12:50:42Z</time>
      </trkpt>
      <trkpt lat="44.83524" lon="-0.5225">
        <ele>44.070129394531</ele>
        <time>2022-02-23T12:50:48Z</time>
      </trkpt>
      <trkpt lat="44.83527" lon="-0.52236">
        <ele>44.65234375</ele>
        <time>2022-02-23T12:50:53Z</time>
      </trkpt>
      <trkpt lat="44.83533" lon="-0.52225">
        <ele>47.117065429688</ele>
        <time>2022-02-23T12:50:59Z</time>
      </trkpt>
      <trkpt lat="44.83537" lon="-0.52213">
        <ele>51.623657226562</ele>
        <time>2022-02-23T12:51:04Z</time>
      </trkpt>
      <trkpt lat="44.83537" lon="-0.52199">
        <ele>49.884399414062</ele>
        <time>2022-02-23T12:51:11Z</time>
      </trkpt>
      <trkpt lat="44.83542" lon="-0.52185">
        <ele>42.876281738281</ele>
        <time>2022-02-23T12:51:30Z</time>
      </trkpt>
      <trkpt lat="44.83537" lon="-0.52173">
        <ele>42.950561523438</ele>
        <time>2022-02-23T12:51:36Z</time>
      </trkpt>
      <trkpt lat="44.83538" lon="-0.52159">
        <ele>44.48828125</ele>
        <time>2022-02-23T12:51:43Z</time>
      </trkpt>
      <trkpt lat="44.83539" lon="-0.52183">
        <ele>52.900001525879</ele>
        <time>2022-02-23T12:54:15Z</time>
      </trkpt>
      <trkpt lat="44.83545" lon="-0.52168">
        <ele>29.749938964844</ele>
        <time>2022-02-23T12:54:23Z</time>
      </trkpt>
      <trkpt lat="44.83548" lon="-0.52186">
        <ele>41.800048828125</ele>
        <time>2022-02-23T12:54:55Z</time>
      </trkpt>
      <trkpt lat="44.83546" lon="-0.522">
        <ele>44.972778320312</ele>
        <time>2022-02-23T12:55:01Z</time>
      </trkpt>
      <trkpt lat="44.83539" lon="-0.52211">
        <ele>46.746459960938</ele>
        <time>2022-02-23T12:55:10Z</time>
      </trkpt>
      <trkpt lat="44.83538" lon="-0.52224">
        <ele>48.49267578125</ele>
        <time>2022-02-23T12:55:16Z</time>
      </trkpt>
      <trkpt lat="44.83535" lon="-0.52239">
        <ele>50.317749023438</ele>
        <time>2022-02-23T12:55:26Z</time>
      </trkpt>
      <trkpt lat="44.83534" lon="-0.52254">
        <ele>45.333618164062</ele>
        <time>2022-02-23T12:55:34Z</time>
      </trkpt>
      <trkpt lat="44.83532" lon="-0.52268">
        <ele>46.201782226562</ele>
        <time>2022-02-23T12:55:42Z</time>
      </trkpt>
      <trkpt lat="44.83531" lon="-0.52283">
        <ele>50.809204101562</ele>
        <time>2022-02-23T12:55:50Z</time>
      </trkpt>
      <trkpt lat="44.8353" lon="-0.52297">
        <ele>48.178161621094</ele>
        <time>2022-02-23T12:55:58Z</time>
      </trkpt>
      <trkpt lat="44.83531" lon="-0.52312">
        <ele>42.763916015625</ele>
        <time>2022-02-23T12:56:12Z</time>
      </trkpt>
      <trkpt lat="44.83537" lon="-0.52323">
        <ele>43.286804199219</ele>
        <time>2022-02-23T12:56:18Z</time>
      </trkpt>
      <trkpt lat="44.83547" lon="-0.5233">
        <ele>42.274047851562</ele>
        <time>2022-02-23T12:56:25Z</time>
      </trkpt>
      <trkpt lat="44.83557" lon="-0.52335">
        <ele>46.959228515625</ele>
        <time>2022-02-23T12:56:33Z</time>
      </trkpt>
      <trkpt lat="44.83567" lon="-0.52339">
        <ele>46.603942871094</ele>
        <time>2022-02-23T12:56:43Z</time>
      </trkpt>
      <trkpt lat="44.83576" lon="-0.52343">
        <ele>48.147521972656</ele>
        <time>2022-02-23T12:56:50Z</time>
      </trkpt>
      <trkpt lat="44.83587" lon="-0.52347">
        <ele>48.218627929688</ele>
        <time>2022-02-23T12:56:58Z</time>
      </trkpt>
      <trkpt lat="44.83597" lon="-0.5235">
        <ele>48.2783203125</ele>
        <time>2022-02-23T12:57:07Z</time>
      </trkpt>
      <trkpt lat="44.83607" lon="-0.52357">
        <ele>47.424865722656</ele>
        <time>2022-02-23T12:57:15Z</time>
      </trkpt>
      <trkpt lat="44.83617" lon="-0.52364">
        <ele>47.6015625</ele>
        <time>2022-02-23T12:57:23Z</time>
      </trkpt>
      <trkpt lat="44.83626" lon="-0.52371">
        <ele>45.052551269531</ele>
        <time>2022-02-23T12:57:29Z</time>
      </trkpt>
      <trkpt lat="44.83634" lon="-0.52378">
        <ele>44.222595214844</ele>
        <time>2022-02-23T12:57:35Z</time>
      </trkpt>
      <trkpt lat="44.83643" lon="-0.52386">
        <ele>41.413330078125</ele>
        <time>2022-02-23T12:57:43Z</time>
      </trkpt>
      <trkpt lat="44.83653" lon="-0.52393">
        <ele>41.087524414062</ele>
        <time>2022-02-23T12:57:50Z</time>
      </trkpt>
      <trkpt lat="44.83662" lon="-0.524">
        <ele>43.783447265625</ele>
        <time>2022-02-23T12:57:58Z</time>
      </trkpt>
      <trkpt lat="44.83672" lon="-0.52405">
        <ele>44.239013671875</ele>
        <time>2022-02-23T12:58:07Z</time>
      </trkpt>
      <trkpt lat="44.83681" lon="-0.52407">
        <ele>44.695983886719</ele>
        <time>2022-02-23T12:58:15Z</time>
      </trkpt>
      <trkpt lat="44.83692" lon="-0.52408">
        <ele>46.981201171875</ele>
        <time>2022-02-23T12:58:25Z</time>
      </trkpt>
      <trkpt lat="44.83702" lon="-0.52408">
        <ele>48.015625</ele>
        <time>2022-02-23T12:58:33Z</time>
      </trkpt>
      <trkpt lat="44.83712" lon="-0.52411">
        <ele>47.445861816406</ele>
        <time>2022-02-23T12:58:45Z</time>
      </trkpt>
      <trkpt lat="44.83721" lon="-0.52415">
        <ele>49.880554199219</ele>
        <time>2022-02-23T12:59:05Z</time>
      </trkpt>
      <trkpt lat="44.83726" lon="-0.52428">
        <ele>48.709594726562</ele>
        <time>2022-02-23T12:59:12Z</time>
      </trkpt>
      <trkpt lat="44.83736" lon="-0.52431">
        <ele>51.494323730469</ele>
        <time>2022-02-23T12:59:22Z</time>
      </trkpt>
      <trkpt lat="44.83746" lon="-0.52433">
        <ele>57.93408203125</ele>
        <time>2022-02-23T12:59:29Z</time>
      </trkpt>
      <trkpt lat="44.83756" lon="-0.52436">
        <ele>56.98583984375</ele>
        <time>2022-02-23T12:59:38Z</time>
      </trkpt>
      <trkpt lat="44.83766" lon="-0.52437">
        <ele>58.469421386719</ele>
        <time>2022-02-23T12:59:46Z</time>
      </trkpt>
      <trkpt lat="44.83777" lon="-0.5244">
        <ele>57.350646972656</ele>
        <time>2022-02-23T12:59:54Z</time>
      </trkpt>
      <trkpt lat="44.83787" lon="-0.52447">
        <ele>55.76953125</ele>
        <time>2022-02-23T13:00:00Z</time>
      </trkpt>
      <trkpt lat="44.83796" lon="-0.52453">
        <ele>54.683532714844</ele>
        <time>2022-02-23T13:00:07Z</time>
      </trkpt>
      <trkpt lat="44.83806" lon="-0.52453">
        <ele>50.583679199219</ele>
        <time>2022-02-23T13:00:15Z</time>
      </trkpt>
      <trkpt lat="44.83817" lon="-0.52453">
        <ele>51.751647949219</ele>
        <time>2022-02-23T13:00:26Z</time>
      </trkpt>
      <trkpt lat="44.83825" lon="-0.5245">
        <ele>55.468933105469</ele>
        <time>2022-02-23T13:00:33Z</time>
      </trkpt>
      <trkpt lat="44.83833" lon="-0.52459">
        <ele>54.670104980469</ele>
        <time>2022-02-23T13:00:39Z</time>
      </trkpt>
      <trkpt lat="44.83844" lon="-0.52461">
        <ele>59.0625</ele>
        <time>2022-02-23T13:00:47Z</time>
      </trkpt>
      <trkpt lat="44.83855" lon="-0.5246">
        <ele>59.756591796875</ele>
        <time>2022-02-23T13:00:56Z</time>
      </trkpt>
      <trkpt lat="44.83866" lon="-0.52461">
        <ele>60.704284667969</ele>
        <time>2022-02-23T13:01:03Z</time>
      </trkpt>
      <trkpt lat="44.83875" lon="-0.52462">
        <ele>58.860229492188</ele>
        <time>2022-02-23T13:01:12Z</time>
      </trkpt>
      <trkpt lat="44.83887" lon="-0.52474">
        <ele>53.660949707031</ele>
        <time>2022-02-23T13:01:25Z</time>
      </trkpt>
      <trkpt lat="44.83897" lon="-0.52473">
        <ele>54.701416015625</ele>
        <time>2022-02-23T13:01:32Z</time>
      </trkpt>
      <trkpt lat="44.83907" lon="-0.52474">
        <ele>57.950866699219</ele>
        <time>2022-02-23T13:01:38Z</time>
      </trkpt>
      <trkpt lat="44.83918" lon="-0.52475">
        <ele>62.812744140625</ele>
        <time>2022-02-23T13:01:45Z</time>
      </trkpt>
      <trkpt lat="44.83929" lon="-0.52475">
        <ele>67.765075683594</ele>
        <time>2022-02-23T13:01:50Z</time>
      </trkpt>
      <trkpt lat="44.83939" lon="-0.52472">
        <ele>69.406188964844</ele>
        <time>2022-02-23T13:01:56Z</time>
      </trkpt>
      <trkpt lat="44.83948" lon="-0.52468">
        <ele>67.731384277344</ele>
        <time>2022-02-23T13:02:03Z</time>
      </trkpt>
      <trkpt lat="44.83958" lon="-0.52466">
        <ele>64.993774414062</ele>
        <time>2022-02-23T13:02:16Z</time>
      </trkpt>
      <trkpt lat="44.83968" lon="-0.52461">
        <ele>62.5615234375</ele>
        <time>2022-02-23T13:02:24Z</time>
      </trkpt>
      <trkpt lat="44.83974" lon="-0.52451">
        <ele>60.264709472656</ele>
        <time>2022-02-23T13:02:32Z</time>
      </trkpt>
      <trkpt lat="44.8398" lon="-0.52438">
        <ele>56.038940429688</ele>
        <time>2022-02-23T13:02:40Z</time>
      </trkpt>
      <trkpt lat="44.83984" lon="-0.52426">
        <ele>55.240356445312</ele>
        <time>2022-02-23T13:03:08Z</time>
      </trkpt>
      <trkpt lat="44.83986" lon="-0.52413">
        <ele>58.141662597656</ele>
        <time>2022-02-23T13:03:17Z</time>
      </trkpt>
      <trkpt lat="44.83987" lon="-0.52397">
        <ele>55.788391113281</ele>
        <time>2022-02-23T13:03:24Z</time>
      </trkpt>
      <trkpt lat="44.83986" lon="-0.52384">
        <ele>54.551391601562</ele>
        <time>2022-02-23T13:03:30Z</time>
      </trkpt>
      <trkpt lat="44.83986" lon="-0.5237">
        <ele>53.709411621094</ele>
        <time>2022-02-23T13:03:36Z</time>
      </trkpt>
      <trkpt lat="44.83987" lon="-0.52356">
        <ele>52.807800292969</ele>
        <time>2022-02-23T13:03:43Z</time>
      </trkpt>
      <trkpt lat="44.83988" lon="-0.52342">
        <ele>55.901489257812</ele>
        <time>2022-02-23T13:03:51Z</time>
      </trkpt>
      <trkpt lat="44.83991" lon="-0.52327">
        <ele>51.735900878906</ele>
        <time>2022-02-23T13:04:00Z</time>
      </trkpt>
      <trkpt lat="44.8399" lon="-0.52312">
        <ele>49.572326660156</ele>
        <time>2022-02-23T13:04:08Z</time>
      </trkpt>
      <trkpt lat="44.83993" lon="-0.52299">
        <ele>51.410339355469</ele>
        <time>2022-02-23T13:04:17Z</time>
      </trkpt>
      <trkpt lat="44.83992" lon="-0.52285">
        <ele>49.937072753906</ele>
        <time>2022-02-23T13:04:25Z</time>
      </trkpt>
      <trkpt lat="44.83993" lon="-0.5227">
        <ele>48.296569824219</ele>
        <time>2022-02-23T13:04:32Z</time>
      </trkpt>
      <trkpt lat="44.83992" lon="-0.52255">
        <ele>48.969604492188</ele>
        <time>2022-02-23T13:04:39Z</time>
      </trkpt>
      <trkpt lat="44.83992" lon="-0.5224">
        <ele>50.143493652344</ele>
        <time>2022-02-23T13:04:47Z</time>
      </trkpt>
      <trkpt lat="44.83992" lon="-0.52226">
        <ele>51.652770996094</ele>
        <time>2022-02-23T13:04:55Z</time>
      </trkpt>
      <trkpt lat="44.83994" lon="-0.52211">
        <ele>52.861083984375</ele>
        <time>2022-02-23T13:05:02Z</time>
      </trkpt>
      <trkpt lat="44.83992" lon="-0.52196">
        <ele>49.594543457031</ele>
        <time>2022-02-23T13:05:10Z</time>
      </trkpt>
      <trkpt lat="44.83992" lon="-0.52182">
        <ele>48.388732910156</ele>
        <time>2022-02-23T13:05:18Z</time>
      </trkpt>
      <trkpt lat="44.83993" lon="-0.52168">
        <ele>49.936767578125</ele>
        <time>2022-02-23T13:05:28Z</time>
      </trkpt>
      <trkpt lat="44.83993" lon="-0.52181">
        <ele>54.85205078125</ele>
        <time>2022-02-23T13:05:48Z</time>
      </trkpt>
      <trkpt lat="44.8399" lon="-0.52195">
        <ele>53.659606933594</ele>
        <time>2022-02-23T13:06:03Z</time>
      </trkpt>
      <trkpt lat="44.83991" lon="-0.52209">
        <ele>54.950439453125</ele>
        <time>2022-02-23T13:06:10Z</time>
      </trkpt>
      <trkpt lat="44.83992" lon="-0.52223">
        <ele>50.438537597656</ele>
        <time>2022-02-23T13:06:16Z</time>
      </trkpt>
      <trkpt lat="44.83993" lon="-0.52236">
        <ele>55.775756835938</ele>
        <time>2022-02-23T13:06:22Z</time>
      </trkpt>
      <trkpt lat="44.83991" lon="-0.52251">
        <ele>50.480895996094</ele>
        <time>2022-02-23T13:06:30Z</time>
      </trkpt>
      <trkpt lat="44.8399" lon="-0.52266">
        <ele>49.12451171875</ele>
        <time>2022-02-23T13:06:38Z</time>
      </trkpt>
      <trkpt lat="44.83986" lon="-0.52278">
        <ele>47.351440429688</ele>
        <time>2022-02-23T13:06:46Z</time>
      </trkpt>
      <trkpt lat="44.83986" lon="-0.52292">
        <ele>47.740112304688</ele>
        <time>2022-02-23T13:06:55Z</time>
      </trkpt>
      <trkpt lat="44.83988" lon="-0.52307">
        <ele>46.539489746094</ele>
        <time>2022-02-23T13:07:02Z</time>
      </trkpt>
      <trkpt lat="44.83988" lon="-0.52321">
        <ele>49.718017578125</ele>
        <time>2022-02-23T13:07:08Z</time>
      </trkpt>
      <trkpt lat="44.83987" lon="-0.52336">
        <ele>46.504943847656</ele>
        <time>2022-02-23T13:07:14Z</time>
      </trkpt>
      <trkpt lat="44.83988" lon="-0.52351">
        <ele>48.121826171875</ele>
        <time>2022-02-23T13:07:23Z</time>
      </trkpt>
      <trkpt lat="44.83985" lon="-0.52366">
        <ele>51.302551269531</ele>
        <time>2022-02-23T13:07:27Z</time>
      </trkpt>
      <trkpt lat="44.83986" lon="-0.5238">
        <ele>46.297546386719</ele>
        <time>2022-02-23T13:07:36Z</time>
      </trkpt>
      <trkpt lat="44.83984" lon="-0.52394">
        <ele>44.6318359375</ele>
        <time>2022-02-23T13:07:42Z</time>
      </trkpt>
      <trkpt lat="44.83981" lon="-0.52408">
        <ele>44.589172363281</ele>
        <time>2022-02-23T13:07:48Z</time>
      </trkpt>
      <trkpt lat="44.83983" lon="-0.52422">
        <ele>41.172424316406</ele>
        <time>2022-02-23T13:07:57Z</time>
      </trkpt>
      <trkpt lat="44.83988" lon="-0.52436">
        <ele>49.589477539062</ele>
        <time>2022-02-23T13:08:07Z</time>
      </trkpt>
      <trkpt lat="44.83996" lon="-0.52444">
        <ele>50.711059570312</ele>
        <time>2022-02-23T13:08:15Z</time>
      </trkpt>
      <trkpt lat="44.84005" lon="-0.52445">
        <ele>49.78857421875</ele>
        <time>2022-02-23T13:08:28Z</time>
      </trkpt>
      <trkpt lat="44.84013" lon="-0.52435">
        <ele>49.330810546875</ele>
        <time>2022-02-23T13:08:36Z</time>
      </trkpt>
      <trkpt lat="44.84018" lon="-0.52424">
        <ele>48.047668457031</ele>
        <time>2022-02-23T13:08:44Z</time>
      </trkpt>
      <trkpt lat="44.84022" lon="-0.52412">
        <ele>50.399963378906</ele>
        <time>2022-02-23T13:08:51Z</time>
      </trkpt>
      <trkpt lat="44.84027" lon="-0.52397">
        <ele>50.688110351562</ele>
        <time>2022-02-23T13:09:00Z</time>
      </trkpt>
      <trkpt lat="44.84036" lon="-0.52389">
        <ele>50.594116210938</ele>
        <time>2022-02-23T13:09:08Z</time>
      </trkpt>
      <trkpt lat="44.84046" lon="-0.52386">
        <ele>50.096008300781</ele>
        <time>2022-02-23T13:09:16Z</time>
      </trkpt>
      <trkpt lat="44.84056" lon="-0.52387">
        <ele>47.849365234375</ele>
        <time>2022-02-23T13:09:24Z</time>
      </trkpt>
      <trkpt lat="44.84067" lon="-0.52386">
        <ele>47.092956542969</ele>
        <time>2022-02-23T13:09:31Z</time>
      </trkpt>
      <trkpt lat="44.84076" lon="-0.52383">
        <ele>45.4755859375</ele>
        <time>2022-02-23T13:09:38Z</time>
      </trkpt>
      <trkpt lat="44.84087" lon="-0.52386">
        <ele>45.4345703125</ele>
        <time>2022-02-23T13:09:46Z</time>
      </trkpt>
      <trkpt lat="44.84097" lon="-0.52382">
        <ele>46.069213867188</ele>
        <time>2022-02-23T13:09:53Z</time>
      </trkpt>
      <trkpt lat="44.84107" lon="-0.52382">
        <ele>45.651733398438</ele>
        <time>2022-02-23T13:10:00Z</time>
      </trkpt>
      <trkpt lat="44.84118" lon="-0.52381">
        <ele>45.062622070312</ele>
        <time>2022-02-23T13:10:07Z</time>
      </trkpt>
      <trkpt lat="44.84128" lon="-0.52382">
        <ele>46.694091796875</ele>
        <time>2022-02-23T13:10:13Z</time>
      </trkpt>
      <trkpt lat="44.84138" lon="-0.52386">
        <ele>45.806518554688</ele>
        <time>2022-02-23T13:10:21Z</time>
      </trkpt>
      <trkpt lat="44.84147" lon="-0.52389">
        <ele>43.632568359375</ele>
        <time>2022-02-23T13:10:28Z</time>
      </trkpt>
      <trkpt lat="44.84157" lon="-0.52392">
        <ele>41.373046875</ele>
        <time>2022-02-23T13:10:36Z</time>
      </trkpt>
      <trkpt lat="44.84165" lon="-0.52384">
        <ele>38.740539550781</ele>
        <time>2022-02-23T13:11:16Z</time>
      </trkpt>
      <trkpt lat="44.84175" lon="-0.52392">
        <ele>37.220825195312</ele>
        <time>2022-02-23T13:11:21Z</time>
      </trkpt>
      <trkpt lat="44.84181" lon="-0.52403">
        <ele>32.925170898438</ele>
        <time>2022-02-23T13:11:29Z</time>
      </trkpt>
      <trkpt lat="44.84193" lon="-0.52409">
        <ele>30.827392578125</ele>
        <time>2022-02-23T13:11:35Z</time>
      </trkpt>
      <trkpt lat="44.84204" lon="-0.52418">
        <ele>32.817993164062</ele>
        <time>2022-02-23T13:11:41Z</time>
      </trkpt>
      <trkpt lat="44.84213" lon="-0.52427">
        <ele>32.897827148438</ele>
        <time>2022-02-23T13:11:48Z</time>
      </trkpt>
      <trkpt lat="44.84222" lon="-0.52434">
        <ele>31.058959960938</ele>
        <time>2022-02-23T13:11:55Z</time>
      </trkpt>
      <trkpt lat="44.84231" lon="-0.52443">
        <ele>32.498291015625</ele>
        <time>2022-02-23T13:12:03Z</time>
      </trkpt>
      <trkpt lat="44.84239" lon="-0.52451">
        <ele>34.317504882812</ele>
        <time>2022-02-23T13:12:09Z</time>
      </trkpt>
      <trkpt lat="44.84243" lon="-0.52464">
        <ele>28.098022460938</ele>
        <time>2022-02-23T13:12:15Z</time>
      </trkpt>
      <trkpt lat="44.84252" lon="-0.52473">
        <ele>26.605285644531</ele>
        <time>2022-02-23T13:12:23Z</time>
      </trkpt>
      <trkpt lat="44.84262" lon="-0.52481">
        <ele>24.401977539062</ele>
        <time>2022-02-23T13:12:29Z</time>
      </trkpt>
      <trkpt lat="44.84271" lon="-0.52486">
        <ele>23.854614257812</ele>
        <time>2022-02-23T13:12:39Z</time>
      </trkpt>
      <trkpt lat="44.8428" lon="-0.5249">
        <ele>26.709716796875</ele>
        <time>2022-02-23T13:12:47Z</time>
      </trkpt>
      <trkpt lat="44.84289" lon="-0.52496">
        <ele>26.045166015625</ele>
        <time>2022-02-23T13:12:53Z</time>
      </trkpt>
      <trkpt lat="44.84298" lon="-0.52503">
        <ele>27.591125488281</ele>
        <time>2022-02-23T13:13:02Z</time>
      </trkpt>
      <trkpt lat="44.84309" lon="-0.52507">
        <ele>26.579956054688</ele>
        <time>2022-02-23T13:13:10Z</time>
      </trkpt>
      <trkpt lat="44.84317" lon="-0.52512">
        <ele>26.37451171875</ele>
        <time>2022-02-23T13:13:17Z</time>
      </trkpt>
      <trkpt lat="44.84326" lon="-0.52519">
        <ele>22.695678710938</ele>
        <time>2022-02-23T13:13:36Z</time>
      </trkpt>
      <trkpt lat="44.84338" lon="-0.52522">
        <ele>20.508605957031</ele>
        <time>2022-02-23T13:13:45Z</time>
      </trkpt>
      <trkpt lat="44.84347" lon="-0.52524">
        <ele>18.647094726562</ele>
        <time>2022-02-23T13:13:51Z</time>
      </trkpt>
      <trkpt lat="44.84357" lon="-0.52529">
        <ele>16.413146972656</ele>
        <time>2022-02-23T13:14:00Z</time>
      </trkpt>
      <trkpt lat="44.84367" lon="-0.52533">
        <ele>10.67578125</ele>
        <time>2022-02-23T13:14:08Z</time>
      </trkpt>
      <trkpt lat="44.84377" lon="-0.52535">
        <ele>8.1549072265625</ele>
        <time>2022-02-23T13:14:18Z</time>
      </trkpt>
      <trkpt lat="44.84388" lon="-0.52535">
        <ele>9.36474609375</ele>
        <time>2022-02-23T13:14:25Z</time>
      </trkpt>
      <trkpt lat="44.84399" lon="-0.52539">
        <ele>9.8943481445312</ele>
        <time>2022-02-23T13:14:33Z</time>
      </trkpt>
      <trkpt lat="44.84406" lon="-0.52551">
        <ele>10.308776855469</ele>
        <time>2022-02-23T13:14:41Z</time>
      </trkpt>
      <trkpt lat="44.84405" lon="-0.52565">
        <ele>9.3965454101562</ele>
        <time>2022-02-23T13:14:47Z</time>
      </trkpt>
      <trkpt lat="44.84405" lon="-0.52579">
        <ele>9.3294677734375</ele>
        <time>2022-02-23T13:14:54Z</time>
      </trkpt>
      <trkpt lat="44.84412" lon="-0.52588">
        <ele>6.4299926757812</ele>
        <time>2022-02-23T13:15:06Z</time>
      </trkpt>
      <trkpt lat="44.8442" lon="-0.52597">
        <ele>6.9723510742188</ele>
        <time>2022-02-23T13:15:12Z</time>
      </trkpt>
      <trkpt lat="44.84429" lon="-0.52588">
        <ele>9.6310424804688</ele>
        <time>2022-02-23T13:15:20Z</time>
      </trkpt>
      <trkpt lat="44.84436" lon="-0.52577">
        <ele>9.0069580078125</ele>
        <time>2022-02-23T13:15:30Z</time>
      </trkpt>
      <trkpt lat="44.84444" lon="-0.52566">
        <ele>12.053344726562</ele>
        <time>2022-02-23T13:15:37Z</time>
      </trkpt>
      <trkpt lat="44.84455" lon="-0.52573">
        <ele>19.577392578125</ele>
        <time>2022-02-23T13:16:16Z</time>
      </trkpt>
      <trkpt lat="44.84462" lon="-0.52584">
        <ele>19.000732421875</ele>
        <time>2022-02-23T13:16:46Z</time>
      </trkpt>
      <trkpt lat="44.84461" lon="-0.52598">
        <ele>22.549133300781</ele>
        <time>2022-02-23T13:17:01Z</time>
      </trkpt>
      <trkpt lat="44.84465" lon="-0.52612">
        <ele>17.768432617188</ele>
        <time>2022-02-23T13:17:09Z</time>
      </trkpt>
      <trkpt lat="44.84457" lon="-0.52622">
        <ele>18.516540527344</ele>
        <time>2022-02-23T13:17:15Z</time>
      </trkpt>
      <trkpt lat="44.84457" lon="-0.52636">
        <ele>19.70751953125</ele>
        <time>2022-02-23T13:17:20Z</time>
      </trkpt>
      <trkpt lat="44.84448" lon="-0.52645">
        <ele>21.0966796875</ele>
        <time>2022-02-23T13:17:28Z</time>
      </trkpt>
      <trkpt lat="44.84439" lon="-0.52653">
        <ele>24.01220703125</ele>
        <time>2022-02-23T13:17:38Z</time>
      </trkpt>
      <trkpt lat="44.84438" lon="-0.52668">
        <ele>21.358703613281</ele>
        <time>2022-02-23T13:17:46Z</time>
      </trkpt>
      <trkpt lat="44.84443" lon="-0.52681">
        <ele>20.279235839844</ele>
        <time>2022-02-23T13:18:05Z</time>
      </trkpt>
      <trkpt lat="44.84444" lon="-0.52695">
        <ele>30.846740722656</ele>
        <time>2022-02-23T13:18:27Z</time>
      </trkpt>
      <trkpt lat="44.84449" lon="-0.5271">
        <ele>30.950378417969</ele>
        <time>2022-02-23T13:18:33Z</time>
      </trkpt>
      <trkpt lat="44.8445" lon="-0.52725">
        <ele>29.340698242188</ele>
        <time>2022-02-23T13:18:40Z</time>
      </trkpt>
      <trkpt lat="44.84455" lon="-0.52736">
        <ele>29.6142578125</ele>
        <time>2022-02-23T13:18:59Z</time>
      </trkpt>
      <trkpt lat="44.84461" lon="-0.52749">
        <ele>39.3505859375</ele>
        <time>2022-02-23T13:19:21Z</time>
      </trkpt>
      <trkpt lat="44.84465" lon="-0.52763">
        <ele>32.065795898438</ele>
        <time>2022-02-23T13:19:31Z</time>
      </trkpt>
      <trkpt lat="44.84469" lon="-0.5278">
        <ele>33.949768066406</ele>
        <time>2022-02-23T13:20:10Z</time>
      </trkpt>
      <trkpt lat="44.84481" lon="-0.52785">
        <ele>33.019165039062</ele>
        <time>2022-02-23T13:20:28Z</time>
      </trkpt>
      <trkpt lat="44.84492" lon="-0.52787">
        <ele>35.112182617188</ele>
        <time>2022-02-23T13:20:35Z</time>
      </trkpt>
      <trkpt lat="44.84499" lon="-0.52797">
        <ele>37.541015625</ele>
        <time>2022-02-23T13:21:49Z</time>
      </trkpt>
      <trkpt lat="44.84499" lon="-0.52812">
        <ele>34.428649902344</ele>
        <time>2022-02-23T13:21:56Z</time>
      </trkpt>
      <trkpt lat="44.84505" lon="-0.52823">
        <ele>41.160339355469</ele>
        <time>2022-02-23T13:22:03Z</time>
      </trkpt>
      <trkpt lat="44.84504" lon="-0.52836">
        <ele>42.103759765625</ele>
        <time>2022-02-23T13:22:13Z</time>
      </trkpt>
      <trkpt lat="44.84504" lon="-0.5285">
        <ele>42.234191894531</ele>
        <time>2022-02-23T13:22:21Z</time>
      </trkpt>
      <trkpt lat="44.84503" lon="-0.52864">
        <ele>43.141967773438</ele>
        <time>2022-02-23T13:22:30Z</time>
      </trkpt>
      <trkpt lat="44.84497" lon="-0.52876">
        <ele>44.843383789062</ele>
        <time>2022-02-23T13:22:40Z</time>
      </trkpt>
      <trkpt lat="44.84489" lon="-0.52885">
        <ele>46.590209960938</ele>
        <time>2022-02-23T13:22:50Z</time>
      </trkpt>
      <trkpt lat="44.84484" lon="-0.52896">
        <ele>42.9111328125</ele>
        <time>2022-02-23T13:23:00Z</time>
      </trkpt>
      <trkpt lat="44.8448" lon="-0.52909">
        <ele>39.400451660156</ele>
        <time>2022-02-23T13:23:08Z</time>
      </trkpt>
      <trkpt lat="44.84478" lon="-0.52923">
        <ele>38.303039550781</ele>
        <time>2022-02-23T13:23:18Z</time>
      </trkpt>
      <trkpt lat="44.84479" lon="-0.52941">
        <ele>53.408081054688</ele>
        <time>2022-02-23T13:23:34Z</time>
      </trkpt>
      <trkpt lat="44.84483" lon="-0.52955">
        <ele>47.83740234375</ele>
        <time>2022-02-23T13:23:43Z</time>
      </trkpt>
      <trkpt lat="44.84489" lon="-0.52967">
        <ele>42.650268554688</ele>
        <time>2022-02-23T13:23:50Z</time>
      </trkpt>
      <trkpt lat="44.84496" lon="-0.52977">
        <ele>45.076599121094</ele>
        <time>2022-02-23T13:23:58Z</time>
      </trkpt>
      <trkpt lat="44.84503" lon="-0.52987">
        <ele>41.179748535156</ele>
        <time>2022-02-23T13:24:06Z</time>
      </trkpt>
      <trkpt lat="44.84508" lon="-0.52999">
        <ele>38.1806640625</ele>
        <time>2022-02-23T13:24:14Z</time>
      </trkpt>
      <trkpt lat="44.84514" lon="-0.53012">
        <ele>37.561645507812</ele>
        <time>2022-02-23T13:24:24Z</time>
      </trkpt>
      <trkpt lat="44.8452" lon="-0.53021">
        <ele>35.96484375</ele>
        <time>2022-02-23T13:24:32Z</time>
      </trkpt>
      <trkpt lat="44.84528" lon="-0.53029">
        <ele>37.136047363281</ele>
        <time>2022-02-23T13:24:41Z</time>
      </trkpt>
      <trkpt lat="44.84539" lon="-0.53035">
        <ele>41.836791992188</ele>
        <time>2022-02-23T13:24:47Z</time>
      </trkpt>
      <trkpt lat="44.84546" lon="-0.53043">
        <ele>37.592163085938</ele>
        <time>2022-02-23T13:24:54Z</time>
      </trkpt>
      <trkpt lat="44.84554" lon="-0.53053">
        <ele>36.029052734375</ele>
        <time>2022-02-23T13:25:00Z</time>
      </trkpt>
      <trkpt lat="44.84563" lon="-0.53053">
        <ele>39.09375</ele>
        <time>2022-02-23T13:25:15Z</time>
      </trkpt>
      <trkpt lat="44.84575" lon="-0.53055">
        <ele>40.274719238281</ele>
        <time>2022-02-23T13:25:22Z</time>
      </trkpt>
      <trkpt lat="44.84586" lon="-0.53056">
        <ele>35.89501953125</ele>
        <time>2022-02-23T13:25:29Z</time>
      </trkpt>
      <trkpt lat="44.84596" lon="-0.53057">
        <ele>34.702819824219</ele>
        <time>2022-02-23T13:25:34Z</time>
      </trkpt>
      <trkpt lat="44.84607" lon="-0.53057">
        <ele>40.815124511719</ele>
        <time>2022-02-23T13:25:40Z</time>
      </trkpt>
      <trkpt lat="44.84618" lon="-0.53059">
        <ele>39.817687988281</ele>
        <time>2022-02-23T13:25:47Z</time>
      </trkpt>
      <trkpt lat="44.84628" lon="-0.53059">
        <ele>41.266967773438</ele>
        <time>2022-02-23T13:25:54Z</time>
      </trkpt>
      <trkpt lat="44.84639" lon="-0.53064">
        <ele>48.33984375</ele>
        <time>2022-02-23T13:26:03Z</time>
      </trkpt>
      <trkpt lat="44.84643" lon="-0.53076">
        <ele>46.443725585938</ele>
        <time>2022-02-23T13:26:11Z</time>
      </trkpt>
      <trkpt lat="44.84647" lon="-0.53089">
        <ele>44.972961425781</ele>
        <time>2022-02-23T13:26:20Z</time>
      </trkpt>
      <trkpt lat="44.84657" lon="-0.53095">
        <ele>46.665344238281</ele>
        <time>2022-02-23T13:26:29Z</time>
      </trkpt>
      <trkpt lat="44.84666" lon="-0.53102">
        <ele>48.506896972656</ele>
        <time>2022-02-23T13:26:37Z</time>
      </trkpt>
      <trkpt lat="44.84674" lon="-0.53113">
        <ele>48.547058105469</ele>
        <time>2022-02-23T13:26:44Z</time>
      </trkpt>
      <trkpt lat="44.84677" lon="-0.53126">
        <ele>45.7548828125</ele>
        <time>2022-02-23T13:26:52Z</time>
      </trkpt>
      <trkpt lat="44.84678" lon="-0.53141">
        <ele>42.677978515625</ele>
        <time>2022-02-23T13:27:00Z</time>
      </trkpt>
      <trkpt lat="44.84677" lon="-0.53155">
        <ele>41.883605957031</ele>
        <time>2022-02-23T13:27:08Z</time>
      </trkpt>
      <trkpt lat="44.84679" lon="-0.53169">
        <ele>41.501281738281</ele>
        <time>2022-02-23T13:27:16Z</time>
      </trkpt>
      <trkpt lat="44.84685" lon="-0.53179">
        <ele>43.052307128906</ele>
        <time>2022-02-23T13:27:24Z</time>
      </trkpt>
      <trkpt lat="44.84694" lon="-0.53184">
        <ele>39.924438476562</ele>
        <time>2022-02-23T13:27:34Z</time>
      </trkpt>
      <trkpt lat="44.84705" lon="-0.53185">
        <ele>30.775024414062</ele>
        <time>2022-02-23T13:27:39Z</time>
      </trkpt>
      <trkpt lat="44.84715" lon="-0.53187">
        <ele>27.692932128906</ele>
        <time>2022-02-23T13:27:47Z</time>
      </trkpt>
      <trkpt lat="44.84725" lon="-0.53187">
        <ele>26.549377441406</ele>
        <time>2022-02-23T13:27:57Z</time>
      </trkpt>
      <trkpt lat="44.84734" lon="-0.5319">
        <ele>27.849060058594</ele>
        <time>2022-02-23T13:28:05Z</time>
      </trkpt>
      <trkpt lat="44.84742" lon="-0.53185">
        <ele>31.271057128906</ele>
        <time>2022-02-23T13:28:17Z</time>
      </trkpt>
      <trkpt lat="44.84753" lon="-0.53186">
        <ele>33.038330078125</ele>
        <time>2022-02-23T13:29:05Z</time>
      </trkpt>
      <trkpt lat="44.84762" lon="-0.5318">
        <ele>25.431091308594</ele>
        <time>2022-02-23T13:29:12Z</time>
      </trkpt>
      <trkpt lat="44.84773" lon="-0.5318">
        <ele>27.756225585938</ele>
        <time>2022-02-23T13:29:20Z</time>
      </trkpt>
      <trkpt lat="44.84781" lon="-0.53186">
        <ele>28.511596679688</ele>
        <time>2022-02-23T13:29:27Z</time>
      </trkpt>
      <trkpt lat="44.84791" lon="-0.53185">
        <ele>26.694580078125</ele>
        <time>2022-02-23T13:29:38Z</time>
      </trkpt>
      <trkpt lat="44.84802" lon="-0.53188">
        <ele>26.673583984375</ele>
        <time>2022-02-23T13:29:48Z</time>
      </trkpt>
      <trkpt lat="44.84812" lon="-0.53186">
        <ele>24.343627929688</ele>
        <time>2022-02-23T13:29:59Z</time>
      </trkpt>
      <trkpt lat="44.84823" lon="-0.53187">
        <ele>24.35400390625</ele>
        <time>2022-02-23T13:30:05Z</time>
      </trkpt>
      <trkpt lat="44.84833" lon="-0.5319">
        <ele>17.718994140625</ele>
        <time>2022-02-23T13:30:20Z</time>
      </trkpt>
      <trkpt lat="44.84843" lon="-0.53193">
        <ele>15.359497070312</ele>
        <time>2022-02-23T13:30:26Z</time>
      </trkpt>
      <trkpt lat="44.84853" lon="-0.53191">
        <ele>8.435546875</ele>
        <time>2022-02-23T13:30:33Z</time>
      </trkpt>
      <trkpt lat="44.8486" lon="-0.53182">
        <ele>9.3125610351562</ele>
        <time>2022-02-23T13:30:42Z</time>
      </trkpt>
      <trkpt lat="44.84867" lon="-0.5319">
        <ele>7.684326171875</ele>
        <time>2022-02-23T13:30:52Z</time>
      </trkpt>
      <trkpt lat="44.84877" lon="-0.53188">
        <ele>9.2803344726562</ele>
        <time>2022-02-23T13:31:02Z</time>
      </trkpt>
      <trkpt lat="44.84887" lon="-0.53188">
        <ele>17.859008789062</ele>
        <time>2022-02-23T13:31:13Z</time>
      </trkpt>
      <trkpt lat="44.84897" lon="-0.53188">
        <ele>24.063354492188</ele>
        <time>2022-02-23T13:31:24Z</time>
      </trkpt>
      <trkpt lat="44.84907" lon="-0.53188">
        <ele>24.519775390625</ele>
        <time>2022-02-23T13:31:31Z</time>
      </trkpt>
      <trkpt lat="44.84918" lon="-0.53188">
        <ele>22.600830078125</ele>
        <time>2022-02-23T13:31:39Z</time>
      </trkpt>
      <trkpt lat="44.84928" lon="-0.53187">
        <ele>24.638732910156</ele>
        <time>2022-02-23T13:31:46Z</time>
      </trkpt>
      <trkpt lat="44.84936" lon="-0.53183">
        <ele>31.227661132812</ele>
        <time>2022-02-23T13:31:55Z</time>
      </trkpt>
      <trkpt lat="44.84947" lon="-0.53179">
        <ele>25.567932128906</ele>
        <time>2022-02-23T13:32:02Z</time>
      </trkpt>
      <trkpt lat="44.84956" lon="-0.53173">
        <ele>29.288696289062</ele>
        <time>2022-02-23T13:32:08Z</time>
      </trkpt>
      <trkpt lat="44.84964" lon="-0.53165">
        <ele>33.008544921875</ele>
        <time>2022-02-23T13:32:15Z</time>
      </trkpt>
      <trkpt lat="44.84974" lon="-0.53165">
        <ele>35.708984375</ele>
        <time>2022-02-23T13:32:23Z</time>
      </trkpt>
      <trkpt lat="44.84984" lon="-0.53155">
        <ele>34.652770996094</ele>
        <time>2022-02-23T13:32:35Z</time>
      </trkpt>
      <trkpt lat="44.84994" lon="-0.53151">
        <ele>37.397338867188</ele>
        <time>2022-02-23T13:32:44Z</time>
      </trkpt>
      <trkpt lat="44.85003" lon="-0.53144">
        <ele>34.804321289062</ele>
        <time>2022-02-23T13:32:53Z</time>
      </trkpt>
      <trkpt lat="44.85012" lon="-0.53133">
        <ele>38.309387207031</ele>
        <time>2022-02-23T13:33:00Z</time>
      </trkpt>
      <trkpt lat="44.85016" lon="-0.5312">
        <ele>37.307983398438</ele>
        <time>2022-02-23T13:33:09Z</time>
      </trkpt>
      <trkpt lat="44.85019" lon="-0.53107">
        <ele>39.166137695312</ele>
        <time>2022-02-23T13:33:16Z</time>
      </trkpt>
      <trkpt lat="44.85023" lon="-0.53091">
        <ele>38.783447265625</ele>
        <time>2022-02-23T13:33:24Z</time>
      </trkpt>
      <trkpt lat="44.85021" lon="-0.53077">
        <ele>34.347351074219</ele>
        <time>2022-02-23T13:33:31Z</time>
      </trkpt>
      <trkpt lat="44.85019" lon="-0.53061">
        <ele>33.4111328125</ele>
        <time>2022-02-23T13:33:39Z</time>
      </trkpt>
      <trkpt lat="44.85021" lon="-0.53049">
        <ele>34.62451171875</ele>
        <time>2022-02-23T13:33:47Z</time>
      </trkpt>
      <trkpt lat="44.85022" lon="-0.53036">
        <ele>39.571411132812</ele>
        <time>2022-02-23T13:33:55Z</time>
      </trkpt>
      <trkpt lat="44.85023" lon="-0.53018">
        <ele>41.489318847656</ele>
        <time>2022-02-23T13:34:08Z</time>
      </trkpt>
      <trkpt lat="44.85028" lon="-0.53006">
        <ele>43.221618652344</ele>
        <time>2022-02-23T13:34:15Z</time>
      </trkpt>
      <trkpt lat="44.85034" lon="-0.52995">
        <ele>42.976806640625</ele>
        <time>2022-02-23T13:34:21Z</time>
      </trkpt>
      <trkpt lat="44.8504" lon="-0.52985">
        <ele>48.86328125</ele>
        <time>2022-02-23T13:34:28Z</time>
      </trkpt>
      <trkpt lat="44.85045" lon="-0.52974">
        <ele>49.913757324219</ele>
        <time>2022-02-23T13:34:36Z</time>
      </trkpt>
      <trkpt lat="44.85051" lon="-0.52957">
        <ele>49.700561523438</ele>
        <time>2022-02-23T13:35:03Z</time>
      </trkpt>
      <trkpt lat="44.85054" lon="-0.52943">
        <ele>49.357177734375</ele>
        <time>2022-02-23T13:35:13Z</time>
      </trkpt>
      <trkpt lat="44.85064" lon="-0.5294">
        <ele>53.68994140625</ele>
        <time>2022-02-23T13:35:27Z</time>
      </trkpt>
      <trkpt lat="44.85073" lon="-0.52938">
        <ele>53.272216796875</ele>
        <time>2022-02-23T13:35:33Z</time>
      </trkpt>
      <trkpt lat="44.85084" lon="-0.5294">
        <ele>50.528137207031</ele>
        <time>2022-02-23T13:35:39Z</time>
      </trkpt>
      <trkpt lat="44.85095" lon="-0.52939">
        <ele>52.097290039062</ele>
        <time>2022-02-23T13:35:47Z</time>
      </trkpt>
      <trkpt lat="44.85106" lon="-0.5294">
        <ele>55.9482421875</ele>
        <time>2022-02-23T13:35:55Z</time>
      </trkpt>
      <trkpt lat="44.85115" lon="-0.52942">
        <ele>50.722717285156</ele>
        <time>2022-02-23T13:36:06Z</time>
      </trkpt>
      <trkpt lat="44.85125" lon="-0.5294">
        <ele>55.812438964844</ele>
        <time>2022-02-23T13:38:39Z</time>
      </trkpt>
      <trkpt lat="44.85133" lon="-0.52933">
        <ele>56.170104980469</ele>
        <time>2022-02-23T13:38:45Z</time>
      </trkpt>
      <trkpt lat="44.85143" lon="-0.52925">
        <ele>56.581970214844</ele>
        <time>2022-02-23T13:38:53Z</time>
      </trkpt>
      <trkpt lat="44.85142" lon="-0.5291">
        <ele>57.033569335938</ele>
        <time>2022-02-23T13:39:01Z</time>
      </trkpt>
      <trkpt lat="44.85148" lon="-0.52899">
        <ele>55.3935546875</ele>
        <time>2022-02-23T13:39:08Z</time>
      </trkpt>
      <trkpt lat="44.85151" lon="-0.52886">
        <ele>54.318176269531</ele>
        <time>2022-02-23T13:39:15Z</time>
      </trkpt>
      <trkpt lat="44.85155" lon="-0.52874">
        <ele>56.423645019531</ele>
        <time>2022-02-23T13:39:29Z</time>
      </trkpt>
      <trkpt lat="44.8516" lon="-0.52861">
        <ele>57.458984375</ele>
        <time>2022-02-23T13:39:38Z</time>
      </trkpt>
      <trkpt lat="44.85163" lon="-0.52843">
        <ele>52.66357421875</ele>
        <time>2022-02-23T13:39:51Z</time>
      </trkpt>
      <trkpt lat="44.85169" lon="-0.5283">
        <ele>52.172424316406</ele>
        <time>2022-02-23T13:39:58Z</time>
      </trkpt>
      <trkpt lat="44.85171" lon="-0.52817">
        <ele>57.916809082031</ele>
        <time>2022-02-23T13:40:06Z</time>
      </trkpt>
      <trkpt lat="44.85176" lon="-0.52805">
        <ele>63.89013671875</ele>
        <time>2022-02-23T13:40:13Z</time>
      </trkpt>
      <trkpt lat="44.85179" lon="-0.52792">
        <ele>58.925415039062</ele>
        <time>2022-02-23T13:40:23Z</time>
      </trkpt>
      <trkpt lat="44.85189" lon="-0.52783">
        <ele>57.171569824219</ele>
        <time>2022-02-23T13:40:32Z</time>
      </trkpt>
      <trkpt lat="44.85199" lon="-0.52779">
        <ele>58.031311035156</ele>
        <time>2022-02-23T13:40:40Z</time>
      </trkpt>
      <trkpt lat="44.8521" lon="-0.52778">
        <ele>56.747131347656</ele>
        <time>2022-02-23T13:40:46Z</time>
      </trkpt>
      <trkpt lat="44.85219" lon="-0.52783">
        <ele>64.505310058594</ele>
        <time>2022-02-23T13:40:56Z</time>
      </trkpt>
      <trkpt lat="44.85209" lon="-0.52783">
        <ele>66.496032714844</ele>
        <time>2022-02-23T13:41:06Z</time>
      </trkpt>
      <trkpt lat="44.85199" lon="-0.52782">
        <ele>65.87353515625</ele>
        <time>2022-02-23T13:41:13Z</time>
      </trkpt>
      <trkpt lat="44.85189" lon="-0.52787">
        <ele>64.433837890625</ele>
        <time>2022-02-23T13:41:19Z</time>
      </trkpt>
      <trkpt lat="44.85181" lon="-0.52797">
        <ele>59.764709472656</ele>
        <time>2022-02-23T13:41:26Z</time>
      </trkpt>
      <trkpt lat="44.8518" lon="-0.52812">
        <ele>58.108093261719</ele>
        <time>2022-02-23T13:41:35Z</time>
      </trkpt>
      <trkpt lat="44.85175" lon="-0.52824">
        <ele>60.720031738281</ele>
        <time>2022-02-23T13:41:41Z</time>
      </trkpt>
      <trkpt lat="44.85171" lon="-0.5284">
        <ele>59.635803222656</ele>
        <time>2022-02-23T13:41:51Z</time>
      </trkpt>
      <trkpt lat="44.85182" lon="-0.5284">
        <ele>58.683410644531</ele>
        <time>2022-02-23T13:42:13Z</time>
      </trkpt>
      <trkpt lat="44.85193" lon="-0.52839">
        <ele>55.279663085938</ele>
        <time>2022-02-23T13:42:18Z</time>
      </trkpt>
      <trkpt lat="44.85203" lon="-0.5284">
        <ele>55.674255371094</ele>
        <time>2022-02-23T13:42:23Z</time>
      </trkpt>
      <trkpt lat="44.85213" lon="-0.52843">
        <ele>57.413635253906</ele>
        <time>2022-02-23T13:42:29Z</time>
      </trkpt>
      <trkpt lat="44.85223" lon="-0.52848">
        <ele>53.773803710938</ele>
        <time>2022-02-23T13:42:35Z</time>
      </trkpt>
      <trkpt lat="44.85218" lon="-0.52859">
        <ele>54.950866699219</ele>
        <time>2022-02-23T13:42:47Z</time>
      </trkpt>
      <trkpt lat="44.8522" lon="-0.52873">
        <ele>55.070373535156</ele>
        <time>2022-02-23T13:42:55Z</time>
      </trkpt>
      <trkpt lat="44.85228" lon="-0.52883">
        <ele>58.281921386719</ele>
        <time>2022-02-23T13:43:02Z</time>
      </trkpt>
      <trkpt lat="44.85238" lon="-0.52889">
        <ele>62.044738769531</ele>
        <time>2022-02-23T13:43:10Z</time>
      </trkpt>
      <trkpt lat="44.85248" lon="-0.52898">
        <ele>64.207641601562</ele>
        <time>2022-02-23T13:43:16Z</time>
      </trkpt>
      <trkpt lat="44.85258" lon="-0.52905">
        <ele>63.921813964844</ele>
        <time>2022-02-23T13:43:24Z</time>
      </trkpt>
      <trkpt lat="44.8527" lon="-0.52915">
        <ele>58.422790527344</ele>
        <time>2022-02-23T13:43:41Z</time>
      </trkpt>
      <trkpt lat="44.85278" lon="-0.52924">
        <ele>58.54736328125</ele>
        <time>2022-02-23T13:43:49Z</time>
      </trkpt>
      <trkpt lat="44.85285" lon="-0.52936">
        <ele>56.86572265625</ele>
        <time>2022-02-23T13:43:57Z</time>
      </trkpt>
      <trkpt lat="44.85294" lon="-0.5294">
        <ele>53.988830566406</ele>
        <time>2022-02-23T13:44:06Z</time>
      </trkpt>
      <trkpt lat="44.85304" lon="-0.52945">
        <ele>51.623840332031</ele>
        <time>2022-02-23T13:44:15Z</time>
      </trkpt>
      <trkpt lat="44.85314" lon="-0.52941">
        <ele>52.722900390625</ele>
        <time>2022-02-23T13:44:22Z</time>
      </trkpt>
      <trkpt lat="44.85318" lon="-0.52929">
        <ele>49.926818847656</ele>
        <time>2022-02-23T13:44:31Z</time>
      </trkpt>
      <trkpt lat="44.85313" lon="-0.52917">
        <ele>49.900207519531</ele>
        <time>2022-02-23T13:44:39Z</time>
      </trkpt>
      <trkpt lat="44.85322" lon="-0.5291">
        <ele>44.303955078125</ele>
        <time>2022-02-23T13:44:49Z</time>
      </trkpt>
      <trkpt lat="44.85333" lon="-0.52909">
        <ele>46.36376953125</ele>
        <time>2022-02-23T13:44:55Z</time>
      </trkpt>
      <trkpt lat="44.85341" lon="-0.52901">
        <ele>37.852294921875</ele>
        <time>2022-02-23T13:45:04Z</time>
      </trkpt>
      <trkpt lat="44.8535" lon="-0.52894">
        <ele>43.876098632812</ele>
        <time>2022-02-23T13:45:14Z</time>
      </trkpt>
      <trkpt lat="44.85364" lon="-0.52897">
        <ele>46.184814453125</ele>
        <time>2022-02-23T13:45:25Z</time>
      </trkpt>
      <trkpt lat="44.8537" lon="-0.52887">
        <ele>45.676879882812</ele>
        <time>2022-02-23T13:45:39Z</time>
      </trkpt>
      <trkpt lat="44.85378" lon="-0.52879">
        <ele>46.907165527344</ele>
        <time>2022-02-23T13:45:49Z</time>
      </trkpt>
      <trkpt lat="44.85377" lon="-0.52865">
        <ele>46.300842285156</ele>
        <time>2022-02-23T13:46:06Z</time>
      </trkpt>
      <trkpt lat="44.8537" lon="-0.52856">
        <ele>48.98583984375</ele>
        <time>2022-02-23T13:46:11Z</time>
      </trkpt>
      <trkpt lat="44.85363" lon="-0.52845">
        <ele>45.855163574219</ele>
        <time>2022-02-23T13:46:16Z</time>
      </trkpt>
      <trkpt lat="44.85355" lon="-0.52833">
        <ele>44.165710449219</ele>
        <time>2022-02-23T13:46:22Z</time>
      </trkpt>
      <trkpt lat="44.85359" lon="-0.52819">
        <ele>34.617004394531</ele>
        <time>2022-02-23T13:46:38Z</time>
      </trkpt>
      <trkpt lat="44.8537" lon="-0.52818">
        <ele>32.937622070312</ele>
        <time>2022-02-23T13:46:46Z</time>
      </trkpt>
      <trkpt lat="44.8538" lon="-0.52814">
        <ele>28.806518554688</ele>
        <time>2022-02-23T13:46:54Z</time>
      </trkpt>
      <trkpt lat="44.8539" lon="-0.52811">
        <ele>24.877746582031</ele>
        <time>2022-02-23T13:47:00Z</time>
      </trkpt>
      <trkpt lat="44.85399" lon="-0.52809">
        <ele>24.40576171875</ele>
        <time>2022-02-23T13:47:11Z</time>
      </trkpt>
      <trkpt lat="44.85407" lon="-0.52816">
        <ele>16.6552734375</ele>
        <time>2022-02-23T13:47:20Z</time>
      </trkpt>
      <trkpt lat="44.85417" lon="-0.52823">
        <ele>21.5703125</ele>
        <time>2022-02-23T13:47:27Z</time>
      </trkpt>
      <trkpt lat="44.85427" lon="-0.52824">
        <ele>18.432373046875</ele>
        <time>2022-02-23T13:47:35Z</time>
      </trkpt>
      <trkpt lat="44.85438" lon="-0.52827">
        <ele>12.57275390625</ele>
        <time>2022-02-23T13:47:51Z</time>
      </trkpt>
      <trkpt lat="44.85448" lon="-0.52831">
        <ele>13.474060058594</ele>
        <time>2022-02-23T13:48:07Z</time>
      </trkpt>
      <trkpt lat="44.8546" lon="-0.52838">
        <ele>13.100891113281</ele>
        <time>2022-02-23T13:48:27Z</time>
      </trkpt>
      <trkpt lat="44.85469" lon="-0.52843">
        <ele>9.5115356445312</ele>
        <time>2022-02-23T13:48:47Z</time>
      </trkpt>
      <trkpt lat="44.85476" lon="-0.52856">
        <ele>5.3887329101562</ele>
        <time>2022-02-23T13:48:54Z</time>
      </trkpt>
      <trkpt lat="44.85482" lon="-0.5287">
        <ele>7.0677490234375</ele>
        <time>2022-02-23T13:49:01Z</time>
      </trkpt>
      <trkpt lat="44.85489" lon="-0.5288">
        <ele>8.819580078125</ele>
        <time>2022-02-23T13:49:06Z</time>
      </trkpt>
      <trkpt lat="44.85498" lon="-0.52887">
        <ele>8.2112426757812</ele>
        <time>2022-02-23T13:49:13Z</time>
      </trkpt>
      <trkpt lat="44.85507" lon="-0.52879">
        <ele>13.240356445312</ele>
        <time>2022-02-23T13:49:24Z</time>
      </trkpt>
      <trkpt lat="44.85514" lon="-0.52869">
        <ele>13.015747070312</ele>
        <time>2022-02-23T13:49:30Z</time>
      </trkpt>
      <trkpt lat="44.85521" lon="-0.5286">
        <ele>10.109313964844</ele>
        <time>2022-02-23T13:49:38Z</time>
      </trkpt>
      <trkpt lat="44.85527" lon="-0.52848">
        <ele>14.3896484375</ele>
        <time>2022-02-23T13:49:45Z</time>
      </trkpt>
      <trkpt lat="44.85539" lon="-0.52853">
        <ele>11.171447753906</ele>
        <time>2022-02-23T13:49:56Z</time>
      </trkpt>
      <trkpt lat="44.85548" lon="-0.52862">
        <ele>13.410278320312</ele>
        <time>2022-02-23T13:50:05Z</time>
      </trkpt>
      <trkpt lat="44.85558" lon="-0.52867">
        <ele>14.129455566406</ele>
        <time>2022-02-23T13:50:13Z</time>
      </trkpt>
      <trkpt lat="44.85565" lon="-0.52877">
        <ele>14.8642578125</ele>
        <time>2022-02-23T13:50:26Z</time>
      </trkpt>
      <trkpt lat="44.85575" lon="-0.52887">
        <ele>13.219665527344</ele>
        <time>2022-02-23T13:50:32Z</time>
      </trkpt>
      <trkpt lat="44.85578" lon="-0.52901">
        <ele>13.438659667969</ele>
        <time>2022-02-23T13:50:39Z</time>
      </trkpt>
      <trkpt lat="44.85586" lon="-0.52911">
        <ele>13.558410644531</ele>
        <time>2022-02-23T13:50:49Z</time>
      </trkpt>
      <trkpt lat="44.85594" lon="-0.52917">
        <ele>15.386169433594</ele>
        <time>2022-02-23T13:50:58Z</time>
      </trkpt>
      <trkpt lat="44.85601" lon="-0.52928">
        <ele>11.25146484375</ele>
        <time>2022-02-23T13:51:08Z</time>
      </trkpt>
      <trkpt lat="44.85609" lon="-0.52933">
        <ele>5.7498168945312</ele>
        <time>2022-02-23T13:51:16Z</time>
      </trkpt>
      <trkpt lat="44.85619" lon="-0.52935">
        <ele>2.614990234375</ele>
        <time>2022-02-23T13:51:26Z</time>
      </trkpt>
      <trkpt lat="44.8563" lon="-0.5294">
        <ele>1.67431640625</ele>
        <time>2022-02-23T13:51:37Z</time>
      </trkpt>
      <trkpt lat="44.85641" lon="-0.52946">
        <ele>2.1433715820312</ele>
        <time>2022-02-23T13:51:43Z</time>
      </trkpt>
      <trkpt lat="44.85651" lon="-0.5295">
        <ele>8.640380859375</ele>
        <time>2022-02-23T13:51:53Z</time>
      </trkpt>
      <trkpt lat="44.85663" lon="-0.52952">
        <ele>12.208740234375</ele>
        <time>2022-02-23T13:51:59Z</time>
      </trkpt>
      <trkpt lat="44.85676" lon="-0.52951">
        <ele>13.916015625</ele>
        <time>2022-02-23T13:52:31Z</time>
      </trkpt>
      <trkpt lat="44.85688" lon="-0.5295">
        <ele>9.8589477539062</ele>
        <time>2022-02-23T13:52:36Z</time>
      </trkpt>
      <trkpt lat="44.85698" lon="-0.52951">
        <ele>8.8472290039062</ele>
        <time>2022-02-23T13:52:44Z</time>
      </trkpt>
      <trkpt lat="44.85709" lon="-0.52953">
        <ele>11.633544921875</ele>
        <time>2022-02-23T13:52:49Z</time>
      </trkpt>
      <trkpt lat="44.8572" lon="-0.52954">
        <ele>12.653930664062</ele>
        <time>2022-02-23T13:52:57Z</time>
      </trkpt>
      <trkpt lat="44.85726" lon="-0.52945">
        <ele>8.3301391601562</ele>
        <time>2022-02-23T13:53:07Z</time>
      </trkpt>
      <trkpt lat="44.85735" lon="-0.52945">
        <ele>5.2781982421875</ele>
        <time>2022-02-23T13:53:30Z</time>
      </trkpt>
      <trkpt lat="44.85745" lon="-0.52944">
        <ele>6.324951171875</ele>
        <time>2022-02-23T13:53:35Z</time>
      </trkpt>
      <trkpt lat="44.85757" lon="-0.52944">
        <ele>4.02392578125</ele>
        <time>2022-02-23T13:53:40Z</time>
      </trkpt>
      <trkpt lat="44.85768" lon="-0.52943">
        <ele>3.3486938476562</ele>
        <time>2022-02-23T13:53:47Z</time>
      </trkpt>
      <trkpt lat="44.85779" lon="-0.52932">
        <ele>2.705810546875</ele>
        <time>2022-02-23T13:54:01Z</time>
      </trkpt>
      <trkpt lat="44.85782" lon="-0.52919">
        <ele>4.5906372070312</ele>
        <time>2022-02-23T13:54:14Z</time>
      </trkpt>
      <trkpt lat="44.85782" lon="-0.52905">
        <ele>5.0303344726562</ele>
        <time>2022-02-23T13:54:23Z</time>
      </trkpt>
      <trkpt lat="44.8578" lon="-0.52892">
        <ele>9.6583862304688</ele>
        <time>2022-02-23T13:54:31Z</time>
      </trkpt>
      <trkpt lat="44.85786" lon="-0.52879">
        <ele>22.135314941406</ele>
        <time>2022-02-23T13:55:30Z</time>
      </trkpt>
      <trkpt lat="44.85785" lon="-0.52865">
        <ele>23.140014648438</ele>
        <time>2022-02-23T13:55:55Z</time>
      </trkpt>
      <trkpt lat="44.85784" lon="-0.52851">
        <ele>23.723388671875</ele>
        <time>2022-02-23T13:56:05Z</time>
      </trkpt>
      <trkpt lat="44.85776" lon="-0.52842">
        <ele>25.835388183594</ele>
        <time>2022-02-23T13:56:10Z</time>
      </trkpt>
      <trkpt lat="44.85775" lon="-0.52827">
        <ele>23.690795898438</ele>
        <time>2022-02-23T13:56:19Z</time>
      </trkpt>
      <trkpt lat="44.85769" lon="-0.52815">
        <ele>27.099243164062</ele>
        <time>2022-02-23T13:56:27Z</time>
      </trkpt>
      <trkpt lat="44.85771" lon="-0.52797">
        <ele>26.915161132812</ele>
        <time>2022-02-23T13:56:43Z</time>
      </trkpt>
      <trkpt lat="44.85772" lon="-0.52783">
        <ele>30.631713867188</ele>
        <time>2022-02-23T13:56:55Z</time>
      </trkpt>
      <trkpt lat="44.85777" lon="-0.52769">
        <ele>33.952758789062</ele>
        <time>2022-02-23T13:57:08Z</time>
      </trkpt>
      <trkpt lat="44.85776" lon="-0.52755">
        <ele>35.771606445312</ele>
        <time>2022-02-23T13:57:17Z</time>
      </trkpt>
      <trkpt lat="44.85781" lon="-0.52743">
        <ele>36.026062011719</ele>
        <time>2022-02-23T13:57:30Z</time>
      </trkpt>
      <trkpt lat="44.85786" lon="-0.52731">
        <ele>42.475708007812</ele>
        <time>2022-02-23T13:57:40Z</time>
      </trkpt>
      <trkpt lat="44.85795" lon="-0.52724">
        <ele>42.877319335938</ele>
        <time>2022-02-23T13:57:47Z</time>
      </trkpt>
      <trkpt lat="44.85805" lon="-0.52719">
        <ele>46.883117675781</ele>
        <time>2022-02-23T13:57:54Z</time>
      </trkpt>
      <trkpt lat="44.85813" lon="-0.52715">
        <ele>48.410278320312</ele>
        <time>2022-02-23T13:58:00Z</time>
      </trkpt>
      <trkpt lat="44.85823" lon="-0.52712">
        <ele>50.518005371094</ele>
        <time>2022-02-23T13:58:07Z</time>
      </trkpt>
      <trkpt lat="44.85832" lon="-0.52707">
        <ele>54.30810546875</ele>
        <time>2022-02-23T13:58:20Z</time>
      </trkpt>
      <trkpt lat="44.85841" lon="-0.52717">
        <ele>54.740173339844</ele>
        <time>2022-02-23T14:02:58Z</time>
      </trkpt>
      <trkpt lat="44.85848" lon="-0.52727">
        <ele>52.736083984375</ele>
        <time>2022-02-23T14:03:06Z</time>
      </trkpt>
      <trkpt lat="44.85857" lon="-0.52735">
        <ele>50.8564453125</ele>
        <time>2022-02-23T14:03:12Z</time>
      </trkpt>
      <trkpt lat="44.85865" lon="-0.52744">
        <ele>52.081848144531</ele>
        <time>2022-02-23T14:03:20Z</time>
      </trkpt>
      <trkpt lat="44.85874" lon="-0.52748">
        <ele>55.094299316406</ele>
        <time>2022-02-23T14:03:27Z</time>
      </trkpt>
      <trkpt lat="44.8588" lon="-0.52757">
        <ele>56.575805664062</ele>
        <time>2022-02-23T14:03:38Z</time>
      </trkpt>
      <trkpt lat="44.85888" lon="-0.52766">
        <ele>52.182373046875</ele>
        <time>2022-02-23T14:03:44Z</time>
      </trkpt>
      <trkpt lat="44.85893" lon="-0.52779">
        <ele>53.874694824219</ele>
        <time>2022-02-23T14:03:51Z</time>
      </trkpt>
      <trkpt lat="44.85899" lon="-0.52789">
        <ele>53.514587402344</ele>
        <time>2022-02-23T14:03:58Z</time>
      </trkpt>
      <trkpt lat="44.85907" lon="-0.52798">
        <ele>51.212280273438</ele>
        <time>2022-02-23T14:04:08Z</time>
      </trkpt>
      <trkpt lat="44.85918" lon="-0.528">
        <ele>52.005493164062</ele>
        <time>2022-02-23T14:04:16Z</time>
      </trkpt>
      <trkpt lat="44.85926" lon="-0.52793">
        <ele>59.471618652344</ele>
        <time>2022-02-23T14:04:29Z</time>
      </trkpt>
      <trkpt lat="44.85936" lon="-0.52793">
        <ele>59.812194824219</ele>
        <time>2022-02-23T14:04:37Z</time>
      </trkpt>
      <trkpt lat="44.85947" lon="-0.52795">
        <ele>56.4248046875</ele>
        <time>2022-02-23T14:04:45Z</time>
      </trkpt>
      <trkpt lat="44.85958" lon="-0.52796">
        <ele>52.742980957031</ele>
        <time>2022-02-23T14:04:59Z</time>
      </trkpt>
      <trkpt lat="44.85967" lon="-0.528">
        <ele>52.830688476562</ele>
        <time>2022-02-23T14:05:04Z</time>
      </trkpt>
      <trkpt lat="44.85977" lon="-0.52805">
        <ele>49.806884765625</ele>
        <time>2022-02-23T14:05:12Z</time>
      </trkpt>
      <trkpt lat="44.85986" lon="-0.5281">
        <ele>43.283386230469</ele>
        <time>2022-02-23T14:06:06Z</time>
      </trkpt>
      <trkpt lat="44.85996" lon="-0.52811">
        <ele>42.890319824219</ele>
        <time>2022-02-23T14:06:13Z</time>
      </trkpt>
      <trkpt lat="44.86002" lon="-0.52821">
        <ele>46.390686035156</ele>
        <time>2022-02-23T14:06:23Z</time>
      </trkpt>
      <trkpt lat="44.86012" lon="-0.52827">
        <ele>48.518493652344</ele>
        <time>2022-02-23T14:06:30Z</time>
      </trkpt>
      <trkpt lat="44.86008" lon="-0.5284">
        <ele>43.016174316406</ele>
        <time>2022-02-23T14:06:49Z</time>
      </trkpt>
      <trkpt lat="44.86007" lon="-0.52852">
        <ele>39.021179199219</ele>
        <time>2022-02-23T14:07:10Z</time>
      </trkpt>
      <trkpt lat="44.86006" lon="-0.52836">
        <ele>35.008850097656</ele>
        <time>2022-02-23T14:07:53Z</time>
      </trkpt>
      <trkpt lat="44.86013" lon="-0.52825">
        <ele>43.259033203125</ele>
        <time>2022-02-23T14:07:59Z</time>
      </trkpt>
      <trkpt lat="44.86021" lon="-0.52815">
        <ele>41.821899414062</ele>
        <time>2022-02-23T14:08:08Z</time>
      </trkpt>
      <trkpt lat="44.86034" lon="-0.52813">
        <ele>41.038513183594</ele>
        <time>2022-02-23T14:08:17Z</time>
      </trkpt>
      <trkpt lat="44.86045" lon="-0.52813">
        <ele>43.56689453125</ele>
        <time>2022-02-23T14:08:25Z</time>
      </trkpt>
      <trkpt lat="44.86055" lon="-0.52813">
        <ele>40.586303710938</ele>
        <time>2022-02-23T14:08:35Z</time>
      </trkpt>
      <trkpt lat="44.86065" lon="-0.52814">
        <ele>36.559692382812</ele>
        <time>2022-02-23T14:08:44Z</time>
      </trkpt>
      <trkpt lat="44.86072" lon="-0.52803">
        <ele>37.112548828125</ele>
        <time>2022-02-23T14:08:52Z</time>
      </trkpt>
      <trkpt lat="44.86077" lon="-0.52791">
        <ele>39.939819335938</ele>
        <time>2022-02-23T14:08:59Z</time>
      </trkpt>
      <trkpt lat="44.86082" lon="-0.5278">
        <ele>43.226318359375</ele>
        <time>2022-02-23T14:09:10Z</time>
      </trkpt>
      <trkpt lat="44.8608" lon="-0.52767">
        <ele>40.97509765625</ele>
        <time>2022-02-23T14:09:16Z</time>
      </trkpt>
      <trkpt lat="44.86086" lon="-0.52754">
        <ele>41.469604492188</ele>
        <time>2022-02-23T14:09:23Z</time>
      </trkpt>
      <trkpt lat="44.86094" lon="-0.52742">
        <ele>38.987060546875</ele>
        <time>2022-02-23T14:09:37Z</time>
      </trkpt>
      <trkpt lat="44.86093" lon="-0.52726">
        <ele>40.947448730469</ele>
        <time>2022-02-23T14:09:43Z</time>
      </trkpt>
      <trkpt lat="44.86094" lon="-0.52713">
        <ele>40.185241699219</ele>
        <time>2022-02-23T14:09:51Z</time>
      </trkpt>
      <trkpt lat="44.86097" lon="-0.52699">
        <ele>45.383056640625</ele>
        <time>2022-02-23T14:09:57Z</time>
      </trkpt>
      <trkpt lat="44.86104" lon="-0.52689">
        <ele>45.8037109375</ele>
        <time>2022-02-23T14:10:05Z</time>
      </trkpt>
      <trkpt lat="44.86104" lon="-0.52676">
        <ele>46.034912109375</ele>
        <time>2022-02-23T14:10:11Z</time>
      </trkpt>
      <trkpt lat="44.86108" lon="-0.52665">
        <ele>45.418884277344</ele>
        <time>2022-02-23T14:10:17Z</time>
      </trkpt>
      <trkpt lat="44.86116" lon="-0.52655">
        <ele>48.227783203125</ele>
        <time>2022-02-23T14:10:23Z</time>
      </trkpt>
      <trkpt lat="44.86124" lon="-0.52648">
        <ele>43.991821289062</ele>
        <time>2022-02-23T14:10:29Z</time>
      </trkpt>
      <trkpt lat="44.86131" lon="-0.52639">
        <ele>42.180297851562</ele>
        <time>2022-02-23T14:10:37Z</time>
      </trkpt>
      <trkpt lat="44.86136" lon="-0.52627">
        <ele>43.082702636719</ele>
        <time>2022-02-23T14:10:47Z</time>
      </trkpt>
      <trkpt lat="44.86144" lon="-0.52619">
        <ele>43.064331054688</ele>
        <time>2022-02-23T14:10:55Z</time>
      </trkpt>
      <trkpt lat="44.86153" lon="-0.52614">
        <ele>45.913024902344</ele>
        <time>2022-02-23T14:11:04Z</time>
      </trkpt>
      <trkpt lat="44.86162" lon="-0.52613">
        <ele>46.555786132812</ele>
        <time>2022-02-23T14:11:12Z</time>
      </trkpt>
      <trkpt lat="44.86171" lon="-0.52618">
        <ele>47.32958984375</ele>
        <time>2022-02-23T14:11:20Z</time>
      </trkpt>
      <trkpt lat="44.86179" lon="-0.52627">
        <ele>46.84521484375</ele>
        <time>2022-02-23T14:11:28Z</time>
      </trkpt>
      <trkpt lat="44.86186" lon="-0.52636">
        <ele>45.443298339844</ele>
        <time>2022-02-23T14:11:36Z</time>
      </trkpt>
      <trkpt lat="44.86195" lon="-0.52645">
        <ele>44.097595214844</ele>
        <time>2022-02-23T14:11:44Z</time>
      </trkpt>
      <trkpt lat="44.86202" lon="-0.52655">
        <ele>44.196838378906</ele>
        <time>2022-02-23T14:11:52Z</time>
      </trkpt>
      <trkpt lat="44.86208" lon="-0.52666">
        <ele>43.545654296875</ele>
        <time>2022-02-23T14:12:00Z</time>
      </trkpt>
      <trkpt lat="44.8621" lon="-0.52681">
        <ele>42.122009277344</ele>
        <time>2022-02-23T14:12:07Z</time>
      </trkpt>
      <trkpt lat="44.86211" lon="-0.52695">
        <ele>43.216552734375</ele>
        <time>2022-02-23T14:12:14Z</time>
      </trkpt>
      <trkpt lat="44.8621" lon="-0.52708">
        <ele>44.615661621094</ele>
        <time>2022-02-23T14:12:21Z</time>
      </trkpt>
      <trkpt lat="44.86211" lon="-0.52722">
        <ele>45.762756347656</ele>
        <time>2022-02-23T14:12:28Z</time>
      </trkpt>
      <trkpt lat="44.86216" lon="-0.52733">
        <ele>38.627014160156</ele>
        <time>2022-02-23T14:12:35Z</time>
      </trkpt>
      <trkpt lat="44.86222" lon="-0.52745">
        <ele>43.233764648438</ele>
        <time>2022-02-23T14:12:43Z</time>
      </trkpt>
      <trkpt lat="44.86229" lon="-0.52754">
        <ele>43.166687011719</ele>
        <time>2022-02-23T14:12:51Z</time>
      </trkpt>
      <trkpt lat="44.86234" lon="-0.52766">
        <ele>44.714477539062</ele>
        <time>2022-02-23T14:12:58Z</time>
      </trkpt>
      <trkpt lat="44.8624" lon="-0.52777">
        <ele>46.814392089844</ele>
        <time>2022-02-23T14:13:06Z</time>
      </trkpt>
      <trkpt lat="44.86248" lon="-0.52787">
        <ele>46.582641601562</ele>
        <time>2022-02-23T14:13:14Z</time>
      </trkpt>
      <trkpt lat="44.86254" lon="-0.52799">
        <ele>45.081909179688</ele>
        <time>2022-02-23T14:13:23Z</time>
      </trkpt>
      <trkpt lat="44.86258" lon="-0.52815">
        <ele>46.737915039062</ele>
        <time>2022-02-23T14:14:03Z</time>
      </trkpt>
      <trkpt lat="44.86265" lon="-0.52825">
        <ele>46.057922363281</ele>
        <time>2022-02-23T14:14:06Z</time>
      </trkpt>
      <trkpt lat="44.86272" lon="-0.52837">
        <ele>43.186462402344</ele>
        <time>2022-02-23T14:14:10Z</time>
      </trkpt>
      <trkpt lat="44.86278" lon="-0.52847">
        <ele>43.654907226562</ele>
        <time>2022-02-23T14:14:15Z</time>
      </trkpt>
      <trkpt lat="44.86286" lon="-0.52856">
        <ele>41.594604492188</ele>
        <time>2022-02-23T14:14:19Z</time>
      </trkpt>
      <trkpt lat="44.86294" lon="-0.52865">
        <ele>42.268676757812</ele>
        <time>2022-02-23T14:14:26Z</time>
      </trkpt>
      <trkpt lat="44.86303" lon="-0.52869">
        <ele>44.733642578125</ele>
        <time>2022-02-23T14:14:35Z</time>
      </trkpt>
      <trkpt lat="44.86314" lon="-0.52866">
        <ele>44.911010742188</ele>
        <time>2022-02-23T14:14:43Z</time>
      </trkpt>
      <trkpt lat="44.86323" lon="-0.52859">
        <ele>48.584838867188</ele>
        <time>2022-02-23T14:14:51Z</time>
      </trkpt>
      <trkpt lat="44.86329" lon="-0.52848">
        <ele>53.721374511719</ele>
        <time>2022-02-23T14:14:59Z</time>
      </trkpt>
      <trkpt lat="44.86328" lon="-0.52835">
        <ele>52.611389160156</ele>
        <time>2022-02-23T14:15:06Z</time>
      </trkpt>
      <trkpt lat="44.86329" lon="-0.52821">
        <ele>53.449157714844</ele>
        <time>2022-02-23T14:15:13Z</time>
      </trkpt>
      <trkpt lat="44.8633" lon="-0.52808">
        <ele>52.134033203125</ele>
        <time>2022-02-23T14:15:21Z</time>
      </trkpt>
      <trkpt lat="44.86331" lon="-0.52794">
        <ele>48.767761230469</ele>
        <time>2022-02-23T14:15:31Z</time>
      </trkpt>
      <trkpt lat="44.86335" lon="-0.52779">
        <ele>46.61279296875</ele>
        <time>2022-02-23T14:15:41Z</time>
      </trkpt>
      <trkpt lat="44.86333" lon="-0.52765">
        <ele>45.745422363281</ele>
        <time>2022-02-23T14:15:50Z</time>
      </trkpt>
      <trkpt lat="44.86328" lon="-0.52754">
        <ele>45.787658691406</ele>
        <time>2022-02-23T14:15:56Z</time>
      </trkpt>
      <trkpt lat="44.86324" lon="-0.5274">
        <ele>45.491516113281</ele>
        <time>2022-02-23T14:16:02Z</time>
      </trkpt>
      <trkpt lat="44.86324" lon="-0.52725">
        <ele>46.439392089844</ele>
        <time>2022-02-23T14:16:09Z</time>
      </trkpt>
      <trkpt lat="44.86323" lon="-0.5271">
        <ele>45.40966796875</ele>
        <time>2022-02-23T14:16:16Z</time>
      </trkpt>
      <trkpt lat="44.86323" lon="-0.52696">
        <ele>48.034362792969</ele>
        <time>2022-02-23T14:16:25Z</time>
      </trkpt>
      <trkpt lat="44.8632" lon="-0.52682">
        <ele>46.812438964844</ele>
        <time>2022-02-23T14:16:34Z</time>
      </trkpt>
      <trkpt lat="44.86322" lon="-0.52667">
        <ele>48.386169433594</ele>
        <time>2022-02-23T14:17:08Z</time>
      </trkpt>
      <trkpt lat="44.86318" lon="-0.52654">
        <ele>45.915954589844</ele>
        <time>2022-02-23T14:17:13Z</time>
      </trkpt>
      <trkpt lat="44.86317" lon="-0.52639">
        <ele>44.2548828125</ele>
        <time>2022-02-23T14:17:19Z</time>
      </trkpt>
      <trkpt lat="44.86314" lon="-0.52624">
        <ele>44.191101074219</ele>
        <time>2022-02-23T14:17:23Z</time>
      </trkpt>
      <trkpt lat="44.86318" lon="-0.52609">
        <ele>44.755249023438</ele>
        <time>2022-02-23T14:17:28Z</time>
      </trkpt>
      <trkpt lat="44.86316" lon="-0.52596">
        <ele>47.044860839844</ele>
        <time>2022-02-23T14:17:35Z</time>
      </trkpt>
      <trkpt lat="44.86312" lon="-0.52583">
        <ele>47.882507324219</ele>
        <time>2022-02-23T14:17:42Z</time>
      </trkpt>
      <trkpt lat="44.86309" lon="-0.5257">
        <ele>45.520385742188</ele>
        <time>2022-02-23T14:17:49Z</time>
      </trkpt>
      <trkpt lat="44.86305" lon="-0.52557">
        <ele>47.470336914062</ele>
        <time>2022-02-23T14:17:57Z</time>
      </trkpt>
      <trkpt lat="44.86305" lon="-0.52542">
        <ele>50.62060546875</ele>
        <time>2022-02-23T14:18:08Z</time>
      </trkpt>
      <trkpt lat="44.86307" lon="-0.52528">
        <ele>47.980651855469</ele>
        <time>2022-02-23T14:18:15Z</time>
      </trkpt>
      <trkpt lat="44.86314" lon="-0.52518">
        <ele>50.494140625</ele>
        <time>2022-02-23T14:18:22Z</time>
      </trkpt>
      <trkpt lat="44.86321" lon="-0.52508">
        <ele>50.747619628906</ele>
        <time>2022-02-23T14:18:28Z</time>
      </trkpt>
      <trkpt lat="44.86321" lon="-0.52494">
        <ele>46.804565429688</ele>
        <time>2022-02-23T14:18:38Z</time>
      </trkpt>
      <trkpt lat="44.86327" lon="-0.52484">
        <ele>47.110778808594</ele>
        <time>2022-02-23T14:18:45Z</time>
      </trkpt>
      <trkpt lat="44.86325" lon="-0.52471">
        <ele>48.369689941406</ele>
        <time>2022-02-23T14:18:51Z</time>
      </trkpt>
      <trkpt lat="44.86319" lon="-0.5246">
        <ele>50.663146972656</ele>
        <time>2022-02-23T14:18:56Z</time>
      </trkpt>
      <trkpt lat="44.86317" lon="-0.52445">
        <ele>51.588500976562</ele>
        <time>2022-02-23T14:19:02Z</time>
      </trkpt>
      <trkpt lat="44.86309" lon="-0.52437">
        <ele>51.718505859375</ele>
        <time>2022-02-23T14:19:11Z</time>
      </trkpt>
      <trkpt lat="44.86319" lon="-0.5243">
        <ele>50.190551757812</ele>
        <time>2022-02-23T14:19:29Z</time>
      </trkpt>
      <trkpt lat="44.86325" lon="-0.52417">
        <ele>48.177429199219</ele>
        <time>2022-02-23T14:19:40Z</time>
      </trkpt>
      <trkpt lat="44.86327" lon="-0.52405">
        <ele>47.209289550781</ele>
        <time>2022-02-23T14:19:45Z</time>
      </trkpt>
      <trkpt lat="44.8633" lon="-0.52391">
        <ele>48.357299804688</ele>
        <time>2022-02-23T14:19:51Z</time>
      </trkpt>
      <trkpt lat="44.86327" lon="-0.52379">
        <ele>46.999694824219</ele>
        <time>2022-02-23T14:19:57Z</time>
      </trkpt>
      <trkpt lat="44.86321" lon="-0.52365">
        <ele>47.774169921875</ele>
        <time>2022-02-23T14:20:08Z</time>
      </trkpt>
      <trkpt lat="44.86317" lon="-0.52353">
        <ele>47.647033691406</ele>
        <time>2022-02-23T14:20:15Z</time>
      </trkpt>
      <trkpt lat="44.8631" lon="-0.52345">
        <ele>49.360656738281</ele>
        <time>2022-02-23T14:20:23Z</time>
      </trkpt>
      <trkpt lat="44.86304" lon="-0.52335">
        <ele>46.279052734375</ele>
        <time>2022-02-23T14:20:31Z</time>
      </trkpt>
      <trkpt lat="44.8631" lon="-0.52322">
        <ele>45.854187011719</ele>
        <time>2022-02-23T14:20:43Z</time>
      </trkpt>
      <trkpt lat="44.86321" lon="-0.52319">
        <ele>45.734985351562</ele>
        <time>2022-02-23T14:20:52Z</time>
      </trkpt>
      <trkpt lat="44.86332" lon="-0.52317">
        <ele>44.374084472656</ele>
        <time>2022-02-23T14:21:01Z</time>
      </trkpt>
      <trkpt lat="44.86342" lon="-0.52316">
        <ele>46.113586425781</ele>
        <time>2022-02-23T14:21:09Z</time>
      </trkpt>
      <trkpt lat="44.86352" lon="-0.52316">
        <ele>49.896789550781</ele>
        <time>2022-02-23T14:21:19Z</time>
      </trkpt>
      <trkpt lat="44.86362" lon="-0.52315">
        <ele>50.467834472656</ele>
        <time>2022-02-23T14:21:33Z</time>
      </trkpt>
      <trkpt lat="44.86372" lon="-0.52314">
        <ele>49.625671386719</ele>
        <time>2022-02-23T14:21:41Z</time>
      </trkpt>
      <trkpt lat="44.86383" lon="-0.52313">
        <ele>50.978942871094</ele>
        <time>2022-02-23T14:21:50Z</time>
      </trkpt>
      <trkpt lat="44.86393" lon="-0.52311">
        <ele>49.723022460938</ele>
        <time>2022-02-23T14:22:01Z</time>
      </trkpt>
      <trkpt lat="44.86404" lon="-0.52313">
        <ele>50.076538085938</ele>
        <time>2022-02-23T14:22:09Z</time>
      </trkpt>
      <trkpt lat="44.86415" lon="-0.52312">
        <ele>50.667053222656</ele>
        <time>2022-02-23T14:22:17Z</time>
      </trkpt>
      <trkpt lat="44.86425" lon="-0.52313">
        <ele>51.932434082031</ele>
        <time>2022-02-23T14:22:25Z</time>
      </trkpt>
      <trkpt lat="44.86436" lon="-0.52312">
        <ele>50.735717773438</ele>
        <time>2022-02-23T14:22:34Z</time>
      </trkpt>
      <trkpt lat="44.86445" lon="-0.52313">
        <ele>50.691162109375</ele>
        <time>2022-02-23T14:22:41Z</time>
      </trkpt>
      <trkpt lat="44.86456" lon="-0.52313">
        <ele>51.315795898438</ele>
        <time>2022-02-23T14:22:48Z</time>
      </trkpt>
      <trkpt lat="44.86466" lon="-0.52316">
        <ele>50.824523925781</ele>
        <time>2022-02-23T14:22:54Z</time>
      </trkpt>
      <trkpt lat="44.86476" lon="-0.52321">
        <ele>49.213317871094</ele>
        <time>2022-02-23T14:23:03Z</time>
      </trkpt>
      <trkpt lat="44.86486" lon="-0.52325">
        <ele>48.514465332031</ele>
        <time>2022-02-23T14:23:10Z</time>
      </trkpt>
      <trkpt lat="44.86496" lon="-0.52331">
        <ele>47.842895507812</ele>
        <time>2022-02-23T14:23:17Z</time>
      </trkpt>
      <trkpt lat="44.86505" lon="-0.52337">
        <ele>47.268920898438</ele>
        <time>2022-02-23T14:23:25Z</time>
      </trkpt>
      <trkpt lat="44.86514" lon="-0.52345">
        <ele>49.217224121094</ele>
        <time>2022-02-23T14:23:31Z</time>
      </trkpt>
      <trkpt lat="44.86521" lon="-0.52352">
        <ele>50.406066894531</ele>
        <time>2022-02-23T14:23:37Z</time>
      </trkpt>
      <trkpt lat="44.86519" lon="-0.52366">
        <ele>47.777587890625</ele>
        <time>2022-02-23T14:24:12Z</time>
      </trkpt>
      <trkpt lat="44.86524" lon="-0.5238">
        <ele>45.961975097656</ele>
        <time>2022-02-23T14:24:17Z</time>
      </trkpt>
      <trkpt lat="44.8653" lon="-0.52391">
        <ele>49.4970703125</ele>
        <time>2022-02-23T14:24:26Z</time>
      </trkpt>
      <trkpt lat="44.86539" lon="-0.524">
        <ele>50.70361328125</ele>
        <time>2022-02-23T14:24:34Z</time>
      </trkpt>
      <trkpt lat="44.86548" lon="-0.52403">
        <ele>49.065856933594</ele>
        <time>2022-02-23T14:24:44Z</time>
      </trkpt>
      <trkpt lat="44.8655" lon="-0.52416">
        <ele>47.807250976562</ele>
        <time>2022-02-23T14:24:52Z</time>
      </trkpt>
      <trkpt lat="44.86546" lon="-0.52429">
        <ele>47.522583007812</ele>
        <time>2022-02-23T14:24:59Z</time>
      </trkpt>
      <trkpt lat="44.86539" lon="-0.52438">
        <ele>45.790222167969</ele>
        <time>2022-02-23T14:25:18Z</time>
      </trkpt>
      <trkpt lat="44.86534" lon="-0.52451">
        <ele>44.065795898438</ele>
        <time>2022-02-23T14:25:26Z</time>
      </trkpt>
      <trkpt lat="44.86527" lon="-0.52462">
        <ele>43.146118164062</ele>
        <time>2022-02-23T14:25:35Z</time>
      </trkpt>
      <trkpt lat="44.86523" lon="-0.52475">
        <ele>46.107788085938</ele>
        <time>2022-02-23T14:25:41Z</time>
      </trkpt>
      <trkpt lat="44.86524" lon="-0.5249">
        <ele>46.508728027344</ele>
        <time>2022-02-23T14:25:48Z</time>
      </trkpt>
      <trkpt lat="44.86534" lon="-0.52494">
        <ele>46.020690917969</ele>
        <time>2022-02-23T14:25:56Z</time>
      </trkpt>
      <trkpt lat="44.86543" lon="-0.52503">
        <ele>39.417297363281</ele>
        <time>2022-02-23T14:26:05Z</time>
      </trkpt>
      <trkpt lat="44.86549" lon="-0.52515">
        <ele>39.953674316406</ele>
        <time>2022-02-23T14:26:15Z</time>
      </trkpt>
      <trkpt lat="44.86556" lon="-0.5253">
        <ele>42.61181640625</ele>
        <time>2022-02-23T14:26:31Z</time>
      </trkpt>
      <trkpt lat="44.86563" lon="-0.5254">
        <ele>44.716918945312</ele>
        <time>2022-02-23T14:26:40Z</time>
      </trkpt>
      <trkpt lat="44.86573" lon="-0.52548">
        <ele>44.085266113281</ele>
        <time>2022-02-23T14:26:48Z</time>
      </trkpt>
      <trkpt lat="44.86583" lon="-0.52553">
        <ele>44.594665527344</ele>
        <time>2022-02-23T14:26:56Z</time>
      </trkpt>
      <trkpt lat="44.86591" lon="-0.52562">
        <ele>46.534240722656</ele>
        <time>2022-02-23T14:27:04Z</time>
      </trkpt>
      <trkpt lat="44.866" lon="-0.52571">
        <ele>43.270812988281</ele>
        <time>2022-02-23T14:27:12Z</time>
      </trkpt>
      <trkpt lat="44.86604" lon="-0.52584">
        <ele>34.250549316406</ele>
        <time>2022-02-23T14:27:27Z</time>
      </trkpt>
      <trkpt lat="44.86608" lon="-0.52596">
        <ele>35.550537109375</ele>
        <time>2022-02-23T14:27:37Z</time>
      </trkpt>
      <trkpt lat="44.86613" lon="-0.52608">
        <ele>35.663391113281</ele>
        <time>2022-02-23T14:27:45Z</time>
      </trkpt>
      <trkpt lat="44.86616" lon="-0.52623">
        <ele>31.0556640625</ele>
        <time>2022-02-23T14:27:55Z</time>
      </trkpt>
      <trkpt lat="44.86612" lon="-0.52635">
        <ele>32.774719238281</ele>
        <time>2022-02-23T14:28:04Z</time>
      </trkpt>
      <trkpt lat="44.86615" lon="-0.52648">
        <ele>31.611938476562</ele>
        <time>2022-02-23T14:28:13Z</time>
      </trkpt>
      <trkpt lat="44.86621" lon="-0.52662">
        <ele>33.836364746094</ele>
        <time>2022-02-23T14:28:19Z</time>
      </trkpt>
      <trkpt lat="44.86626" lon="-0.52673">
        <ele>38.646057128906</ele>
        <time>2022-02-23T14:28:30Z</time>
      </trkpt>
      <trkpt lat="44.86631" lon="-0.52685">
        <ele>40.602355957031</ele>
        <time>2022-02-23T14:28:37Z</time>
      </trkpt>
      <trkpt lat="44.86641" lon="-0.52685">
        <ele>39.6484375</ele>
        <time>2022-02-23T14:28:47Z</time>
      </trkpt>
      <trkpt lat="44.86644" lon="-0.52703">
        <ele>38.065368652344</ele>
        <time>2022-02-23T14:29:04Z</time>
      </trkpt>
      <trkpt lat="44.86647" lon="-0.52715">
        <ele>41.810729980469</ele>
        <time>2022-02-23T14:30:21Z</time>
      </trkpt>
      <trkpt lat="44.86656" lon="-0.52724">
        <ele>41.951599121094</ele>
        <time>2022-02-23T14:30:25Z</time>
      </trkpt>
      <trkpt lat="44.86666" lon="-0.52724">
        <ele>44.72265625</ele>
        <time>2022-02-23T14:30:33Z</time>
      </trkpt>
      <trkpt lat="44.86677" lon="-0.52723">
        <ele>45.671997070312</ele>
        <time>2022-02-23T14:30:38Z</time>
      </trkpt>
      <trkpt lat="44.86687" lon="-0.5272">
        <ele>46.878479003906</ele>
        <time>2022-02-23T14:30:47Z</time>
      </trkpt>
      <trkpt lat="44.86697" lon="-0.52727">
        <ele>46.316528320312</ele>
        <time>2022-02-23T14:31:10Z</time>
      </trkpt>
      <trkpt lat="44.86701" lon="-0.52743">
        <ele>42.303771972656</ele>
        <time>2022-02-23T14:31:20Z</time>
      </trkpt>
      <trkpt lat="44.86703" lon="-0.52756">
        <ele>41.821960449219</ele>
        <time>2022-02-23T14:31:28Z</time>
      </trkpt>
      <trkpt lat="44.86711" lon="-0.52769">
        <ele>40.451904296875</ele>
        <time>2022-02-23T14:31:34Z</time>
      </trkpt>
      <trkpt lat="44.86713" lon="-0.52783">
        <ele>37.841064453125</ele>
        <time>2022-02-23T14:31:40Z</time>
      </trkpt>
      <trkpt lat="44.86711" lon="-0.52796">
        <ele>39.812255859375</ele>
        <time>2022-02-23T14:31:49Z</time>
      </trkpt>
      <trkpt lat="44.86708" lon="-0.52815">
        <ele>36.64453125</ele>
        <time>2022-02-23T14:32:15Z</time>
      </trkpt>
      <trkpt lat="44.8671" lon="-0.52829">
        <ele>33.03125</ele>
        <time>2022-02-23T14:32:21Z</time>
      </trkpt>
      <trkpt lat="44.86714" lon="-0.52843">
        <ele>33.407165527344</ele>
        <time>2022-02-23T14:32:25Z</time>
      </trkpt>
      <trkpt lat="44.8671" lon="-0.52857">
        <ele>40.911193847656</ele>
        <time>2022-02-23T14:32:31Z</time>
      </trkpt>
      <trkpt lat="44.86711" lon="-0.52871">
        <ele>41.300842285156</ele>
        <time>2022-02-23T14:32:35Z</time>
      </trkpt>
      <trkpt lat="44.8671" lon="-0.52886">
        <ele>44.5634765625</ele>
        <time>2022-02-23T14:32:40Z</time>
      </trkpt>
      <trkpt lat="44.86713" lon="-0.52899">
        <ele>49.135986328125</ele>
        <time>2022-02-23T14:32:47Z</time>
      </trkpt>
      <trkpt lat="44.86709" lon="-0.52914">
        <ele>46.966186523438</ele>
        <time>2022-02-23T14:33:22Z</time>
      </trkpt>
      <trkpt lat="44.86708" lon="-0.52933">
        <ele>49.482543945312</ele>
        <time>2022-02-23T14:33:28Z</time>
      </trkpt>
      <trkpt lat="44.86708" lon="-0.5295">
        <ele>49.811706542969</ele>
        <time>2022-02-23T14:33:33Z</time>
      </trkpt>
      <trkpt lat="44.867" lon="-0.52961">
        <ele>53.651062011719</ele>
        <time>2022-02-23T14:33:37Z</time>
      </trkpt>
      <trkpt lat="44.86695" lon="-0.52973">
        <ele>53.165710449219</ele>
        <time>2022-02-23T14:33:42Z</time>
      </trkpt>
      <trkpt lat="44.86688" lon="-0.52985">
        <ele>58.534790039062</ele>
        <time>2022-02-23T14:33:51Z</time>
      </trkpt>
      <trkpt lat="44.8668" lon="-0.5299">
        <ele>57.465759277344</ele>
        <time>2022-02-23T14:33:58Z</time>
      </trkpt>
      <trkpt lat="44.86669" lon="-0.52994">
        <ele>52.06298828125</ele>
        <time>2022-02-23T14:34:07Z</time>
      </trkpt>
      <trkpt lat="44.8666" lon="-0.52998">
        <ele>54.330810546875</ele>
        <time>2022-02-23T14:34:13Z</time>
      </trkpt>
      <trkpt lat="44.86651" lon="-0.53002">
        <ele>52.885498046875</ele>
        <time>2022-02-23T14:34:20Z</time>
      </trkpt>
      <trkpt lat="44.86657" lon="-0.52993">
        <ele>51.386657714844</ele>
        <time>2022-02-23T14:34:34Z</time>
      </trkpt>
      <trkpt lat="44.86666" lon="-0.52997">
        <ele>52.917175292969</ele>
        <time>2022-02-23T14:34:44Z</time>
      </trkpt>
      <trkpt lat="44.86672" lon="-0.53007">
        <ele>58.339233398438</ele>
        <time>2022-02-23T14:34:49Z</time>
      </trkpt>
      <trkpt lat="44.8668" lon="-0.53017">
        <ele>55.452758789062</ele>
        <time>2022-02-23T14:34:58Z</time>
      </trkpt>
      <trkpt lat="44.86688" lon="-0.53023">
        <ele>52.839599609375</ele>
        <time>2022-02-23T14:35:50Z</time>
      </trkpt>
      <trkpt lat="44.86694" lon="-0.53038">
        <ele>53.147216796875</ele>
        <time>2022-02-23T14:36:06Z</time>
      </trkpt>
      <trkpt lat="44.8669" lon="-0.5305">
        <ele>54.079833984375</ele>
        <time>2022-02-23T14:36:14Z</time>
      </trkpt>
      <trkpt lat="44.86689" lon="-0.53063">
        <ele>50.7197265625</ele>
        <time>2022-02-23T14:36:19Z</time>
      </trkpt>
      <trkpt lat="44.86697" lon="-0.53076">
        <ele>50.312744140625</ele>
        <time>2022-02-23T14:36:26Z</time>
      </trkpt>
      <trkpt lat="44.86697" lon="-0.53091">
        <ele>53.005187988281</ele>
        <time>2022-02-23T14:36:33Z</time>
      </trkpt>
      <trkpt lat="44.86698" lon="-0.53107">
        <ele>51.104736328125</ele>
        <time>2022-02-23T14:36:48Z</time>
      </trkpt>
      <trkpt lat="44.8669" lon="-0.53119">
        <ele>49.503784179688</ele>
        <time>2022-02-23T14:36:58Z</time>
      </trkpt>
      <trkpt lat="44.86679" lon="-0.53122">
        <ele>47.011169433594</ele>
        <time>2022-02-23T14:37:05Z</time>
      </trkpt>
      <trkpt lat="44.86669" lon="-0.53126">
        <ele>47.113403320312</ele>
        <time>2022-02-23T14:37:14Z</time>
      </trkpt>
      <trkpt lat="44.86664" lon="-0.53137">
        <ele>43.823608398438</ele>
        <time>2022-02-23T14:37:26Z</time>
      </trkpt>
      <trkpt lat="44.86665" lon="-0.5315">
        <ele>42.757873535156</ele>
        <time>2022-02-23T14:37:37Z</time>
      </trkpt>
      <trkpt lat="44.86661" lon="-0.53165">
        <ele>41.047119140625</ele>
        <time>2022-02-23T14:38:02Z</time>
      </trkpt>
      <trkpt lat="44.86663" lon="-0.53179">
        <ele>37.637023925781</ele>
        <time>2022-02-23T14:38:08Z</time>
      </trkpt>
      <trkpt lat="44.86666" lon="-0.53194">
        <ele>38.393188476562</ele>
        <time>2022-02-23T14:38:14Z</time>
      </trkpt>
      <trkpt lat="44.86673" lon="-0.53202">
        <ele>42.883728027344</ele>
        <time>2022-02-23T14:38:22Z</time>
      </trkpt>
      <trkpt lat="44.86683" lon="-0.53199">
        <ele>43.961242675781</ele>
        <time>2022-02-23T14:38:31Z</time>
      </trkpt>
      <trkpt lat="44.86693" lon="-0.53201">
        <ele>45.0478515625</ele>
        <time>2022-02-23T14:38:42Z</time>
      </trkpt>
      <trkpt lat="44.86703" lon="-0.53205">
        <ele>46.947692871094</ele>
        <time>2022-02-23T14:38:49Z</time>
      </trkpt>
      <trkpt lat="44.86714" lon="-0.53212">
        <ele>48.8857421875</ele>
        <time>2022-02-23T14:38:57Z</time>
      </trkpt>
      <trkpt lat="44.86716" lon="-0.53225">
        <ele>50.634643554688</ele>
        <time>2022-02-23T14:39:13Z</time>
      </trkpt>
      <trkpt lat="44.8672" lon="-0.53238">
        <ele>46.961242675781</ele>
        <time>2022-02-23T14:39:23Z</time>
      </trkpt>
      <trkpt lat="44.86728" lon="-0.53248">
        <ele>41.775024414062</ele>
        <time>2022-02-23T14:39:32Z</time>
      </trkpt>
      <trkpt lat="44.86734" lon="-0.53261">
        <ele>42.553466796875</ele>
        <time>2022-02-23T14:39:40Z</time>
      </trkpt>
      <trkpt lat="44.8674" lon="-0.5327">
        <ele>40.005004882812</ele>
        <time>2022-02-23T14:39:51Z</time>
      </trkpt>
      <trkpt lat="44.86748" lon="-0.5328">
        <ele>38.351257324219</ele>
        <time>2022-02-23T14:39:59Z</time>
      </trkpt>
      <trkpt lat="44.86756" lon="-0.53289">
        <ele>39.67041015625</ele>
        <time>2022-02-23T14:40:05Z</time>
      </trkpt>
      <trkpt lat="44.86764" lon="-0.53297">
        <ele>42.859313964844</ele>
        <time>2022-02-23T14:40:13Z</time>
      </trkpt>
      <trkpt lat="44.86771" lon="-0.53307">
        <ele>46.754760742188</ele>
        <time>2022-02-23T14:40:19Z</time>
      </trkpt>
      <trkpt lat="44.86778" lon="-0.53317">
        <ele>47.398376464844</ele>
        <time>2022-02-23T14:40:25Z</time>
      </trkpt>
      <trkpt lat="44.86787" lon="-0.53322">
        <ele>46.067626953125</ele>
        <time>2022-02-23T14:40:32Z</time>
      </trkpt>
      <trkpt lat="44.86798" lon="-0.53323">
        <ele>47.579406738281</ele>
        <time>2022-02-23T14:40:39Z</time>
      </trkpt>
      <trkpt lat="44.86806" lon="-0.53331">
        <ele>48.765014648438</ele>
        <time>2022-02-23T14:40:46Z</time>
      </trkpt>
      <trkpt lat="44.86815" lon="-0.5334">
        <ele>45.209289550781</ele>
        <time>2022-02-23T14:40:53Z</time>
      </trkpt>
      <trkpt lat="44.86824" lon="-0.53342">
        <ele>44.940246582031</ele>
        <time>2022-02-23T14:41:00Z</time>
      </trkpt>
      <trkpt lat="44.86833" lon="-0.53346">
        <ele>48.531616210938</ele>
        <time>2022-02-23T14:41:09Z</time>
      </trkpt>
      <trkpt lat="44.86826" lon="-0.53362">
        <ele>49.478271484375</ele>
        <time>2022-02-23T14:41:59Z</time>
      </trkpt>
      <trkpt lat="44.8682" lon="-0.53373">
        <ele>43.726013183594</ele>
        <time>2022-02-23T14:42:03Z</time>
      </trkpt>
      <trkpt lat="44.86816" lon="-0.53386">
        <ele>44.355651855469</ele>
        <time>2022-02-23T14:42:07Z</time>
      </trkpt>
      <trkpt lat="44.86817" lon="-0.53401">
        <ele>42.956665039062</ele>
        <time>2022-02-23T14:42:13Z</time>
      </trkpt>
      <trkpt lat="44.86813" lon="-0.53414">
        <ele>39.796691894531</ele>
        <time>2022-02-23T14:42:20Z</time>
      </trkpt>
      <trkpt lat="44.8681" lon="-0.53433">
        <ele>34.399047851562</ele>
        <time>2022-02-23T14:42:30Z</time>
      </trkpt>
      <trkpt lat="44.86807" lon="-0.53448">
        <ele>33.474304199219</ele>
        <time>2022-02-23T14:42:39Z</time>
      </trkpt>
      <trkpt lat="44.86805" lon="-0.53464">
        <ele>40.132751464844</ele>
        <time>2022-02-23T14:42:47Z</time>
      </trkpt>
      <trkpt lat="44.86801" lon="-0.53475">
        <ele>36.572326660156</ele>
        <time>2022-02-23T14:44:35Z</time>
      </trkpt>
      <trkpt lat="44.86796" lon="-0.53464">
        <ele>43.494995117188</ele>
        <time>2022-02-23T14:44:43Z</time>
      </trkpt>
      <trkpt lat="44.86796" lon="-0.5345">
        <ele>45.042053222656</ele>
        <time>2022-02-23T14:44:54Z</time>
      </trkpt>
      <trkpt lat="44.86785" lon="-0.53452">
        <ele>43.626586914062</ele>
        <time>2022-02-23T14:45:51Z</time>
      </trkpt>
      <trkpt lat="44.86776" lon="-0.53446">
        <ele>43.274475097656</ele>
        <time>2022-02-23T14:45:59Z</time>
      </trkpt>
      <trkpt lat="44.8677" lon="-0.53455">
        <ele>42.2861328125</ele>
        <time>2022-02-23T14:46:07Z</time>
      </trkpt>
      <trkpt lat="44.86782" lon="-0.53452">
        <ele>37.890869140625</ele>
        <time>2022-02-23T14:47:42Z</time>
      </trkpt>
      <trkpt lat="44.86789" lon="-0.53443">
        <ele>36.688415527344</ele>
        <time>2022-02-23T14:47:51Z</time>
      </trkpt>
      <trkpt lat="44.86798" lon="-0.53436">
        <ele>36.22802734375</ele>
        <time>2022-02-23T14:47:58Z</time>
      </trkpt>
      <trkpt lat="44.86807" lon="-0.53442">
        <ele>35.115112304688</ele>
        <time>2022-02-23T14:48:05Z</time>
      </trkpt>
      <trkpt lat="44.86814" lon="-0.53433">
        <ele>36.91015625</ele>
        <time>2022-02-23T14:48:30Z</time>
      </trkpt>
      <trkpt lat="44.86821" lon="-0.53421">
        <ele>33.640930175781</ele>
        <time>2022-02-23T14:49:26Z</time>
      </trkpt>
      <trkpt lat="44.86831" lon="-0.5341">
        <ele>31.799072265625</ele>
        <time>2022-02-23T14:49:30Z</time>
      </trkpt>
      <trkpt lat="44.86839" lon="-0.53403">
        <ele>33.646484375</ele>
        <time>2022-02-23T14:49:37Z</time>
      </trkpt>
      <trkpt lat="44.86846" lon="-0.53391">
        <ele>39.387329101562</ele>
        <time>2022-02-23T14:49:48Z</time>
      </trkpt>
      <trkpt lat="44.86848" lon="-0.53377">
        <ele>37.521850585938</ele>
        <time>2022-02-23T14:49:55Z</time>
      </trkpt>
      <trkpt lat="44.86851" lon="-0.53364">
        <ele>39.04296875</ele>
        <time>2022-02-23T14:50:04Z</time>
      </trkpt>
      <trkpt lat="44.86854" lon="-0.53352">
        <ele>39.011474609375</ele>
        <time>2022-02-23T14:50:24Z</time>
      </trkpt>
      <trkpt lat="44.86863" lon="-0.53349">
        <ele>38.23046875</ele>
        <time>2022-02-23T14:50:47Z</time>
      </trkpt>
      <trkpt lat="44.86872" lon="-0.5335">
        <ele>36.9833984375</ele>
        <time>2022-02-23T14:50:50Z</time>
      </trkpt>
      <trkpt lat="44.86882" lon="-0.53349">
        <ele>44.027709960938</ele>
        <time>2022-02-23T14:50:54Z</time>
      </trkpt>
      <trkpt lat="44.86905" lon="-0.53347">
        <ele>52.500854492188</ele>
        <time>2022-02-23T14:51:00Z</time>
      </trkpt>
      <trkpt lat="44.86914" lon="-0.53344">
        <ele>43.8505859375</ele>
        <time>2022-02-23T14:51:05Z</time>
      </trkpt>
      <trkpt lat="44.86921" lon="-0.53336">
        <ele>47.201354980469</ele>
        <time>2022-02-23T14:51:18Z</time>
      </trkpt>
      <trkpt lat="44.86931" lon="-0.53338">
        <ele>45.328125</ele>
        <time>2022-02-23T14:51:27Z</time>
      </trkpt>
      <trkpt lat="44.86943" lon="-0.53336">
        <ele>45.373474121094</ele>
        <time>2022-02-23T14:51:36Z</time>
      </trkpt>
      <trkpt lat="44.86953" lon="-0.53339">
        <ele>48.580810546875</ele>
        <time>2022-02-23T14:51:45Z</time>
      </trkpt>
      <trkpt lat="44.86959" lon="-0.53329">
        <ele>53.630798339844</ele>
        <time>2022-02-23T14:52:06Z</time>
      </trkpt>
      <trkpt lat="44.86969" lon="-0.53328">
        <ele>57.345703125</ele>
        <time>2022-02-23T14:52:11Z</time>
      </trkpt>
      <trkpt lat="44.86978" lon="-0.53335">
        <ele>57.743408203125</ele>
        <time>2022-02-23T14:52:16Z</time>
      </trkpt>
      <trkpt lat="44.86985" lon="-0.53344">
        <ele>58.257690429688</ele>
        <time>2022-02-23T14:52:21Z</time>
      </trkpt>
      <trkpt lat="44.86985" lon="-0.53361">
        <ele>51.482849121094</ele>
        <time>2022-02-23T14:52:41Z</time>
      </trkpt>
      <trkpt lat="44.86983" lon="-0.53374">
        <ele>58.954711914062</ele>
        <time>2022-02-23T14:52:59Z</time>
      </trkpt>
      <trkpt lat="44.86992" lon="-0.53363">
        <ele>47.499145507812</ele>
        <time>2022-02-23T14:53:40Z</time>
      </trkpt>
      <trkpt lat="44.86999" lon="-0.53355">
        <ele>48.081909179688</ele>
        <time>2022-02-23T14:53:45Z</time>
      </trkpt>
      <trkpt lat="44.87" lon="-0.5334">
        <ele>48.538208007812</ele>
        <time>2022-02-23T14:53:49Z</time>
      </trkpt>
      <trkpt lat="44.86999" lon="-0.53323">
        <ele>50.305541992188</ele>
        <time>2022-02-23T14:53:54Z</time>
      </trkpt>
      <trkpt lat="44.87008" lon="-0.53312">
        <ele>49.942443847656</ele>
        <time>2022-02-23T14:54:00Z</time>
      </trkpt>
      <trkpt lat="44.87017" lon="-0.53307">
        <ele>51.435180664062</ele>
        <time>2022-02-23T14:54:06Z</time>
      </trkpt>
      <trkpt lat="44.87027" lon="-0.53302">
        <ele>48.341735839844</ele>
        <time>2022-02-23T14:54:16Z</time>
      </trkpt>
      <trkpt lat="44.87038" lon="-0.53299">
        <ele>49.7080078125</ele>
        <time>2022-02-23T14:54:25Z</time>
      </trkpt>
      <trkpt lat="44.8705" lon="-0.53296">
        <ele>50.213623046875</ele>
        <time>2022-02-23T14:54:32Z</time>
      </trkpt>
      <trkpt lat="44.87055" lon="-0.53308">
        <ele>50.3203125</ele>
        <time>2022-02-23T14:54:47Z</time>
      </trkpt>
      <trkpt lat="44.87062" lon="-0.53317">
        <ele>51.832336425781</ele>
        <time>2022-02-23T14:54:54Z</time>
      </trkpt>
      <trkpt lat="44.87072" lon="-0.53326">
        <ele>51.321899414062</ele>
        <time>2022-02-23T14:55:00Z</time>
      </trkpt>
      <trkpt lat="44.87082" lon="-0.53334">
        <ele>51.478088378906</ele>
        <time>2022-02-23T14:55:06Z</time>
      </trkpt>
      <trkpt lat="44.8709" lon="-0.53343">
        <ele>49.855041503906</ele>
        <time>2022-02-23T14:55:13Z</time>
      </trkpt>
      <trkpt lat="44.871" lon="-0.53343">
        <ele>47.943908691406</ele>
        <time>2022-02-23T14:55:20Z</time>
      </trkpt>
      <trkpt lat="44.87109" lon="-0.53341">
        <ele>45.943481445312</ele>
        <time>2022-02-23T14:55:32Z</time>
      </trkpt>
      <trkpt lat="44.8712" lon="-0.5334">
        <ele>44.432189941406</ele>
        <time>2022-02-23T14:55:42Z</time>
      </trkpt>
      <trkpt lat="44.87129" lon="-0.53334">
        <ele>47.415344238281</ele>
        <time>2022-02-23T14:55:53Z</time>
      </trkpt>
      <trkpt lat="44.87139" lon="-0.53333">
        <ele>46.176025390625</ele>
        <time>2022-02-23T14:56:01Z</time>
      </trkpt>
      <trkpt lat="44.87149" lon="-0.53339">
        <ele>45.729919433594</ele>
        <time>2022-02-23T14:56:08Z</time>
      </trkpt>
      <trkpt lat="44.87159" lon="-0.53342">
        <ele>46.121032714844</ele>
        <time>2022-02-23T14:56:14Z</time>
      </trkpt>
      <trkpt lat="44.87169" lon="-0.53337">
        <ele>42.703125</ele>
        <time>2022-02-23T14:56:23Z</time>
      </trkpt>
      <trkpt lat="44.87179" lon="-0.53336">
        <ele>40.400817871094</ele>
        <time>2022-02-23T14:56:35Z</time>
      </trkpt>
      <trkpt lat="44.87191" lon="-0.53334">
        <ele>40.701965332031</ele>
        <time>2022-02-23T14:56:43Z</time>
      </trkpt>
      <trkpt lat="44.87201" lon="-0.5333">
        <ele>35.921630859375</ele>
        <time>2022-02-23T14:56:53Z</time>
      </trkpt>
      <trkpt lat="44.87211" lon="-0.53331">
        <ele>35.884399414062</ele>
        <time>2022-02-23T14:57:02Z</time>
      </trkpt>
      <trkpt lat="44.87219" lon="-0.53338">
        <ele>33.93017578125</ele>
        <time>2022-02-23T14:57:09Z</time>
      </trkpt>
      <trkpt lat="44.87228" lon="-0.53334">
        <ele>33.260803222656</ele>
        <time>2022-02-23T14:57:18Z</time>
      </trkpt>
      <trkpt lat="44.87238" lon="-0.53336">
        <ele>31.86572265625</ele>
        <time>2022-02-23T14:57:26Z</time>
      </trkpt>
      <trkpt lat="44.87246" lon="-0.53329">
        <ele>27.37158203125</ele>
        <time>2022-02-23T14:57:39Z</time>
      </trkpt>
      <trkpt lat="44.87253" lon="-0.53319">
        <ele>27.596069335938</ele>
        <time>2022-02-23T14:57:48Z</time>
      </trkpt>
      <trkpt lat="44.87263" lon="-0.53323">
        <ele>31.861938476562</ele>
        <time>2022-02-23T14:58:13Z</time>
      </trkpt>
      <trkpt lat="44.87254" lon="-0.53331">
        <ele>29.832702636719</ele>
        <time>2022-02-23T14:58:47Z</time>
      </trkpt>
      <trkpt lat="44.87265" lon="-0.53322">
        <ele>20.18408203125</ele>
        <time>2022-02-23T15:00:34Z</time>
      </trkpt>
      <trkpt lat="44.87276" lon="-0.53324">
        <ele>31.356323242188</ele>
        <time>2022-02-23T15:00:39Z</time>
      </trkpt>
      <trkpt lat="44.87284" lon="-0.53335">
        <ele>22.44873046875</ele>
        <time>2022-02-23T15:01:05Z</time>
      </trkpt>
      <trkpt lat="44.87292" lon="-0.53341">
        <ele>14.60107421875</ele>
        <time>2022-02-23T15:01:12Z</time>
      </trkpt>
      <trkpt lat="44.87291" lon="-0.53354">
        <ele>15.700500488281</ele>
        <time>2022-02-23T15:01:16Z</time>
      </trkpt>
      <trkpt lat="44.873" lon="-0.53369">
        <ele>20.759887695312</ele>
        <time>2022-02-23T15:01:20Z</time>
      </trkpt>
      <trkpt lat="44.87309" lon="-0.53379">
        <ele>20.734680175781</ele>
        <time>2022-02-23T15:01:27Z</time>
      </trkpt>
      <trkpt lat="44.87319" lon="-0.5338">
        <ele>17.868957519531</ele>
        <time>2022-02-23T15:03:33Z</time>
      </trkpt>
      <trkpt lat="44.87331" lon="-0.53379">
        <ele>20.225769042969</ele>
        <time>2022-02-23T15:03:41Z</time>
      </trkpt>
      <trkpt lat="44.87341" lon="-0.53377">
        <ele>18.887268066406</ele>
        <time>2022-02-23T15:03:46Z</time>
      </trkpt>
      <trkpt lat="44.8735" lon="-0.53381">
        <ele>6.7939453125</ele>
        <time>2022-02-23T15:03:56Z</time>
      </trkpt>
      <trkpt lat="44.87361" lon="-0.53373">
        <ele>5.5633544921875</ele>
        <time>2022-02-23T15:04:36Z</time>
      </trkpt>
      <trkpt lat="44.8737" lon="-0.53363">
        <ele>-4.9297485351562</ele>
        <time>2022-02-23T15:04:42Z</time>
      </trkpt>
      <trkpt lat="44.87376" lon="-0.53353">
        <ele>-0.9224853515625</ele>
        <time>2022-02-23T15:04:48Z</time>
      </trkpt>
      <trkpt lat="44.87384" lon="-0.53346">
        <ele>3.2702026367188</ele>
        <time>2022-02-23T15:04:55Z</time>
      </trkpt>
      <trkpt lat="44.87389" lon="-0.53333">
        <ele>3.2748413085938</ele>
        <time>2022-02-23T15:05:02Z</time>
      </trkpt>
      <trkpt lat="44.87386" lon="-0.53316">
        <ele>16.33447265625</ele>
        <time>2022-02-23T15:05:13Z</time>
      </trkpt>
      <trkpt lat="44.87392" lon="-0.53305">
        <ele>17.581115722656</ele>
        <time>2022-02-23T15:05:23Z</time>
      </trkpt>
      <trkpt lat="44.87401" lon="-0.53297">
        <ele>16.316162109375</ele>
        <time>2022-02-23T15:05:30Z</time>
      </trkpt>
      <trkpt lat="44.87411" lon="-0.5329">
        <ele>20.651794433594</ele>
        <time>2022-02-23T15:05:38Z</time>
      </trkpt>
      <trkpt lat="44.87421" lon="-0.53284">
        <ele>20.506713867188</ele>
        <time>2022-02-23T15:05:46Z</time>
      </trkpt>
      <trkpt lat="44.87429" lon="-0.53278">
        <ele>21.453247070312</ele>
        <time>2022-02-23T15:05:54Z</time>
      </trkpt>
      <trkpt lat="44.87435" lon="-0.53269">
        <ele>25.956909179688</ele>
        <time>2022-02-23T15:06:03Z</time>
      </trkpt>
      <trkpt lat="44.87403" lon="-0.53256">
        <ele>11.344177246094</ele>
        <time>2022-02-23T15:08:39Z</time>
      </trkpt>
      <trkpt lat="44.87404" lon="-0.53242">
        <ele>9.6767578125</ele>
        <time>2022-02-23T15:08:45Z</time>
      </trkpt>
      <trkpt lat="44.87396" lon="-0.53229">
        <ele>5.1908569335938</ele>
        <time>2022-02-23T15:08:49Z</time>
      </trkpt>
      <trkpt lat="44.87386" lon="-0.53219">
        <ele>2.87158203125</ele>
        <time>2022-02-23T15:08:54Z</time>
      </trkpt>
      <trkpt lat="44.8738" lon="-0.53207">
        <ele>3.93798828125</ele>
        <time>2022-02-23T15:08:59Z</time>
      </trkpt>
      <trkpt lat="44.87379" lon="-0.53194">
        <ele>15.572326660156</ele>
        <time>2022-02-23T15:09:03Z</time>
      </trkpt>
      <trkpt lat="44.87376" lon="-0.53181">
        <ele>22.115417480469</ele>
        <time>2022-02-23T15:09:07Z</time>
      </trkpt>
      <trkpt lat="44.87376" lon="-0.53168">
        <ele>25.424926757812</ele>
        <time>2022-02-23T15:09:12Z</time>
      </trkpt>
      <trkpt lat="44.87383" lon="-0.53154">
        <ele>32.430480957031</ele>
        <time>2022-02-23T15:09:19Z</time>
      </trkpt>
      <trkpt lat="44.87392" lon="-0.53144">
        <ele>34.082580566406</ele>
        <time>2022-02-23T15:09:24Z</time>
      </trkpt>
      <trkpt lat="44.87402" lon="-0.53138">
        <ele>33.954711914062</ele>
        <time>2022-02-23T15:09:38Z</time>
      </trkpt>
      <trkpt lat="44.87412" lon="-0.53134">
        <ele>35.278991699219</ele>
        <time>2022-02-23T15:09:43Z</time>
      </trkpt>
      <trkpt lat="44.87417" lon="-0.53121">
        <ele>37.070068359375</ele>
        <time>2022-02-23T15:09:50Z</time>
      </trkpt>
      <trkpt lat="44.87427" lon="-0.53118">
        <ele>42.236999511719</ele>
        <time>2022-02-23T15:10:00Z</time>
      </trkpt>
      <trkpt lat="44.8744" lon="-0.53117">
        <ele>41.701354980469</ele>
        <time>2022-02-23T15:10:06Z</time>
      </trkpt>
      <trkpt lat="44.87449" lon="-0.53107">
        <ele>40.852722167969</ele>
        <time>2022-02-23T15:10:12Z</time>
      </trkpt>
      <trkpt lat="44.8746" lon="-0.53113">
        <ele>37.070617675781</ele>
        <time>2022-02-23T15:13:13Z</time>
      </trkpt>
      <trkpt lat="44.87472" lon="-0.53117">
        <ele>40.0712890625</ele>
        <time>2022-02-23T15:13:19Z</time>
      </trkpt>
      <trkpt lat="44.87483" lon="-0.53121">
        <ele>35.488037109375</ele>
        <time>2022-02-23T15:13:25Z</time>
      </trkpt>
      <trkpt lat="44.87495" lon="-0.53126">
        <ele>34.247802734375</ele>
        <time>2022-02-23T15:13:30Z</time>
      </trkpt>
      <trkpt lat="44.87505" lon="-0.53127">
        <ele>34.678344726562</ele>
        <time>2022-02-23T15:13:37Z</time>
      </trkpt>
      <trkpt lat="44.87519" lon="-0.5313">
        <ele>36.621520996094</ele>
        <time>2022-02-23T15:13:42Z</time>
      </trkpt>
      <trkpt lat="44.87529" lon="-0.53137">
        <ele>30.936157226562</ele>
        <time>2022-02-23T15:13:51Z</time>
      </trkpt>
      <trkpt lat="44.87539" lon="-0.5314">
        <ele>29.72802734375</ele>
        <time>2022-02-23T15:13:59Z</time>
      </trkpt>
      <trkpt lat="44.87548" lon="-0.53147">
        <ele>26.131042480469</ele>
        <time>2022-02-23T15:14:06Z</time>
      </trkpt>
      <trkpt lat="44.8756" lon="-0.53145">
        <ele>26.619506835938</ele>
        <time>2022-02-23T15:14:10Z</time>
      </trkpt>
      <trkpt lat="44.8757" lon="-0.53158">
        <ele>26.430114746094</ele>
        <time>2022-02-23T15:14:25Z</time>
      </trkpt>
      <trkpt lat="44.87579" lon="-0.53159">
        <ele>21.333862304688</ele>
        <time>2022-02-23T15:14:38Z</time>
      </trkpt>
      <trkpt lat="44.87587" lon="-0.53165">
        <ele>18.600402832031</ele>
        <time>2022-02-23T15:14:43Z</time>
      </trkpt>
      <trkpt lat="44.87597" lon="-0.53173">
        <ele>18.351501464844</ele>
        <time>2022-02-23T15:14:48Z</time>
      </trkpt>
      <trkpt lat="44.87609" lon="-0.53179">
        <ele>16.357421875</ele>
        <time>2022-02-23T15:14:56Z</time>
      </trkpt>
      <trkpt lat="44.87612" lon="-0.53198">
        <ele>16.993041992188</ele>
        <time>2022-02-23T15:15:11Z</time>
      </trkpt>
      <trkpt lat="44.87616" lon="-0.53209">
        <ele>15.623352050781</ele>
        <time>2022-02-23T15:15:24Z</time>
      </trkpt>
      <trkpt lat="44.87626" lon="-0.53216">
        <ele>22.237976074219</ele>
        <time>2022-02-23T15:15:39Z</time>
      </trkpt>
      <trkpt lat="44.87635" lon="-0.53226">
        <ele>19.967651367188</ele>
        <time>2022-02-23T15:15:51Z</time>
      </trkpt>
      <trkpt lat="44.87644" lon="-0.53231">
        <ele>21.894897460938</ele>
        <time>2022-02-23T15:15:59Z</time>
      </trkpt>
      <trkpt lat="44.87653" lon="-0.53233">
        <ele>18.51416015625</ele>
        <time>2022-02-23T15:16:05Z</time>
      </trkpt>
      <trkpt lat="44.87664" lon="-0.53233">
        <ele>17.67138671875</ele>
        <time>2022-02-23T15:16:11Z</time>
      </trkpt>
      <trkpt lat="44.87672" lon="-0.53239">
        <ele>18.447875976562</ele>
        <time>2022-02-23T15:16:22Z</time>
      </trkpt>
      <trkpt lat="44.87685" lon="-0.53239">
        <ele>18.546081542969</ele>
        <time>2022-02-23T15:17:32Z</time>
      </trkpt>
      <trkpt lat="44.87695" lon="-0.53235">
        <ele>15.006164550781</ele>
        <time>2022-02-23T15:17:38Z</time>
      </trkpt>
      <trkpt lat="44.87705" lon="-0.53231">
        <ele>11.496459960938</ele>
        <time>2022-02-23T15:17:44Z</time>
      </trkpt>
      <trkpt lat="44.87716" lon="-0.53233">
        <ele>9.6966552734375</ele>
        <time>2022-02-23T15:17:50Z</time>
      </trkpt>
      <trkpt lat="44.87725" lon="-0.5322">
        <ele>6.569091796875</ele>
        <time>2022-02-23T15:18:00Z</time>
      </trkpt>
      <trkpt lat="44.87731" lon="-0.53208">
        <ele>5.8887939453125</ele>
        <time>2022-02-23T15:18:09Z</time>
      </trkpt>
      <trkpt lat="44.87734" lon="-0.53195">
        <ele>6.9913330078125</ele>
        <time>2022-02-23T15:18:20Z</time>
      </trkpt>
      <trkpt lat="44.87743" lon="-0.53187">
        <ele>9.195068359375</ele>
        <time>2022-02-23T15:18:27Z</time>
      </trkpt>
      <trkpt lat="44.87754" lon="-0.53188">
        <ele>4.927978515625</ele>
        <time>2022-02-23T15:18:34Z</time>
      </trkpt>
      <trkpt lat="44.87765" lon="-0.53193">
        <ele>3.3673706054688</ele>
        <time>2022-02-23T15:18:41Z</time>
      </trkpt>
      <trkpt lat="44.87776" lon="-0.53199">
        <ele>0.5400390625</ele>
        <time>2022-02-23T15:18:47Z</time>
      </trkpt>
      <trkpt lat="44.87785" lon="-0.53194">
        <ele>7.42041015625</ele>
        <time>2022-02-23T15:19:00Z</time>
      </trkpt>
      <trkpt lat="44.87794" lon="-0.53192">
        <ele>4.9139404296875</ele>
        <time>2022-02-23T15:19:12Z</time>
      </trkpt>
      <trkpt lat="44.87803" lon="-0.53194">
        <ele>10.838317871094</ele>
        <time>2022-02-23T15:19:27Z</time>
      </trkpt>
      <trkpt lat="44.87808" lon="-0.53207">
        <ele>12.6337890625</ele>
        <time>2022-02-23T15:20:22Z</time>
      </trkpt>
      <trkpt lat="44.87816" lon="-0.53215">
        <ele>25.241394042969</ele>
        <time>2022-02-23T15:20:32Z</time>
      </trkpt>
      <trkpt lat="44.8782" lon="-0.53228">
        <ele>15.150939941406</ele>
        <time>2022-02-23T15:20:57Z</time>
      </trkpt>
      <trkpt lat="44.87826" lon="-0.53241">
        <ele>16.163879394531</ele>
        <time>2022-02-23T15:21:04Z</time>
      </trkpt>
      <trkpt lat="44.87834" lon="-0.53245">
        <ele>20.247375488281</ele>
        <time>2022-02-23T15:21:10Z</time>
      </trkpt>
      <trkpt lat="44.87843" lon="-0.53252">
        <ele>18.397583007812</ele>
        <time>2022-02-23T15:21:18Z</time>
      </trkpt>
      <trkpt lat="44.87851" lon="-0.53244">
        <ele>23.936950683594</ele>
        <time>2022-02-23T15:21:26Z</time>
      </trkpt>
      <trkpt lat="44.87858" lon="-0.53237">
        <ele>26.379272460938</ele>
        <time>2022-02-23T15:21:34Z</time>
      </trkpt>
      <trkpt lat="44.87867" lon="-0.53232">
        <ele>25.487731933594</ele>
        <time>2022-02-23T15:21:40Z</time>
      </trkpt>
      <trkpt lat="44.87876" lon="-0.53223">
        <ele>28.092651367188</ele>
        <time>2022-02-23T15:21:47Z</time>
      </trkpt>
      <trkpt lat="44.87883" lon="-0.53213">
        <ele>28.038269042969</ele>
        <time>2022-02-23T15:21:57Z</time>
      </trkpt>
      <trkpt lat="44.87891" lon="-0.53206">
        <ele>30.461242675781</ele>
        <time>2022-02-23T15:22:17Z</time>
      </trkpt>
      <trkpt lat="44.87899" lon="-0.53199">
        <ele>30.617126464844</ele>
        <time>2022-02-23T15:22:25Z</time>
      </trkpt>
      <trkpt lat="44.87906" lon="-0.53191">
        <ele>30.648132324219</ele>
        <time>2022-02-23T15:22:32Z</time>
      </trkpt>
      <trkpt lat="44.87899" lon="-0.532">
        <ele>25.833129882812</ele>
        <time>2022-02-23T15:22:46Z</time>
      </trkpt>
      <trkpt lat="44.87889" lon="-0.53205">
        <ele>24.218017578125</ele>
        <time>2022-02-23T15:25:00Z</time>
      </trkpt>
      <trkpt lat="44.8788" lon="-0.53214">
        <ele>20.704345703125</ele>
        <time>2022-02-23T15:25:04Z</time>
      </trkpt>
      <trkpt lat="44.87875" lon="-0.53224">
        <ele>26.647583007812</ele>
        <time>2022-02-23T15:25:11Z</time>
      </trkpt>
      <trkpt lat="44.87865" lon="-0.53236">
        <ele>26.577758789062</ele>
        <time>2022-02-23T15:25:17Z</time>
      </trkpt>
      <trkpt lat="44.87857" lon="-0.53245">
        <ele>30.012878417969</ele>
        <time>2022-02-23T15:25:26Z</time>
      </trkpt>
      <trkpt lat="44.87847" lon="-0.53252">
        <ele>28.644470214844</ele>
        <time>2022-02-23T15:25:32Z</time>
      </trkpt>
      <trkpt lat="44.87837" lon="-0.53253">
        <ele>22.2138671875</ele>
        <time>2022-02-23T15:25:39Z</time>
      </trkpt>
      <trkpt lat="44.87827" lon="-0.53255">
        <ele>22.497436523438</ele>
        <time>2022-02-23T15:26:05Z</time>
      </trkpt>
      <trkpt lat="44.8776" lon="-0.53251">
        <ele>9.9000015258789</ele>
        <time>2022-02-23T15:33:13Z</time>
      </trkpt>
      <trkpt lat="44.87825" lon="-0.53238">
        <ele>17.282287597656</ele>
        <time>2022-02-23T15:34:29Z</time>
      </trkpt>
      <trkpt lat="44.8782" lon="-0.53226">
        <ele>17.871337890625</ele>
        <time>2022-02-23T15:34:35Z</time>
      </trkpt>
      <trkpt lat="44.87816" lon="-0.53212">
        <ele>25.425964355469</ele>
        <time>2022-02-23T15:34:44Z</time>
      </trkpt>
      <trkpt lat="44.87814" lon="-0.53196">
        <ele>25.158508300781</ele>
        <time>2022-02-23T15:34:50Z</time>
      </trkpt>
      <trkpt lat="44.87801" lon="-0.53195">
        <ele>20.241149902344</ele>
        <time>2022-02-23T15:35:13Z</time>
      </trkpt>
      <trkpt lat="44.87792" lon="-0.53201">
        <ele>22.095275878906</ele>
        <time>2022-02-23T15:35:21Z</time>
      </trkpt>
      <trkpt lat="44.8778" lon="-0.53196">
        <ele>19.189147949219</ele>
        <time>2022-02-23T15:35:39Z</time>
      </trkpt>
      <trkpt lat="44.87773" lon="-0.53204">
        <ele>6.0160522460938</ele>
        <time>2022-02-23T15:36:23Z</time>
      </trkpt>
      <trkpt lat="44.8777" lon="-0.53221">
        <ele>4.6537475585938</ele>
        <time>2022-02-23T15:36:27Z</time>
      </trkpt>
      <trkpt lat="44.87767" lon="-0.53239">
        <ele>9.5</ele>
        <time>2022-02-23T15:36:37Z</time>
      </trkpt>
      <trkpt lat="44.87773" lon="-0.53259">
        <ele>7.7000007629395</ele>
        <time>2022-02-23T15:36:57Z</time>
      </trkpt>
      <trkpt lat="44.87777" lon="-0.53276">
        <ele>8.6307983398438</ele>
        <time>2022-02-23T15:37:07Z</time>
      </trkpt>
      <trkpt lat="44.87782" lon="-0.53287">
        <ele>7.986083984375</ele>
        <time>2022-02-23T15:37:19Z</time>
      </trkpt>
      <trkpt lat="44.87783" lon="-0.533">
        <ele>3.7034301757812</ele>
        <time>2022-02-23T15:37:33Z</time>
      </trkpt>
      <trkpt lat="44.87783" lon="-0.53316">
        <ele>-4.038330078125</ele>
        <time>2022-02-23T15:37:39Z</time>
      </trkpt>
      <trkpt lat="44.87783" lon="-0.53329">
        <ele>-7.6910400390625</ele>
        <time>2022-02-23T15:37:56Z</time>
      </trkpt>
      <trkpt lat="44.87782" lon="-0.53344">
        <ele>-3.9845581054688</ele>
        <time>2022-02-23T15:38:00Z</time>
      </trkpt>
      <trkpt lat="44.87786" lon="-0.53356">
        <ele>-8.5911254882812</ele>
        <time>2022-02-23T15:38:10Z</time>
      </trkpt>
      <trkpt lat="44.87794" lon="-0.53365">
        <ele>-5.7001953125</ele>
        <time>2022-02-23T15:38:17Z</time>
      </trkpt>
    </trkseg>
  </trk>
</gpx>